<?xml version="1.0" encoding="UTF-8" standalone="no" ?>
<gpx xmlns="http://www.topografix.com/GPX/1/1" xmlns:xsi="http://www.w3.org/2001/XMLSchema-instance" xsi:schemaLocation="http://www.topografix.com/GPX/1/1 http://www.topografix.com/GPX/1/1/gpx.xsd" version="1.1" creator="VisuGPX - https://www.visugpx.com">
  <metadata>
    <name>Chaintre Champigny</name>
    <desc><![CDATA[Randonnée du dimanche 20/3/2011, matin]]></desc>
  </metadata>
  <trk>
    <name><![CDATA[2011-02-20 09:11]]></name>
    <desc><![CDATA[]]></desc>
    <trkseg>
      <trkpt lat="47.22151" lon="-0.05171">
        <ele>100</ele>
        <time>2011-02-20T08:11:31Z</time>
      </trkpt>
      <trkpt lat="47.22151" lon="-0.05171">
        <ele>100</ele>
        <time>2011-02-20T08:11:31Z</time>
      </trkpt>
      <trkpt lat="47.22151" lon="-0.05171">
        <ele>100</ele>
        <time>2011-02-20T08:11:42Z</time>
      </trkpt>
      <trkpt lat="47.22156" lon="-0.05158">
        <ele>100</ele>
        <time>2011-02-20T08:11:43Z</time>
      </trkpt>
      <trkpt lat="47.22157" lon="-0.05156">
        <ele>99</ele>
        <time>2011-02-20T08:11:44Z</time>
      </trkpt>
      <trkpt lat="47.22158" lon="-0.05152">
        <ele>96</ele>
        <time>2011-02-20T08:11:48Z</time>
      </trkpt>
      <trkpt lat="47.22159" lon="-0.05149">
        <ele>95</ele>
        <time>2011-02-20T08:11:49Z</time>
      </trkpt>
      <trkpt lat="47.22159" lon="-0.05148">
        <ele>95</ele>
        <time>2011-02-20T08:11:50Z</time>
      </trkpt>
      <trkpt lat="47.22159" lon="-0.05148">
        <ele>95</ele>
        <time>2011-02-20T08:11:54Z</time>
      </trkpt>
      <trkpt lat="47.2216" lon="-0.05141">
        <ele>92</ele>
        <time>2011-02-20T08:11:55Z</time>
      </trkpt>
      <trkpt lat="47.22159" lon="-0.05134">
        <ele>91</ele>
        <time>2011-02-20T08:12:00Z</time>
      </trkpt>
      <trkpt lat="47.22157" lon="-0.05128">
        <ele>91</ele>
        <time>2011-02-20T08:12:07Z</time>
      </trkpt>
      <trkpt lat="47.22154" lon="-0.05121">
        <ele>91</ele>
        <time>2011-02-20T08:12:13Z</time>
      </trkpt>
      <trkpt lat="47.22153" lon="-0.05114">
        <ele>91</ele>
        <time>2011-02-20T08:12:18Z</time>
      </trkpt>
      <trkpt lat="47.22152" lon="-0.05106">
        <ele>90</ele>
        <time>2011-02-20T08:12:23Z</time>
      </trkpt>
      <trkpt lat="47.22151" lon="-0.051">
        <ele>90</ele>
        <time>2011-02-20T08:12:27Z</time>
      </trkpt>
      <trkpt lat="47.2215" lon="-0.05093">
        <ele>90</ele>
        <time>2011-02-20T08:12:31Z</time>
      </trkpt>
      <trkpt lat="47.22149" lon="-0.05086">
        <ele>90</ele>
        <time>2011-02-20T08:12:35Z</time>
      </trkpt>
      <trkpt lat="47.22148" lon="-0.05079">
        <ele>90</ele>
        <time>2011-02-20T08:12:39Z</time>
      </trkpt>
      <trkpt lat="47.22146" lon="-0.05072">
        <ele>89</ele>
        <time>2011-02-20T08:12:43Z</time>
      </trkpt>
      <trkpt lat="47.22145" lon="-0.05066">
        <ele>89</ele>
        <time>2011-02-20T08:12:47Z</time>
      </trkpt>
      <trkpt lat="47.22143" lon="-0.05058">
        <ele>89</ele>
        <time>2011-02-20T08:12:52Z</time>
      </trkpt>
      <trkpt lat="47.22142" lon="-0.05051">
        <ele>89</ele>
        <time>2011-02-20T08:12:56Z</time>
      </trkpt>
      <trkpt lat="47.2214" lon="-0.05043">
        <ele>89</ele>
        <time>2011-02-20T08:13:01Z</time>
      </trkpt>
      <trkpt lat="47.22138" lon="-0.05037">
        <ele>89</ele>
        <time>2011-02-20T08:13:05Z</time>
      </trkpt>
      <trkpt lat="47.22137" lon="-0.05031">
        <ele>89</ele>
        <time>2011-02-20T08:13:09Z</time>
      </trkpt>
      <trkpt lat="47.22135" lon="-0.05024">
        <ele>89</ele>
        <time>2011-02-20T08:13:13Z</time>
      </trkpt>
      <trkpt lat="47.22133" lon="-0.05017">
        <ele>89</ele>
        <time>2011-02-20T08:13:17Z</time>
      </trkpt>
      <trkpt lat="47.22131" lon="-0.05011">
        <ele>89</ele>
        <time>2011-02-20T08:13:21Z</time>
      </trkpt>
      <trkpt lat="47.22128" lon="-0.05005">
        <ele>89</ele>
        <time>2011-02-20T08:13:25Z</time>
      </trkpt>
      <trkpt lat="47.22125" lon="-0.05">
        <ele>89</ele>
        <time>2011-02-20T08:13:30Z</time>
      </trkpt>
      <trkpt lat="47.2212" lon="-0.04997">
        <ele>89</ele>
        <time>2011-02-20T08:13:38Z</time>
      </trkpt>
      <trkpt lat="47.22115" lon="-0.04995">
        <ele>89</ele>
        <time>2011-02-20T08:13:44Z</time>
      </trkpt>
      <trkpt lat="47.22111" lon="-0.04993">
        <ele>89</ele>
        <time>2011-02-20T08:13:49Z</time>
      </trkpt>
      <trkpt lat="47.22106" lon="-0.04989">
        <ele>89</ele>
        <time>2011-02-20T08:13:54Z</time>
      </trkpt>
      <trkpt lat="47.22103" lon="-0.04982">
        <ele>89</ele>
        <time>2011-02-20T08:13:59Z</time>
      </trkpt>
      <trkpt lat="47.22102" lon="-0.04976">
        <ele>89</ele>
        <time>2011-02-20T08:14:03Z</time>
      </trkpt>
      <trkpt lat="47.22099" lon="-0.0497">
        <ele>89</ele>
        <time>2011-02-20T08:14:07Z</time>
      </trkpt>
      <trkpt lat="47.22096" lon="-0.04963">
        <ele>89</ele>
        <time>2011-02-20T08:14:12Z</time>
      </trkpt>
      <trkpt lat="47.22092" lon="-0.04956">
        <ele>89</ele>
        <time>2011-02-20T08:14:17Z</time>
      </trkpt>
      <trkpt lat="47.2209" lon="-0.04951">
        <ele>89</ele>
        <time>2011-02-20T08:14:21Z</time>
      </trkpt>
      <trkpt lat="47.22087" lon="-0.04945">
        <ele>89</ele>
        <time>2011-02-20T08:14:25Z</time>
      </trkpt>
      <trkpt lat="47.22085" lon="-0.04939">
        <ele>89</ele>
        <time>2011-02-20T08:14:29Z</time>
      </trkpt>
      <trkpt lat="47.22083" lon="-0.04933">
        <ele>89</ele>
        <time>2011-02-20T08:14:33Z</time>
      </trkpt>
      <trkpt lat="47.22081" lon="-0.04926">
        <ele>89</ele>
        <time>2011-02-20T08:14:37Z</time>
      </trkpt>
      <trkpt lat="47.22079" lon="-0.04919">
        <ele>89</ele>
        <time>2011-02-20T08:14:41Z</time>
      </trkpt>
      <trkpt lat="47.22076" lon="-0.04913">
        <ele>89</ele>
        <time>2011-02-20T08:14:45Z</time>
      </trkpt>
      <trkpt lat="47.22073" lon="-0.04906">
        <ele>89</ele>
        <time>2011-02-20T08:14:49Z</time>
      </trkpt>
      <trkpt lat="47.2207" lon="-0.04899">
        <ele>89</ele>
        <time>2011-02-20T08:14:53Z</time>
      </trkpt>
      <trkpt lat="47.22067" lon="-0.04893">
        <ele>89</ele>
        <time>2011-02-20T08:14:57Z</time>
      </trkpt>
      <trkpt lat="47.22064" lon="-0.04887">
        <ele>89</ele>
        <time>2011-02-20T08:15:01Z</time>
      </trkpt>
      <trkpt lat="47.22061" lon="-0.0488">
        <ele>89</ele>
        <time>2011-02-20T08:15:05Z</time>
      </trkpt>
      <trkpt lat="47.22059" lon="-0.04873">
        <ele>89</ele>
        <time>2011-02-20T08:15:09Z</time>
      </trkpt>
      <trkpt lat="47.22056" lon="-0.04867">
        <ele>89</ele>
        <time>2011-02-20T08:15:13Z</time>
      </trkpt>
      <trkpt lat="47.22053" lon="-0.04861">
        <ele>89</ele>
        <time>2011-02-20T08:15:17Z</time>
      </trkpt>
      <trkpt lat="47.2205" lon="-0.04855">
        <ele>89</ele>
        <time>2011-02-20T08:15:21Z</time>
      </trkpt>
      <trkpt lat="47.22046" lon="-0.0485">
        <ele>89</ele>
        <time>2011-02-20T08:15:25Z</time>
      </trkpt>
      <trkpt lat="47.22042" lon="-0.04849">
        <ele>89</ele>
        <time>2011-02-20T08:15:30Z</time>
      </trkpt>
      <trkpt lat="47.22037" lon="-0.04851">
        <ele>89</ele>
        <time>2011-02-20T08:15:34Z</time>
      </trkpt>
      <trkpt lat="47.22032" lon="-0.04853">
        <ele>89</ele>
        <time>2011-02-20T08:15:38Z</time>
      </trkpt>
      <trkpt lat="47.22027" lon="-0.04857">
        <ele>89</ele>
        <time>2011-02-20T08:15:42Z</time>
      </trkpt>
      <trkpt lat="47.22022" lon="-0.04861">
        <ele>89</ele>
        <time>2011-02-20T08:15:46Z</time>
      </trkpt>
      <trkpt lat="47.22017" lon="-0.04863">
        <ele>89</ele>
        <time>2011-02-20T08:15:50Z</time>
      </trkpt>
      <trkpt lat="47.22012" lon="-0.0486">
        <ele>89</ele>
        <time>2011-02-20T08:15:54Z</time>
      </trkpt>
      <trkpt lat="47.22008" lon="-0.04853">
        <ele>89</ele>
        <time>2011-02-20T08:15:59Z</time>
      </trkpt>
      <trkpt lat="47.22006" lon="-0.04848">
        <ele>89</ele>
        <time>2011-02-20T08:16:03Z</time>
      </trkpt>
      <trkpt lat="47.22002" lon="-0.04842">
        <ele>89</ele>
        <time>2011-02-20T08:16:08Z</time>
      </trkpt>
      <trkpt lat="47.21999" lon="-0.04836">
        <ele>89</ele>
        <time>2011-02-20T08:16:13Z</time>
      </trkpt>
      <trkpt lat="47.21996" lon="-0.0483">
        <ele>89</ele>
        <time>2011-02-20T08:16:17Z</time>
      </trkpt>
      <trkpt lat="47.21994" lon="-0.04823">
        <ele>89</ele>
        <time>2011-02-20T08:16:22Z</time>
      </trkpt>
      <trkpt lat="47.21991" lon="-0.04818">
        <ele>89</ele>
        <time>2011-02-20T08:16:26Z</time>
      </trkpt>
      <trkpt lat="47.21988" lon="-0.04812">
        <ele>89</ele>
        <time>2011-02-20T08:16:30Z</time>
      </trkpt>
      <trkpt lat="47.21985" lon="-0.04806">
        <ele>89</ele>
        <time>2011-02-20T08:16:34Z</time>
      </trkpt>
      <trkpt lat="47.21982" lon="-0.04801">
        <ele>89</ele>
        <time>2011-02-20T08:16:38Z</time>
      </trkpt>
      <trkpt lat="47.21978" lon="-0.04795">
        <ele>89</ele>
        <time>2011-02-20T08:16:42Z</time>
      </trkpt>
      <trkpt lat="47.21975" lon="-0.0479">
        <ele>89</ele>
        <time>2011-02-20T08:16:46Z</time>
      </trkpt>
      <trkpt lat="47.21971" lon="-0.04784">
        <ele>89</ele>
        <time>2011-02-20T08:16:50Z</time>
      </trkpt>
      <trkpt lat="47.21968" lon="-0.04779">
        <ele>89</ele>
        <time>2011-02-20T08:16:54Z</time>
      </trkpt>
      <trkpt lat="47.21965" lon="-0.04773">
        <ele>89</ele>
        <time>2011-02-20T08:16:58Z</time>
      </trkpt>
      <trkpt lat="47.21962" lon="-0.04766">
        <ele>89</ele>
        <time>2011-02-20T08:17:02Z</time>
      </trkpt>
      <trkpt lat="47.21959" lon="-0.0476">
        <ele>89</ele>
        <time>2011-02-20T08:17:06Z</time>
      </trkpt>
      <trkpt lat="47.21956" lon="-0.04754">
        <ele>90</ele>
        <time>2011-02-20T08:17:10Z</time>
      </trkpt>
      <trkpt lat="47.21953" lon="-0.04748">
        <ele>90</ele>
        <time>2011-02-20T08:17:14Z</time>
      </trkpt>
      <trkpt lat="47.2195" lon="-0.04742">
        <ele>90</ele>
        <time>2011-02-20T08:17:18Z</time>
      </trkpt>
      <trkpt lat="47.21947" lon="-0.04736">
        <ele>90</ele>
        <time>2011-02-20T08:17:22Z</time>
      </trkpt>
      <trkpt lat="47.21944" lon="-0.0473">
        <ele>90</ele>
        <time>2011-02-20T08:17:26Z</time>
      </trkpt>
      <trkpt lat="47.21941" lon="-0.04725">
        <ele>90</ele>
        <time>2011-02-20T08:17:30Z</time>
      </trkpt>
      <trkpt lat="47.21938" lon="-0.04719">
        <ele>90</ele>
        <time>2011-02-20T08:17:34Z</time>
      </trkpt>
      <trkpt lat="47.21935" lon="-0.04713">
        <ele>90</ele>
        <time>2011-02-20T08:17:38Z</time>
      </trkpt>
      <trkpt lat="47.21931" lon="-0.04707">
        <ele>90</ele>
        <time>2011-02-20T08:17:42Z</time>
      </trkpt>
      <trkpt lat="47.21928" lon="-0.047">
        <ele>90</ele>
        <time>2011-02-20T08:17:46Z</time>
      </trkpt>
      <trkpt lat="47.21925" lon="-0.04694">
        <ele>90</ele>
        <time>2011-02-20T08:17:50Z</time>
      </trkpt>
      <trkpt lat="47.21922" lon="-0.04687">
        <ele>90</ele>
        <time>2011-02-20T08:17:54Z</time>
      </trkpt>
      <trkpt lat="47.21919" lon="-0.04681">
        <ele>90</ele>
        <time>2011-02-20T08:17:58Z</time>
      </trkpt>
      <trkpt lat="47.21916" lon="-0.04675">
        <ele>90</ele>
        <time>2011-02-20T08:18:02Z</time>
      </trkpt>
      <trkpt lat="47.21913" lon="-0.04669">
        <ele>90</ele>
        <time>2011-02-20T08:18:06Z</time>
      </trkpt>
      <trkpt lat="47.2191" lon="-0.04663">
        <ele>90</ele>
        <time>2011-02-20T08:18:10Z</time>
      </trkpt>
      <trkpt lat="47.21907" lon="-0.04657">
        <ele>90</ele>
        <time>2011-02-20T08:18:14Z</time>
      </trkpt>
      <trkpt lat="47.21904" lon="-0.04651">
        <ele>90</ele>
        <time>2011-02-20T08:18:18Z</time>
      </trkpt>
      <trkpt lat="47.21901" lon="-0.04646">
        <ele>90</ele>
        <time>2011-02-20T08:18:22Z</time>
      </trkpt>
      <trkpt lat="47.21897" lon="-0.04641">
        <ele>90</ele>
        <time>2011-02-20T08:18:26Z</time>
      </trkpt>
      <trkpt lat="47.21893" lon="-0.04635">
        <ele>90</ele>
        <time>2011-02-20T08:18:30Z</time>
      </trkpt>
      <trkpt lat="47.2189" lon="-0.0463">
        <ele>90</ele>
        <time>2011-02-20T08:18:34Z</time>
      </trkpt>
      <trkpt lat="47.21886" lon="-0.04625">
        <ele>90</ele>
        <time>2011-02-20T08:18:38Z</time>
      </trkpt>
      <trkpt lat="47.21883" lon="-0.04619">
        <ele>90</ele>
        <time>2011-02-20T08:18:42Z</time>
      </trkpt>
      <trkpt lat="47.21879" lon="-0.04614">
        <ele>90</ele>
        <time>2011-02-20T08:18:46Z</time>
      </trkpt>
      <trkpt lat="47.21876" lon="-0.04608">
        <ele>90</ele>
        <time>2011-02-20T08:18:50Z</time>
      </trkpt>
      <trkpt lat="47.21873" lon="-0.04602">
        <ele>90</ele>
        <time>2011-02-20T08:18:55Z</time>
      </trkpt>
      <trkpt lat="47.2187" lon="-0.04596">
        <ele>91</ele>
        <time>2011-02-20T08:18:59Z</time>
      </trkpt>
      <trkpt lat="47.21867" lon="-0.0459">
        <ele>91</ele>
        <time>2011-02-20T08:19:04Z</time>
      </trkpt>
      <trkpt lat="47.21863" lon="-0.04585">
        <ele>91</ele>
        <time>2011-02-20T08:19:08Z</time>
      </trkpt>
      <trkpt lat="47.21859" lon="-0.04581">
        <ele>91</ele>
        <time>2011-02-20T08:19:12Z</time>
      </trkpt>
      <trkpt lat="47.21856" lon="-0.04576">
        <ele>91</ele>
        <time>2011-02-20T08:19:16Z</time>
      </trkpt>
      <trkpt lat="47.21853" lon="-0.0457">
        <ele>92</ele>
        <time>2011-02-20T08:19:20Z</time>
      </trkpt>
      <trkpt lat="47.2185" lon="-0.04565">
        <ele>92</ele>
        <time>2011-02-20T08:19:24Z</time>
      </trkpt>
      <trkpt lat="47.21846" lon="-0.0456">
        <ele>92</ele>
        <time>2011-02-20T08:19:28Z</time>
      </trkpt>
      <trkpt lat="47.21843" lon="-0.04555">
        <ele>92</ele>
        <time>2011-02-20T08:19:32Z</time>
      </trkpt>
      <trkpt lat="47.21839" lon="-0.04551">
        <ele>92</ele>
        <time>2011-02-20T08:19:36Z</time>
      </trkpt>
      <trkpt lat="47.21836" lon="-0.04547">
        <ele>92</ele>
        <time>2011-02-20T08:19:40Z</time>
      </trkpt>
      <trkpt lat="47.21832" lon="-0.04542">
        <ele>93</ele>
        <time>2011-02-20T08:19:44Z</time>
      </trkpt>
      <trkpt lat="47.21828" lon="-0.04539">
        <ele>93</ele>
        <time>2011-02-20T08:19:48Z</time>
      </trkpt>
      <trkpt lat="47.21823" lon="-0.04536">
        <ele>93</ele>
        <time>2011-02-20T08:19:53Z</time>
      </trkpt>
      <trkpt lat="47.21819" lon="-0.04534">
        <ele>93</ele>
        <time>2011-02-20T08:19:57Z</time>
      </trkpt>
      <trkpt lat="47.21814" lon="-0.04531">
        <ele>93</ele>
        <time>2011-02-20T08:20:01Z</time>
      </trkpt>
      <trkpt lat="47.2181" lon="-0.04529">
        <ele>93</ele>
        <time>2011-02-20T08:20:05Z</time>
      </trkpt>
      <trkpt lat="47.21805" lon="-0.04526">
        <ele>93</ele>
        <time>2011-02-20T08:20:10Z</time>
      </trkpt>
      <trkpt lat="47.21799" lon="-0.04524">
        <ele>94</ele>
        <time>2011-02-20T08:20:15Z</time>
      </trkpt>
      <trkpt lat="47.21794" lon="-0.04521">
        <ele>94</ele>
        <time>2011-02-20T08:20:20Z</time>
      </trkpt>
      <trkpt lat="47.21789" lon="-0.04517">
        <ele>94</ele>
        <time>2011-02-20T08:20:25Z</time>
      </trkpt>
      <trkpt lat="47.21783" lon="-0.04515">
        <ele>94</ele>
        <time>2011-02-20T08:20:30Z</time>
      </trkpt>
      <trkpt lat="47.21778" lon="-0.04512">
        <ele>94</ele>
        <time>2011-02-20T08:20:35Z</time>
      </trkpt>
      <trkpt lat="47.21774" lon="-0.04509">
        <ele>94</ele>
        <time>2011-02-20T08:20:39Z</time>
      </trkpt>
      <trkpt lat="47.21769" lon="-0.04508">
        <ele>94</ele>
        <time>2011-02-20T08:20:43Z</time>
      </trkpt>
      <trkpt lat="47.21765" lon="-0.04506">
        <ele>94</ele>
        <time>2011-02-20T08:20:47Z</time>
      </trkpt>
      <trkpt lat="47.2176" lon="-0.04503">
        <ele>94</ele>
        <time>2011-02-20T08:20:51Z</time>
      </trkpt>
      <trkpt lat="47.21756" lon="-0.045">
        <ele>94</ele>
        <time>2011-02-20T08:20:55Z</time>
      </trkpt>
      <trkpt lat="47.21752" lon="-0.04496">
        <ele>95</ele>
        <time>2011-02-20T08:20:59Z</time>
      </trkpt>
      <trkpt lat="47.21748" lon="-0.04492">
        <ele>95</ele>
        <time>2011-02-20T08:21:04Z</time>
      </trkpt>
      <trkpt lat="47.21745" lon="-0.04486">
        <ele>95</ele>
        <time>2011-02-20T08:21:09Z</time>
      </trkpt>
      <trkpt lat="47.21741" lon="-0.04481">
        <ele>95</ele>
        <time>2011-02-20T08:21:14Z</time>
      </trkpt>
      <trkpt lat="47.21737" lon="-0.04478">
        <ele>95</ele>
        <time>2011-02-20T08:21:18Z</time>
      </trkpt>
      <trkpt lat="47.21732" lon="-0.04473">
        <ele>95</ele>
        <time>2011-02-20T08:21:23Z</time>
      </trkpt>
      <trkpt lat="47.21727" lon="-0.0447">
        <ele>96</ele>
        <time>2011-02-20T08:21:29Z</time>
      </trkpt>
      <trkpt lat="47.21723" lon="-0.04467">
        <ele>96</ele>
        <time>2011-02-20T08:21:36Z</time>
      </trkpt>
      <trkpt lat="47.21719" lon="-0.04463">
        <ele>96</ele>
        <time>2011-02-20T08:21:43Z</time>
      </trkpt>
      <trkpt lat="47.21722" lon="-0.04469">
        <ele>96</ele>
        <time>2011-02-20T08:22:10Z</time>
      </trkpt>
      <trkpt lat="47.21724" lon="-0.04475">
        <ele>96</ele>
        <time>2011-02-20T08:22:13Z</time>
      </trkpt>
      <trkpt lat="47.21726" lon="-0.04483">
        <ele>96</ele>
        <time>2011-02-20T08:22:16Z</time>
      </trkpt>
      <trkpt lat="47.21728" lon="-0.04489">
        <ele>96</ele>
        <time>2011-02-20T08:22:19Z</time>
      </trkpt>
      <trkpt lat="47.21729" lon="-0.04497">
        <ele>96</ele>
        <time>2011-02-20T08:22:23Z</time>
      </trkpt>
      <trkpt lat="47.2173" lon="-0.04506">
        <ele>96</ele>
        <time>2011-02-20T08:22:27Z</time>
      </trkpt>
      <trkpt lat="47.21732" lon="-0.04513">
        <ele>96</ele>
        <time>2011-02-20T08:22:31Z</time>
      </trkpt>
      <trkpt lat="47.21732" lon="-0.0452">
        <ele>96</ele>
        <time>2011-02-20T08:22:35Z</time>
      </trkpt>
      <trkpt lat="47.21733" lon="-0.04528">
        <ele>96</ele>
        <time>2011-02-20T08:22:39Z</time>
      </trkpt>
      <trkpt lat="47.21734" lon="-0.04536">
        <ele>96</ele>
        <time>2011-02-20T08:22:43Z</time>
      </trkpt>
      <trkpt lat="47.21734" lon="-0.04543">
        <ele>96</ele>
        <time>2011-02-20T08:22:47Z</time>
      </trkpt>
      <trkpt lat="47.21735" lon="-0.04552">
        <ele>96</ele>
        <time>2011-02-20T08:22:51Z</time>
      </trkpt>
      <trkpt lat="47.21735" lon="-0.0456">
        <ele>96</ele>
        <time>2011-02-20T08:22:55Z</time>
      </trkpt>
      <trkpt lat="47.21736" lon="-0.04569">
        <ele>96</ele>
        <time>2011-02-20T08:22:59Z</time>
      </trkpt>
      <trkpt lat="47.21735" lon="-0.04577">
        <ele>96</ele>
        <time>2011-02-20T08:23:03Z</time>
      </trkpt>
      <trkpt lat="47.21734" lon="-0.04585">
        <ele>96</ele>
        <time>2011-02-20T08:23:07Z</time>
      </trkpt>
      <trkpt lat="47.21733" lon="-0.04593">
        <ele>96</ele>
        <time>2011-02-20T08:23:10Z</time>
      </trkpt>
      <trkpt lat="47.21732" lon="-0.04601">
        <ele>96</ele>
        <time>2011-02-20T08:23:13Z</time>
      </trkpt>
      <trkpt lat="47.21732" lon="-0.04608">
        <ele>97</ele>
        <time>2011-02-20T08:23:16Z</time>
      </trkpt>
      <trkpt lat="47.21732" lon="-0.04616">
        <ele>97</ele>
        <time>2011-02-20T08:23:20Z</time>
      </trkpt>
      <trkpt lat="47.21732" lon="-0.04624">
        <ele>97</ele>
        <time>2011-02-20T08:23:24Z</time>
      </trkpt>
      <trkpt lat="47.21731" lon="-0.04632">
        <ele>97</ele>
        <time>2011-02-20T08:23:28Z</time>
      </trkpt>
      <trkpt lat="47.21731" lon="-0.0464">
        <ele>97</ele>
        <time>2011-02-20T08:23:32Z</time>
      </trkpt>
      <trkpt lat="47.2173" lon="-0.04649">
        <ele>97</ele>
        <time>2011-02-20T08:23:36Z</time>
      </trkpt>
      <trkpt lat="47.21729" lon="-0.04657">
        <ele>97</ele>
        <time>2011-02-20T08:23:40Z</time>
      </trkpt>
      <trkpt lat="47.21729" lon="-0.04665">
        <ele>98</ele>
        <time>2011-02-20T08:23:44Z</time>
      </trkpt>
      <trkpt lat="47.2173" lon="-0.04673">
        <ele>98</ele>
        <time>2011-02-20T08:23:48Z</time>
      </trkpt>
      <trkpt lat="47.2173" lon="-0.0468">
        <ele>98</ele>
        <time>2011-02-20T08:23:52Z</time>
      </trkpt>
      <trkpt lat="47.2173" lon="-0.04688">
        <ele>99</ele>
        <time>2011-02-20T08:23:57Z</time>
      </trkpt>
      <trkpt lat="47.2173" lon="-0.04696">
        <ele>99</ele>
        <time>2011-02-20T08:24:02Z</time>
      </trkpt>
      <trkpt lat="47.21729" lon="-0.04703">
        <ele>99</ele>
        <time>2011-02-20T08:24:06Z</time>
      </trkpt>
      <trkpt lat="47.21729" lon="-0.0471">
        <ele>99</ele>
        <time>2011-02-20T08:24:10Z</time>
      </trkpt>
      <trkpt lat="47.21729" lon="-0.04716">
        <ele>99</ele>
        <time>2011-02-20T08:24:14Z</time>
      </trkpt>
      <trkpt lat="47.21728" lon="-0.04723">
        <ele>100</ele>
        <time>2011-02-20T08:24:18Z</time>
      </trkpt>
      <trkpt lat="47.21728" lon="-0.0473">
        <ele>100</ele>
        <time>2011-02-20T08:24:22Z</time>
      </trkpt>
      <trkpt lat="47.21727" lon="-0.04737">
        <ele>100</ele>
        <time>2011-02-20T08:24:26Z</time>
      </trkpt>
      <trkpt lat="47.21726" lon="-0.04744">
        <ele>100</ele>
        <time>2011-02-20T08:24:30Z</time>
      </trkpt>
      <trkpt lat="47.21725" lon="-0.04751">
        <ele>100</ele>
        <time>2011-02-20T08:24:34Z</time>
      </trkpt>
      <trkpt lat="47.21724" lon="-0.04758">
        <ele>100</ele>
        <time>2011-02-20T08:24:38Z</time>
      </trkpt>
      <trkpt lat="47.21724" lon="-0.04766">
        <ele>100</ele>
        <time>2011-02-20T08:24:42Z</time>
      </trkpt>
      <trkpt lat="47.21723" lon="-0.04773">
        <ele>100</ele>
        <time>2011-02-20T08:24:46Z</time>
      </trkpt>
      <trkpt lat="47.21723" lon="-0.0478">
        <ele>100</ele>
        <time>2011-02-20T08:24:50Z</time>
      </trkpt>
      <trkpt lat="47.21722" lon="-0.04787">
        <ele>100</ele>
        <time>2011-02-20T08:24:54Z</time>
      </trkpt>
      <trkpt lat="47.21722" lon="-0.04795">
        <ele>100</ele>
        <time>2011-02-20T08:24:58Z</time>
      </trkpt>
      <trkpt lat="47.21722" lon="-0.04802">
        <ele>100</ele>
        <time>2011-02-20T08:25:02Z</time>
      </trkpt>
      <trkpt lat="47.21722" lon="-0.04809">
        <ele>100</ele>
        <time>2011-02-20T08:25:06Z</time>
      </trkpt>
      <trkpt lat="47.21723" lon="-0.04816">
        <ele>100</ele>
        <time>2011-02-20T08:25:10Z</time>
      </trkpt>
      <trkpt lat="47.21724" lon="-0.04823">
        <ele>100</ele>
        <time>2011-02-20T08:25:14Z</time>
      </trkpt>
      <trkpt lat="47.21726" lon="-0.0483">
        <ele>100</ele>
        <time>2011-02-20T08:25:18Z</time>
      </trkpt>
      <trkpt lat="47.21728" lon="-0.04836">
        <ele>100</ele>
        <time>2011-02-20T08:25:21Z</time>
      </trkpt>
      <trkpt lat="47.2173" lon="-0.04842">
        <ele>100</ele>
        <time>2011-02-20T08:25:24Z</time>
      </trkpt>
      <trkpt lat="47.21732" lon="-0.04851">
        <ele>100</ele>
        <time>2011-02-20T08:25:28Z</time>
      </trkpt>
      <trkpt lat="47.21735" lon="-0.04859">
        <ele>100</ele>
        <time>2011-02-20T08:25:32Z</time>
      </trkpt>
      <trkpt lat="47.21736" lon="-0.04866">
        <ele>100</ele>
        <time>2011-02-20T08:25:36Z</time>
      </trkpt>
      <trkpt lat="47.21738" lon="-0.04873">
        <ele>100</ele>
        <time>2011-02-20T08:25:40Z</time>
      </trkpt>
      <trkpt lat="47.21739" lon="-0.04881">
        <ele>100</ele>
        <time>2011-02-20T08:25:44Z</time>
      </trkpt>
      <trkpt lat="47.2174" lon="-0.04887">
        <ele>100</ele>
        <time>2011-02-20T08:25:48Z</time>
      </trkpt>
      <trkpt lat="47.21741" lon="-0.04895">
        <ele>100</ele>
        <time>2011-02-20T08:25:53Z</time>
      </trkpt>
      <trkpt lat="47.21742" lon="-0.04903">
        <ele>100</ele>
        <time>2011-02-20T08:25:58Z</time>
      </trkpt>
      <trkpt lat="47.21744" lon="-0.04911">
        <ele>101</ele>
        <time>2011-02-20T08:26:03Z</time>
      </trkpt>
      <trkpt lat="47.21745" lon="-0.04917">
        <ele>101</ele>
        <time>2011-02-20T08:26:07Z</time>
      </trkpt>
      <trkpt lat="47.21746" lon="-0.04924">
        <ele>101</ele>
        <time>2011-02-20T08:26:11Z</time>
      </trkpt>
      <trkpt lat="47.21747" lon="-0.0493">
        <ele>101</ele>
        <time>2011-02-20T08:26:15Z</time>
      </trkpt>
      <trkpt lat="47.21748" lon="-0.04937">
        <ele>101</ele>
        <time>2011-02-20T08:26:19Z</time>
      </trkpt>
      <trkpt lat="47.2175" lon="-0.04944">
        <ele>101</ele>
        <time>2011-02-20T08:26:23Z</time>
      </trkpt>
      <trkpt lat="47.21751" lon="-0.04951">
        <ele>101</ele>
        <time>2011-02-20T08:26:27Z</time>
      </trkpt>
      <trkpt lat="47.21753" lon="-0.04958">
        <ele>101</ele>
        <time>2011-02-20T08:26:31Z</time>
      </trkpt>
      <trkpt lat="47.21754" lon="-0.04965">
        <ele>101</ele>
        <time>2011-02-20T08:26:35Z</time>
      </trkpt>
      <trkpt lat="47.21756" lon="-0.04971">
        <ele>101</ele>
        <time>2011-02-20T08:26:39Z</time>
      </trkpt>
      <trkpt lat="47.21757" lon="-0.04977">
        <ele>101</ele>
        <time>2011-02-20T08:26:43Z</time>
      </trkpt>
      <trkpt lat="47.21758" lon="-0.04984">
        <ele>101</ele>
        <time>2011-02-20T08:26:47Z</time>
      </trkpt>
      <trkpt lat="47.2176" lon="-0.04991">
        <ele>102</ele>
        <time>2011-02-20T08:26:51Z</time>
      </trkpt>
      <trkpt lat="47.21761" lon="-0.04997">
        <ele>102</ele>
        <time>2011-02-20T08:26:55Z</time>
      </trkpt>
      <trkpt lat="47.21762" lon="-0.05004">
        <ele>102</ele>
        <time>2011-02-20T08:26:59Z</time>
      </trkpt>
      <trkpt lat="47.21764" lon="-0.05011">
        <ele>102</ele>
        <time>2011-02-20T08:27:03Z</time>
      </trkpt>
      <trkpt lat="47.21766" lon="-0.05017">
        <ele>102</ele>
        <time>2011-02-20T08:27:07Z</time>
      </trkpt>
      <trkpt lat="47.21768" lon="-0.05023">
        <ele>102</ele>
        <time>2011-02-20T08:27:11Z</time>
      </trkpt>
      <trkpt lat="47.2177" lon="-0.05029">
        <ele>102</ele>
        <time>2011-02-20T08:27:15Z</time>
      </trkpt>
      <trkpt lat="47.21773" lon="-0.05035">
        <ele>102</ele>
        <time>2011-02-20T08:27:19Z</time>
      </trkpt>
      <trkpt lat="47.21776" lon="-0.05042">
        <ele>102</ele>
        <time>2011-02-20T08:27:23Z</time>
      </trkpt>
      <trkpt lat="47.21778" lon="-0.05048">
        <ele>102</ele>
        <time>2011-02-20T08:27:27Z</time>
      </trkpt>
      <trkpt lat="47.21781" lon="-0.05054">
        <ele>102</ele>
        <time>2011-02-20T08:27:31Z</time>
      </trkpt>
      <trkpt lat="47.21784" lon="-0.05061">
        <ele>102</ele>
        <time>2011-02-20T08:27:35Z</time>
      </trkpt>
      <trkpt lat="47.21787" lon="-0.05067">
        <ele>102</ele>
        <time>2011-02-20T08:27:39Z</time>
      </trkpt>
      <trkpt lat="47.21782" lon="-0.05069">
        <ele>102</ele>
        <time>2011-02-20T08:27:50Z</time>
      </trkpt>
      <trkpt lat="47.21778" lon="-0.05068">
        <ele>102</ele>
        <time>2011-02-20T08:27:57Z</time>
      </trkpt>
      <trkpt lat="47.21772" lon="-0.05067">
        <ele>102</ele>
        <time>2011-02-20T08:28:03Z</time>
      </trkpt>
      <trkpt lat="47.21767" lon="-0.05066">
        <ele>102</ele>
        <time>2011-02-20T08:28:08Z</time>
      </trkpt>
      <trkpt lat="47.21761" lon="-0.05065">
        <ele>102</ele>
        <time>2011-02-20T08:28:12Z</time>
      </trkpt>
      <trkpt lat="47.21756" lon="-0.05063">
        <ele>102</ele>
        <time>2011-02-20T08:28:17Z</time>
      </trkpt>
      <trkpt lat="47.21751" lon="-0.05062">
        <ele>102</ele>
        <time>2011-02-20T08:28:22Z</time>
      </trkpt>
      <trkpt lat="47.21746" lon="-0.0506">
        <ele>102</ele>
        <time>2011-02-20T08:28:27Z</time>
      </trkpt>
      <trkpt lat="47.21741" lon="-0.05057">
        <ele>102</ele>
        <time>2011-02-20T08:28:31Z</time>
      </trkpt>
      <trkpt lat="47.21735" lon="-0.05055">
        <ele>102</ele>
        <time>2011-02-20T08:28:35Z</time>
      </trkpt>
      <trkpt lat="47.2173" lon="-0.05054">
        <ele>102</ele>
        <time>2011-02-20T08:28:39Z</time>
      </trkpt>
      <trkpt lat="47.21725" lon="-0.05051">
        <ele>102</ele>
        <time>2011-02-20T08:28:43Z</time>
      </trkpt>
      <trkpt lat="47.2172" lon="-0.05048">
        <ele>102</ele>
        <time>2011-02-20T08:28:47Z</time>
      </trkpt>
      <trkpt lat="47.21715" lon="-0.05044">
        <ele>103</ele>
        <time>2011-02-20T08:28:51Z</time>
      </trkpt>
      <trkpt lat="47.21711" lon="-0.05041">
        <ele>103</ele>
        <time>2011-02-20T08:28:55Z</time>
      </trkpt>
      <trkpt lat="47.21707" lon="-0.05037">
        <ele>103</ele>
        <time>2011-02-20T08:28:59Z</time>
      </trkpt>
      <trkpt lat="47.21703" lon="-0.05034">
        <ele>103</ele>
        <time>2011-02-20T08:29:03Z</time>
      </trkpt>
      <trkpt lat="47.21698" lon="-0.05031">
        <ele>103</ele>
        <time>2011-02-20T08:29:07Z</time>
      </trkpt>
      <trkpt lat="47.21694" lon="-0.05028">
        <ele>104</ele>
        <time>2011-02-20T08:29:11Z</time>
      </trkpt>
      <trkpt lat="47.21689" lon="-0.05024">
        <ele>104</ele>
        <time>2011-02-20T08:29:15Z</time>
      </trkpt>
      <trkpt lat="47.21685" lon="-0.0502">
        <ele>104</ele>
        <time>2011-02-20T08:29:19Z</time>
      </trkpt>
      <trkpt lat="47.21681" lon="-0.05017">
        <ele>104</ele>
        <time>2011-02-20T08:29:23Z</time>
      </trkpt>
      <trkpt lat="47.21676" lon="-0.05013">
        <ele>104</ele>
        <time>2011-02-20T08:29:27Z</time>
      </trkpt>
      <trkpt lat="47.21672" lon="-0.05009">
        <ele>105</ele>
        <time>2011-02-20T08:29:31Z</time>
      </trkpt>
      <trkpt lat="47.21668" lon="-0.05005">
        <ele>105</ele>
        <time>2011-02-20T08:29:35Z</time>
      </trkpt>
      <trkpt lat="47.21663" lon="-0.05001">
        <ele>105</ele>
        <time>2011-02-20T08:29:39Z</time>
      </trkpt>
      <trkpt lat="47.21659" lon="-0.04998">
        <ele>105</ele>
        <time>2011-02-20T08:29:43Z</time>
      </trkpt>
      <trkpt lat="47.21654" lon="-0.04994">
        <ele>105</ele>
        <time>2011-02-20T08:29:47Z</time>
      </trkpt>
      <trkpt lat="47.2165" lon="-0.0499">
        <ele>106</ele>
        <time>2011-02-20T08:29:51Z</time>
      </trkpt>
      <trkpt lat="47.21645" lon="-0.04986">
        <ele>106</ele>
        <time>2011-02-20T08:29:55Z</time>
      </trkpt>
      <trkpt lat="47.21641" lon="-0.04981">
        <ele>106</ele>
        <time>2011-02-20T08:29:59Z</time>
      </trkpt>
      <trkpt lat="47.21637" lon="-0.04977">
        <ele>106</ele>
        <time>2011-02-20T08:30:03Z</time>
      </trkpt>
      <trkpt lat="47.21632" lon="-0.04973">
        <ele>106</ele>
        <time>2011-02-20T08:30:07Z</time>
      </trkpt>
      <trkpt lat="47.21629" lon="-0.04968">
        <ele>107</ele>
        <time>2011-02-20T08:30:11Z</time>
      </trkpt>
      <trkpt lat="47.21625" lon="-0.04964">
        <ele>107</ele>
        <time>2011-02-20T08:30:15Z</time>
      </trkpt>
      <trkpt lat="47.2162" lon="-0.04959">
        <ele>107</ele>
        <time>2011-02-20T08:30:19Z</time>
      </trkpt>
      <trkpt lat="47.21616" lon="-0.04953">
        <ele>107</ele>
        <time>2011-02-20T08:30:23Z</time>
      </trkpt>
      <trkpt lat="47.21612" lon="-0.04949">
        <ele>107</ele>
        <time>2011-02-20T08:30:27Z</time>
      </trkpt>
      <trkpt lat="47.21608" lon="-0.04944">
        <ele>107</ele>
        <time>2011-02-20T08:30:31Z</time>
      </trkpt>
      <trkpt lat="47.21604" lon="-0.04939">
        <ele>107</ele>
        <time>2011-02-20T08:30:35Z</time>
      </trkpt>
      <trkpt lat="47.216" lon="-0.04934">
        <ele>108</ele>
        <time>2011-02-20T08:30:39Z</time>
      </trkpt>
      <trkpt lat="47.21596" lon="-0.04929">
        <ele>108</ele>
        <time>2011-02-20T08:30:43Z</time>
      </trkpt>
      <trkpt lat="47.21592" lon="-0.04924">
        <ele>108</ele>
        <time>2011-02-20T08:30:47Z</time>
      </trkpt>
      <trkpt lat="47.21588" lon="-0.04919">
        <ele>108</ele>
        <time>2011-02-20T08:30:51Z</time>
      </trkpt>
      <trkpt lat="47.21583" lon="-0.04916">
        <ele>108</ele>
        <time>2011-02-20T08:30:55Z</time>
      </trkpt>
      <trkpt lat="47.21579" lon="-0.04912">
        <ele>108</ele>
        <time>2011-02-20T08:30:59Z</time>
      </trkpt>
      <trkpt lat="47.21575" lon="-0.04908">
        <ele>109</ele>
        <time>2011-02-20T08:31:03Z</time>
      </trkpt>
      <trkpt lat="47.21571" lon="-0.04904">
        <ele>109</ele>
        <time>2011-02-20T08:31:07Z</time>
      </trkpt>
      <trkpt lat="47.21567" lon="-0.04899">
        <ele>109</ele>
        <time>2011-02-20T08:31:11Z</time>
      </trkpt>
      <trkpt lat="47.21563" lon="-0.04895">
        <ele>109</ele>
        <time>2011-02-20T08:31:15Z</time>
      </trkpt>
      <trkpt lat="47.21559" lon="-0.04891">
        <ele>109</ele>
        <time>2011-02-20T08:31:19Z</time>
      </trkpt>
      <trkpt lat="47.21555" lon="-0.04887">
        <ele>110</ele>
        <time>2011-02-20T08:31:23Z</time>
      </trkpt>
      <trkpt lat="47.21551" lon="-0.04884">
        <ele>110</ele>
        <time>2011-02-20T08:31:27Z</time>
      </trkpt>
      <trkpt lat="47.21547" lon="-0.04882">
        <ele>110</ele>
        <time>2011-02-20T08:31:31Z</time>
      </trkpt>
      <trkpt lat="47.21543" lon="-0.04878">
        <ele>110</ele>
        <time>2011-02-20T08:31:35Z</time>
      </trkpt>
      <trkpt lat="47.21538" lon="-0.04875">
        <ele>110</ele>
        <time>2011-02-20T08:31:39Z</time>
      </trkpt>
      <trkpt lat="47.21534" lon="-0.04872">
        <ele>110</ele>
        <time>2011-02-20T08:31:43Z</time>
      </trkpt>
      <trkpt lat="47.21529" lon="-0.0487">
        <ele>111</ele>
        <time>2011-02-20T08:31:47Z</time>
      </trkpt>
      <trkpt lat="47.21525" lon="-0.04866">
        <ele>111</ele>
        <time>2011-02-20T08:31:51Z</time>
      </trkpt>
      <trkpt lat="47.2152" lon="-0.04862">
        <ele>111</ele>
        <time>2011-02-20T08:31:55Z</time>
      </trkpt>
      <trkpt lat="47.21515" lon="-0.04858">
        <ele>111</ele>
        <time>2011-02-20T08:31:59Z</time>
      </trkpt>
      <trkpt lat="47.21511" lon="-0.04854">
        <ele>112</ele>
        <time>2011-02-20T08:32:03Z</time>
      </trkpt>
      <trkpt lat="47.21507" lon="-0.0485">
        <ele>112</ele>
        <time>2011-02-20T08:32:07Z</time>
      </trkpt>
      <trkpt lat="47.21502" lon="-0.04846">
        <ele>112</ele>
        <time>2011-02-20T08:32:11Z</time>
      </trkpt>
      <trkpt lat="47.21498" lon="-0.04842">
        <ele>113</ele>
        <time>2011-02-20T08:32:15Z</time>
      </trkpt>
      <trkpt lat="47.21493" lon="-0.04838">
        <ele>113</ele>
        <time>2011-02-20T08:32:19Z</time>
      </trkpt>
      <trkpt lat="47.21489" lon="-0.04834">
        <ele>114</ele>
        <time>2011-02-20T08:32:23Z</time>
      </trkpt>
      <trkpt lat="47.21485" lon="-0.0483">
        <ele>114</ele>
        <time>2011-02-20T08:32:27Z</time>
      </trkpt>
      <trkpt lat="47.21481" lon="-0.04826">
        <ele>114</ele>
        <time>2011-02-20T08:32:31Z</time>
      </trkpt>
      <trkpt lat="47.21477" lon="-0.04822">
        <ele>114</ele>
        <time>2011-02-20T08:32:35Z</time>
      </trkpt>
      <trkpt lat="47.21473" lon="-0.04817">
        <ele>115</ele>
        <time>2011-02-20T08:32:39Z</time>
      </trkpt>
      <trkpt lat="47.21469" lon="-0.04814">
        <ele>115</ele>
        <time>2011-02-20T08:32:43Z</time>
      </trkpt>
      <trkpt lat="47.21465" lon="-0.0481">
        <ele>115</ele>
        <time>2011-02-20T08:32:47Z</time>
      </trkpt>
      <trkpt lat="47.21461" lon="-0.04805">
        <ele>115</ele>
        <time>2011-02-20T08:32:51Z</time>
      </trkpt>
      <trkpt lat="47.21458" lon="-0.04801">
        <ele>116</ele>
        <time>2011-02-20T08:32:55Z</time>
      </trkpt>
      <trkpt lat="47.21455" lon="-0.04795">
        <ele>116</ele>
        <time>2011-02-20T08:32:59Z</time>
      </trkpt>
      <trkpt lat="47.21451" lon="-0.04789">
        <ele>116</ele>
        <time>2011-02-20T08:33:04Z</time>
      </trkpt>
      <trkpt lat="47.21448" lon="-0.04782">
        <ele>116</ele>
        <time>2011-02-20T08:33:09Z</time>
      </trkpt>
      <trkpt lat="47.21445" lon="-0.04776">
        <ele>116</ele>
        <time>2011-02-20T08:33:13Z</time>
      </trkpt>
      <trkpt lat="47.21442" lon="-0.0477">
        <ele>116</ele>
        <time>2011-02-20T08:33:17Z</time>
      </trkpt>
      <trkpt lat="47.21439" lon="-0.04764">
        <ele>117</ele>
        <time>2011-02-20T08:33:21Z</time>
      </trkpt>
      <trkpt lat="47.21435" lon="-0.04758">
        <ele>117</ele>
        <time>2011-02-20T08:33:25Z</time>
      </trkpt>
      <trkpt lat="47.21432" lon="-0.04752">
        <ele>117</ele>
        <time>2011-02-20T08:33:29Z</time>
      </trkpt>
      <trkpt lat="47.21429" lon="-0.04747">
        <ele>117</ele>
        <time>2011-02-20T08:33:33Z</time>
      </trkpt>
      <trkpt lat="47.21426" lon="-0.04741">
        <ele>117</ele>
        <time>2011-02-20T08:33:38Z</time>
      </trkpt>
      <trkpt lat="47.21423" lon="-0.04735">
        <ele>117</ele>
        <time>2011-02-20T08:33:42Z</time>
      </trkpt>
      <trkpt lat="47.2142" lon="-0.04729">
        <ele>117</ele>
        <time>2011-02-20T08:33:46Z</time>
      </trkpt>
      <trkpt lat="47.21417" lon="-0.04723">
        <ele>117</ele>
        <time>2011-02-20T08:33:50Z</time>
      </trkpt>
      <trkpt lat="47.21414" lon="-0.04718">
        <ele>117</ele>
        <time>2011-02-20T08:33:54Z</time>
      </trkpt>
      <trkpt lat="47.2141" lon="-0.04713">
        <ele>117</ele>
        <time>2011-02-20T08:33:58Z</time>
      </trkpt>
      <trkpt lat="47.21407" lon="-0.04706">
        <ele>117</ele>
        <time>2011-02-20T08:34:03Z</time>
      </trkpt>
      <trkpt lat="47.21403" lon="-0.04701">
        <ele>117</ele>
        <time>2011-02-20T08:34:08Z</time>
      </trkpt>
      <trkpt lat="47.21399" lon="-0.04696">
        <ele>117</ele>
        <time>2011-02-20T08:34:14Z</time>
      </trkpt>
      <trkpt lat="47.21395" lon="-0.04691">
        <ele>117</ele>
        <time>2011-02-20T08:34:21Z</time>
      </trkpt>
      <trkpt lat="47.21391" lon="-0.04686">
        <ele>116</ele>
        <time>2011-02-20T08:34:27Z</time>
      </trkpt>
      <trkpt lat="47.21387" lon="-0.04682">
        <ele>116</ele>
        <time>2011-02-20T08:34:32Z</time>
      </trkpt>
      <trkpt lat="47.21383" lon="-0.04677">
        <ele>115</ele>
        <time>2011-02-20T08:34:38Z</time>
      </trkpt>
      <trkpt lat="47.21379" lon="-0.04672">
        <ele>115</ele>
        <time>2011-02-20T08:34:44Z</time>
      </trkpt>
      <trkpt lat="47.21376" lon="-0.04666">
        <ele>115</ele>
        <time>2011-02-20T08:34:49Z</time>
      </trkpt>
      <trkpt lat="47.21373" lon="-0.04661">
        <ele>114</ele>
        <time>2011-02-20T08:34:54Z</time>
      </trkpt>
      <trkpt lat="47.21369" lon="-0.04655">
        <ele>114</ele>
        <time>2011-02-20T08:34:59Z</time>
      </trkpt>
      <trkpt lat="47.21366" lon="-0.04648">
        <ele>114</ele>
        <time>2011-02-20T08:35:04Z</time>
      </trkpt>
      <trkpt lat="47.21362" lon="-0.04642">
        <ele>113</ele>
        <time>2011-02-20T08:35:09Z</time>
      </trkpt>
      <trkpt lat="47.21359" lon="-0.04637">
        <ele>113</ele>
        <time>2011-02-20T08:35:14Z</time>
      </trkpt>
      <trkpt lat="47.21355" lon="-0.04632">
        <ele>113</ele>
        <time>2011-02-20T08:35:19Z</time>
      </trkpt>
      <trkpt lat="47.21351" lon="-0.0463">
        <ele>112</ele>
        <time>2011-02-20T08:35:24Z</time>
      </trkpt>
      <trkpt lat="47.21346" lon="-0.04628">
        <ele>112</ele>
        <time>2011-02-20T08:35:29Z</time>
      </trkpt>
      <trkpt lat="47.21341" lon="-0.04628">
        <ele>112</ele>
        <time>2011-02-20T08:35:34Z</time>
      </trkpt>
      <trkpt lat="47.21342" lon="-0.04625">
        <ele>112</ele>
        <time>2011-02-20T08:36:09Z</time>
      </trkpt>
      <trkpt lat="47.21344" lon="-0.0463">
        <ele>111</ele>
        <time>2011-02-20T08:37:11Z</time>
      </trkpt>
      <trkpt lat="47.21344" lon="-0.04631">
        <ele>111</ele>
        <time>2011-02-20T08:37:12Z</time>
      </trkpt>
      <trkpt lat="47.2134" lon="-0.04627">
        <ele>111</ele>
        <time>2011-02-20T08:38:17Z</time>
      </trkpt>
      <trkpt lat="47.21338" lon="-0.04633">
        <ele>111</ele>
        <time>2011-02-20T08:39:13Z</time>
      </trkpt>
      <trkpt lat="47.21336" lon="-0.04639">
        <ele>111</ele>
        <time>2011-02-20T08:39:19Z</time>
      </trkpt>
      <trkpt lat="47.21335" lon="-0.04646">
        <ele>110</ele>
        <time>2011-02-20T08:39:23Z</time>
      </trkpt>
      <trkpt lat="47.21334" lon="-0.04653">
        <ele>110</ele>
        <time>2011-02-20T08:39:26Z</time>
      </trkpt>
      <trkpt lat="47.21332" lon="-0.04661">
        <ele>110</ele>
        <time>2011-02-20T08:39:29Z</time>
      </trkpt>
      <trkpt lat="47.21331" lon="-0.04668">
        <ele>110</ele>
        <time>2011-02-20T08:39:32Z</time>
      </trkpt>
      <trkpt lat="47.2133" lon="-0.04674">
        <ele>110</ele>
        <time>2011-02-20T08:39:35Z</time>
      </trkpt>
      <trkpt lat="47.21329" lon="-0.04682">
        <ele>110</ele>
        <time>2011-02-20T08:39:39Z</time>
      </trkpt>
      <trkpt lat="47.21329" lon="-0.04689">
        <ele>110</ele>
        <time>2011-02-20T08:39:43Z</time>
      </trkpt>
      <trkpt lat="47.21328" lon="-0.04696">
        <ele>110</ele>
        <time>2011-02-20T08:39:49Z</time>
      </trkpt>
      <trkpt lat="47.21327" lon="-0.04704">
        <ele>110</ele>
        <time>2011-02-20T08:39:55Z</time>
      </trkpt>
      <trkpt lat="47.21326" lon="-0.04712">
        <ele>110</ele>
        <time>2011-02-20T08:39:59Z</time>
      </trkpt>
      <trkpt lat="47.21324" lon="-0.04719">
        <ele>110</ele>
        <time>2011-02-20T08:40:03Z</time>
      </trkpt>
      <trkpt lat="47.21323" lon="-0.04727">
        <ele>110</ele>
        <time>2011-02-20T08:40:06Z</time>
      </trkpt>
      <trkpt lat="47.21322" lon="-0.04734">
        <ele>110</ele>
        <time>2011-02-20T08:40:09Z</time>
      </trkpt>
      <trkpt lat="47.21322" lon="-0.04741">
        <ele>110</ele>
        <time>2011-02-20T08:40:12Z</time>
      </trkpt>
      <trkpt lat="47.21321" lon="-0.04748">
        <ele>109</ele>
        <time>2011-02-20T08:40:15Z</time>
      </trkpt>
      <trkpt lat="47.21321" lon="-0.04754">
        <ele>109</ele>
        <time>2011-02-20T08:40:18Z</time>
      </trkpt>
      <trkpt lat="47.2132" lon="-0.04763">
        <ele>109</ele>
        <time>2011-02-20T08:40:22Z</time>
      </trkpt>
      <trkpt lat="47.21318" lon="-0.0477">
        <ele>109</ele>
        <time>2011-02-20T08:40:26Z</time>
      </trkpt>
      <trkpt lat="47.21318" lon="-0.04778">
        <ele>109</ele>
        <time>2011-02-20T08:40:30Z</time>
      </trkpt>
      <trkpt lat="47.21317" lon="-0.04787">
        <ele>109</ele>
        <time>2011-02-20T08:40:34Z</time>
      </trkpt>
      <trkpt lat="47.21316" lon="-0.04794">
        <ele>109</ele>
        <time>2011-02-20T08:40:38Z</time>
      </trkpt>
      <trkpt lat="47.21314" lon="-0.04802">
        <ele>109</ele>
        <time>2011-02-20T08:40:42Z</time>
      </trkpt>
      <trkpt lat="47.21313" lon="-0.04809">
        <ele>109</ele>
        <time>2011-02-20T08:40:46Z</time>
      </trkpt>
      <trkpt lat="47.21311" lon="-0.04817">
        <ele>109</ele>
        <time>2011-02-20T08:40:50Z</time>
      </trkpt>
      <trkpt lat="47.2131" lon="-0.04824">
        <ele>109</ele>
        <time>2011-02-20T08:40:54Z</time>
      </trkpt>
      <trkpt lat="47.21309" lon="-0.04831">
        <ele>109</ele>
        <time>2011-02-20T08:40:58Z</time>
      </trkpt>
      <trkpt lat="47.21308" lon="-0.04838">
        <ele>109</ele>
        <time>2011-02-20T08:41:02Z</time>
      </trkpt>
      <trkpt lat="47.21307" lon="-0.04845">
        <ele>109</ele>
        <time>2011-02-20T08:41:06Z</time>
      </trkpt>
      <trkpt lat="47.21305" lon="-0.04852">
        <ele>109</ele>
        <time>2011-02-20T08:41:10Z</time>
      </trkpt>
      <trkpt lat="47.21304" lon="-0.04859">
        <ele>108</ele>
        <time>2011-02-20T08:41:14Z</time>
      </trkpt>
      <trkpt lat="47.21304" lon="-0.04867">
        <ele>108</ele>
        <time>2011-02-20T08:41:18Z</time>
      </trkpt>
      <trkpt lat="47.21303" lon="-0.04874">
        <ele>108</ele>
        <time>2011-02-20T08:41:22Z</time>
      </trkpt>
      <trkpt lat="47.21302" lon="-0.04882">
        <ele>108</ele>
        <time>2011-02-20T08:41:26Z</time>
      </trkpt>
      <trkpt lat="47.21301" lon="-0.0489">
        <ele>108</ele>
        <time>2011-02-20T08:41:30Z</time>
      </trkpt>
      <trkpt lat="47.21301" lon="-0.04898">
        <ele>108</ele>
        <time>2011-02-20T08:41:34Z</time>
      </trkpt>
      <trkpt lat="47.21299" lon="-0.04906">
        <ele>108</ele>
        <time>2011-02-20T08:41:38Z</time>
      </trkpt>
      <trkpt lat="47.21295" lon="-0.0491">
        <ele>108</ele>
        <time>2011-02-20T08:41:42Z</time>
      </trkpt>
      <trkpt lat="47.21289" lon="-0.04912">
        <ele>107</ele>
        <time>2011-02-20T08:41:46Z</time>
      </trkpt>
      <trkpt lat="47.21285" lon="-0.04909">
        <ele>107</ele>
        <time>2011-02-20T08:41:51Z</time>
      </trkpt>
      <trkpt lat="47.21282" lon="-0.04903">
        <ele>107</ele>
        <time>2011-02-20T08:41:55Z</time>
      </trkpt>
      <trkpt lat="47.21279" lon="-0.04897">
        <ele>107</ele>
        <time>2011-02-20T08:41:59Z</time>
      </trkpt>
      <trkpt lat="47.21276" lon="-0.04891">
        <ele>106</ele>
        <time>2011-02-20T08:42:04Z</time>
      </trkpt>
      <trkpt lat="47.21272" lon="-0.04886">
        <ele>106</ele>
        <time>2011-02-20T08:42:08Z</time>
      </trkpt>
      <trkpt lat="47.21268" lon="-0.04881">
        <ele>106</ele>
        <time>2011-02-20T08:42:12Z</time>
      </trkpt>
      <trkpt lat="47.21265" lon="-0.04876">
        <ele>106</ele>
        <time>2011-02-20T08:42:16Z</time>
      </trkpt>
      <trkpt lat="47.21261" lon="-0.04871">
        <ele>106</ele>
        <time>2011-02-20T08:42:21Z</time>
      </trkpt>
      <trkpt lat="47.21257" lon="-0.04866">
        <ele>106</ele>
        <time>2011-02-20T08:42:25Z</time>
      </trkpt>
      <trkpt lat="47.21254" lon="-0.04862">
        <ele>105</ele>
        <time>2011-02-20T08:42:29Z</time>
      </trkpt>
      <trkpt lat="47.2125" lon="-0.04857">
        <ele>105</ele>
        <time>2011-02-20T08:42:33Z</time>
      </trkpt>
      <trkpt lat="47.21246" lon="-0.04852">
        <ele>105</ele>
        <time>2011-02-20T08:42:37Z</time>
      </trkpt>
      <trkpt lat="47.21242" lon="-0.04847">
        <ele>105</ele>
        <time>2011-02-20T08:42:41Z</time>
      </trkpt>
      <trkpt lat="47.21238" lon="-0.04843">
        <ele>105</ele>
        <time>2011-02-20T08:42:45Z</time>
      </trkpt>
      <trkpt lat="47.21234" lon="-0.04838">
        <ele>104</ele>
        <time>2011-02-20T08:42:49Z</time>
      </trkpt>
      <trkpt lat="47.2123" lon="-0.04833">
        <ele>104</ele>
        <time>2011-02-20T08:42:53Z</time>
      </trkpt>
      <trkpt lat="47.21227" lon="-0.04828">
        <ele>104</ele>
        <time>2011-02-20T08:42:57Z</time>
      </trkpt>
      <trkpt lat="47.21223" lon="-0.04822">
        <ele>104</ele>
        <time>2011-02-20T08:43:01Z</time>
      </trkpt>
      <trkpt lat="47.2122" lon="-0.04818">
        <ele>103</ele>
        <time>2011-02-20T08:43:05Z</time>
      </trkpt>
      <trkpt lat="47.21216" lon="-0.04812">
        <ele>103</ele>
        <time>2011-02-20T08:43:09Z</time>
      </trkpt>
      <trkpt lat="47.21212" lon="-0.04808">
        <ele>103</ele>
        <time>2011-02-20T08:43:13Z</time>
      </trkpt>
      <trkpt lat="47.21208" lon="-0.04803">
        <ele>103</ele>
        <time>2011-02-20T08:43:17Z</time>
      </trkpt>
      <trkpt lat="47.21205" lon="-0.04798">
        <ele>103</ele>
        <time>2011-02-20T08:43:21Z</time>
      </trkpt>
      <trkpt lat="47.21201" lon="-0.04793">
        <ele>102</ele>
        <time>2011-02-20T08:43:25Z</time>
      </trkpt>
      <trkpt lat="47.21197" lon="-0.04788">
        <ele>102</ele>
        <time>2011-02-20T08:43:29Z</time>
      </trkpt>
      <trkpt lat="47.21193" lon="-0.04784">
        <ele>102</ele>
        <time>2011-02-20T08:43:33Z</time>
      </trkpt>
      <trkpt lat="47.21189" lon="-0.04778">
        <ele>102</ele>
        <time>2011-02-20T08:43:37Z</time>
      </trkpt>
      <trkpt lat="47.21185" lon="-0.04774">
        <ele>101</ele>
        <time>2011-02-20T08:43:41Z</time>
      </trkpt>
      <trkpt lat="47.21181" lon="-0.04769">
        <ele>101</ele>
        <time>2011-02-20T08:43:45Z</time>
      </trkpt>
      <trkpt lat="47.21177" lon="-0.04766">
        <ele>101</ele>
        <time>2011-02-20T08:43:49Z</time>
      </trkpt>
      <trkpt lat="47.21173" lon="-0.04762">
        <ele>101</ele>
        <time>2011-02-20T08:43:53Z</time>
      </trkpt>
      <trkpt lat="47.21169" lon="-0.04758">
        <ele>101</ele>
        <time>2011-02-20T08:43:57Z</time>
      </trkpt>
      <trkpt lat="47.21165" lon="-0.04754">
        <ele>101</ele>
        <time>2011-02-20T08:44:01Z</time>
      </trkpt>
      <trkpt lat="47.21161" lon="-0.0475">
        <ele>101</ele>
        <time>2011-02-20T08:44:05Z</time>
      </trkpt>
      <trkpt lat="47.21157" lon="-0.04747">
        <ele>100</ele>
        <time>2011-02-20T08:44:09Z</time>
      </trkpt>
      <trkpt lat="47.21152" lon="-0.04742">
        <ele>100</ele>
        <time>2011-02-20T08:44:14Z</time>
      </trkpt>
      <trkpt lat="47.21148" lon="-0.04739">
        <ele>100</ele>
        <time>2011-02-20T08:44:18Z</time>
      </trkpt>
      <trkpt lat="47.21144" lon="-0.04735">
        <ele>100</ele>
        <time>2011-02-20T08:44:22Z</time>
      </trkpt>
      <trkpt lat="47.2114" lon="-0.04731">
        <ele>100</ele>
        <time>2011-02-20T08:44:26Z</time>
      </trkpt>
      <trkpt lat="47.21136" lon="-0.04727">
        <ele>100</ele>
        <time>2011-02-20T08:44:30Z</time>
      </trkpt>
      <trkpt lat="47.21131" lon="-0.04723">
        <ele>99</ele>
        <time>2011-02-20T08:44:34Z</time>
      </trkpt>
      <trkpt lat="47.21127" lon="-0.0472">
        <ele>99</ele>
        <time>2011-02-20T08:44:38Z</time>
      </trkpt>
      <trkpt lat="47.21123" lon="-0.04716">
        <ele>99</ele>
        <time>2011-02-20T08:44:42Z</time>
      </trkpt>
      <trkpt lat="47.21118" lon="-0.04713">
        <ele>99</ele>
        <time>2011-02-20T08:44:46Z</time>
      </trkpt>
      <trkpt lat="47.21114" lon="-0.04709">
        <ele>99</ele>
        <time>2011-02-20T08:44:50Z</time>
      </trkpt>
      <trkpt lat="47.21109" lon="-0.04705">
        <ele>98</ele>
        <time>2011-02-20T08:44:54Z</time>
      </trkpt>
      <trkpt lat="47.21105" lon="-0.04701">
        <ele>98</ele>
        <time>2011-02-20T08:44:58Z</time>
      </trkpt>
      <trkpt lat="47.21101" lon="-0.04698">
        <ele>98</ele>
        <time>2011-02-20T08:45:02Z</time>
      </trkpt>
      <trkpt lat="47.21097" lon="-0.04694">
        <ele>98</ele>
        <time>2011-02-20T08:45:06Z</time>
      </trkpt>
      <trkpt lat="47.21093" lon="-0.0469">
        <ele>97</ele>
        <time>2011-02-20T08:45:10Z</time>
      </trkpt>
      <trkpt lat="47.21088" lon="-0.04686">
        <ele>97</ele>
        <time>2011-02-20T08:45:14Z</time>
      </trkpt>
      <trkpt lat="47.21084" lon="-0.04682">
        <ele>97</ele>
        <time>2011-02-20T08:45:18Z</time>
      </trkpt>
      <trkpt lat="47.2108" lon="-0.04678">
        <ele>97</ele>
        <time>2011-02-20T08:45:22Z</time>
      </trkpt>
      <trkpt lat="47.21076" lon="-0.04673">
        <ele>97</ele>
        <time>2011-02-20T08:45:26Z</time>
      </trkpt>
      <trkpt lat="47.21071" lon="-0.04669">
        <ele>97</ele>
        <time>2011-02-20T08:45:30Z</time>
      </trkpt>
      <trkpt lat="47.21067" lon="-0.04665">
        <ele>96</ele>
        <time>2011-02-20T08:45:34Z</time>
      </trkpt>
      <trkpt lat="47.21063" lon="-0.04661">
        <ele>96</ele>
        <time>2011-02-20T08:45:38Z</time>
      </trkpt>
      <trkpt lat="47.21059" lon="-0.04657">
        <ele>96</ele>
        <time>2011-02-20T08:45:42Z</time>
      </trkpt>
      <trkpt lat="47.21055" lon="-0.04654">
        <ele>96</ele>
        <time>2011-02-20T08:45:46Z</time>
      </trkpt>
      <trkpt lat="47.2105" lon="-0.04651">
        <ele>96</ele>
        <time>2011-02-20T08:45:50Z</time>
      </trkpt>
      <trkpt lat="47.21046" lon="-0.04648">
        <ele>95</ele>
        <time>2011-02-20T08:45:54Z</time>
      </trkpt>
      <trkpt lat="47.2104" lon="-0.04644">
        <ele>95</ele>
        <time>2011-02-20T08:45:59Z</time>
      </trkpt>
      <trkpt lat="47.21036" lon="-0.04641">
        <ele>95</ele>
        <time>2011-02-20T08:46:03Z</time>
      </trkpt>
      <trkpt lat="47.21032" lon="-0.04638">
        <ele>95</ele>
        <time>2011-02-20T08:46:07Z</time>
      </trkpt>
      <trkpt lat="47.21027" lon="-0.04635">
        <ele>95</ele>
        <time>2011-02-20T08:46:11Z</time>
      </trkpt>
      <trkpt lat="47.21022" lon="-0.04632">
        <ele>94</ele>
        <time>2011-02-20T08:46:15Z</time>
      </trkpt>
      <trkpt lat="47.21018" lon="-0.04628">
        <ele>94</ele>
        <time>2011-02-20T08:46:19Z</time>
      </trkpt>
      <trkpt lat="47.21013" lon="-0.04624">
        <ele>94</ele>
        <time>2011-02-20T08:46:23Z</time>
      </trkpt>
      <trkpt lat="47.21009" lon="-0.04621">
        <ele>94</ele>
        <time>2011-02-20T08:46:27Z</time>
      </trkpt>
      <trkpt lat="47.21005" lon="-0.04618">
        <ele>94</ele>
        <time>2011-02-20T08:46:31Z</time>
      </trkpt>
      <trkpt lat="47.21" lon="-0.04614">
        <ele>93</ele>
        <time>2011-02-20T08:46:35Z</time>
      </trkpt>
      <trkpt lat="47.20996" lon="-0.04611">
        <ele>93</ele>
        <time>2011-02-20T08:46:39Z</time>
      </trkpt>
      <trkpt lat="47.20991" lon="-0.04608">
        <ele>93</ele>
        <time>2011-02-20T08:46:43Z</time>
      </trkpt>
      <trkpt lat="47.20987" lon="-0.04605">
        <ele>93</ele>
        <time>2011-02-20T08:46:47Z</time>
      </trkpt>
      <trkpt lat="47.20982" lon="-0.04601">
        <ele>93</ele>
        <time>2011-02-20T08:46:52Z</time>
      </trkpt>
      <trkpt lat="47.20976" lon="-0.04598">
        <ele>92</ele>
        <time>2011-02-20T08:46:57Z</time>
      </trkpt>
      <trkpt lat="47.20972" lon="-0.04595">
        <ele>92</ele>
        <time>2011-02-20T08:47:01Z</time>
      </trkpt>
      <trkpt lat="47.20968" lon="-0.04592">
        <ele>92</ele>
        <time>2011-02-20T08:47:05Z</time>
      </trkpt>
      <trkpt lat="47.20963" lon="-0.0459">
        <ele>92</ele>
        <time>2011-02-20T08:47:09Z</time>
      </trkpt>
      <trkpt lat="47.20958" lon="-0.04592">
        <ele>91</ele>
        <time>2011-02-20T08:47:14Z</time>
      </trkpt>
      <trkpt lat="47.20956" lon="-0.04598">
        <ele>91</ele>
        <time>2011-02-20T08:47:18Z</time>
      </trkpt>
      <trkpt lat="47.20953" lon="-0.04605">
        <ele>91</ele>
        <time>2011-02-20T08:47:23Z</time>
      </trkpt>
      <trkpt lat="47.20952" lon="-0.04612">
        <ele>91</ele>
        <time>2011-02-20T08:47:27Z</time>
      </trkpt>
      <trkpt lat="47.20954" lon="-0.0462">
        <ele>91</ele>
        <time>2011-02-20T08:47:31Z</time>
      </trkpt>
      <trkpt lat="47.20955" lon="-0.04628">
        <ele>91</ele>
        <time>2011-02-20T08:47:35Z</time>
      </trkpt>
      <trkpt lat="47.20955" lon="-0.04635">
        <ele>91</ele>
        <time>2011-02-20T08:47:39Z</time>
      </trkpt>
      <trkpt lat="47.20956" lon="-0.04642">
        <ele>91</ele>
        <time>2011-02-20T08:47:43Z</time>
      </trkpt>
      <trkpt lat="47.20955" lon="-0.04649">
        <ele>91</ele>
        <time>2011-02-20T08:47:47Z</time>
      </trkpt>
      <trkpt lat="47.20955" lon="-0.04656">
        <ele>90</ele>
        <time>2011-02-20T08:47:51Z</time>
      </trkpt>
      <trkpt lat="47.20955" lon="-0.04665">
        <ele>90</ele>
        <time>2011-02-20T08:47:55Z</time>
      </trkpt>
      <trkpt lat="47.20954" lon="-0.04673">
        <ele>90</ele>
        <time>2011-02-20T08:47:59Z</time>
      </trkpt>
      <trkpt lat="47.20954" lon="-0.04682">
        <ele>90</ele>
        <time>2011-02-20T08:48:03Z</time>
      </trkpt>
      <trkpt lat="47.20954" lon="-0.0469">
        <ele>90</ele>
        <time>2011-02-20T08:48:07Z</time>
      </trkpt>
      <trkpt lat="47.20953" lon="-0.04697">
        <ele>90</ele>
        <time>2011-02-20T08:48:11Z</time>
      </trkpt>
      <trkpt lat="47.20953" lon="-0.04704">
        <ele>90</ele>
        <time>2011-02-20T08:48:15Z</time>
      </trkpt>
      <trkpt lat="47.20952" lon="-0.04712">
        <ele>90</ele>
        <time>2011-02-20T08:48:19Z</time>
      </trkpt>
      <trkpt lat="47.20951" lon="-0.0472">
        <ele>90</ele>
        <time>2011-02-20T08:48:23Z</time>
      </trkpt>
      <trkpt lat="47.2095" lon="-0.04728">
        <ele>90</ele>
        <time>2011-02-20T08:48:27Z</time>
      </trkpt>
      <trkpt lat="47.2095" lon="-0.04736">
        <ele>90</ele>
        <time>2011-02-20T08:48:31Z</time>
      </trkpt>
      <trkpt lat="47.20949" lon="-0.04743">
        <ele>90</ele>
        <time>2011-02-20T08:48:35Z</time>
      </trkpt>
      <trkpt lat="47.20948" lon="-0.04751">
        <ele>90</ele>
        <time>2011-02-20T08:48:39Z</time>
      </trkpt>
      <trkpt lat="47.20947" lon="-0.04758">
        <ele>90</ele>
        <time>2011-02-20T08:48:43Z</time>
      </trkpt>
      <trkpt lat="47.20946" lon="-0.04765">
        <ele>90</ele>
        <time>2011-02-20T08:48:47Z</time>
      </trkpt>
      <trkpt lat="47.20945" lon="-0.04773">
        <ele>90</ele>
        <time>2011-02-20T08:48:51Z</time>
      </trkpt>
      <trkpt lat="47.20944" lon="-0.04779">
        <ele>90</ele>
        <time>2011-02-20T08:48:55Z</time>
      </trkpt>
      <trkpt lat="47.20944" lon="-0.04786">
        <ele>90</ele>
        <time>2011-02-20T08:48:59Z</time>
      </trkpt>
      <trkpt lat="47.20943" lon="-0.04793">
        <ele>90</ele>
        <time>2011-02-20T08:49:03Z</time>
      </trkpt>
      <trkpt lat="47.20943" lon="-0.048">
        <ele>90</ele>
        <time>2011-02-20T08:49:07Z</time>
      </trkpt>
      <trkpt lat="47.20943" lon="-0.04807">
        <ele>90</ele>
        <time>2011-02-20T08:49:11Z</time>
      </trkpt>
      <trkpt lat="47.20942" lon="-0.04814">
        <ele>90</ele>
        <time>2011-02-20T08:49:15Z</time>
      </trkpt>
      <trkpt lat="47.20942" lon="-0.04821">
        <ele>90</ele>
        <time>2011-02-20T08:49:19Z</time>
      </trkpt>
      <trkpt lat="47.20941" lon="-0.04828">
        <ele>90</ele>
        <time>2011-02-20T08:49:23Z</time>
      </trkpt>
      <trkpt lat="47.2094" lon="-0.04836">
        <ele>90</ele>
        <time>2011-02-20T08:49:27Z</time>
      </trkpt>
      <trkpt lat="47.2094" lon="-0.04843">
        <ele>90</ele>
        <time>2011-02-20T08:49:31Z</time>
      </trkpt>
      <trkpt lat="47.20939" lon="-0.0485">
        <ele>90</ele>
        <time>2011-02-20T08:49:35Z</time>
      </trkpt>
      <trkpt lat="47.20939" lon="-0.04857">
        <ele>90</ele>
        <time>2011-02-20T08:49:39Z</time>
      </trkpt>
      <trkpt lat="47.20938" lon="-0.04864">
        <ele>90</ele>
        <time>2011-02-20T08:49:43Z</time>
      </trkpt>
      <trkpt lat="47.20938" lon="-0.04872">
        <ele>90</ele>
        <time>2011-02-20T08:49:47Z</time>
      </trkpt>
      <trkpt lat="47.20938" lon="-0.0488">
        <ele>90</ele>
        <time>2011-02-20T08:49:51Z</time>
      </trkpt>
      <trkpt lat="47.20937" lon="-0.04887">
        <ele>90</ele>
        <time>2011-02-20T08:49:55Z</time>
      </trkpt>
      <trkpt lat="47.20937" lon="-0.04895">
        <ele>90</ele>
        <time>2011-02-20T08:49:59Z</time>
      </trkpt>
      <trkpt lat="47.20937" lon="-0.04903">
        <ele>91</ele>
        <time>2011-02-20T08:50:03Z</time>
      </trkpt>
      <trkpt lat="47.20937" lon="-0.0491">
        <ele>91</ele>
        <time>2011-02-20T08:50:07Z</time>
      </trkpt>
      <trkpt lat="47.20936" lon="-0.04918">
        <ele>91</ele>
        <time>2011-02-20T08:50:11Z</time>
      </trkpt>
      <trkpt lat="47.20936" lon="-0.04926">
        <ele>91</ele>
        <time>2011-02-20T08:50:15Z</time>
      </trkpt>
      <trkpt lat="47.20936" lon="-0.04933">
        <ele>91</ele>
        <time>2011-02-20T08:50:19Z</time>
      </trkpt>
      <trkpt lat="47.20935" lon="-0.04941">
        <ele>91</ele>
        <time>2011-02-20T08:50:23Z</time>
      </trkpt>
      <trkpt lat="47.20934" lon="-0.04949">
        <ele>91</ele>
        <time>2011-02-20T08:50:27Z</time>
      </trkpt>
      <trkpt lat="47.20933" lon="-0.04956">
        <ele>91</ele>
        <time>2011-02-20T08:50:31Z</time>
      </trkpt>
      <trkpt lat="47.20933" lon="-0.04964">
        <ele>91</ele>
        <time>2011-02-20T08:50:35Z</time>
      </trkpt>
      <trkpt lat="47.20932" lon="-0.04972">
        <ele>91</ele>
        <time>2011-02-20T08:50:39Z</time>
      </trkpt>
      <trkpt lat="47.20932" lon="-0.04979">
        <ele>91</ele>
        <time>2011-02-20T08:50:43Z</time>
      </trkpt>
      <trkpt lat="47.20932" lon="-0.04987">
        <ele>91</ele>
        <time>2011-02-20T08:50:47Z</time>
      </trkpt>
      <trkpt lat="47.20931" lon="-0.04995">
        <ele>91</ele>
        <time>2011-02-20T08:50:51Z</time>
      </trkpt>
      <trkpt lat="47.2093" lon="-0.05002">
        <ele>91</ele>
        <time>2011-02-20T08:50:55Z</time>
      </trkpt>
      <trkpt lat="47.20929" lon="-0.0501">
        <ele>91</ele>
        <time>2011-02-20T08:50:59Z</time>
      </trkpt>
      <trkpt lat="47.20929" lon="-0.05017">
        <ele>91</ele>
        <time>2011-02-20T08:51:03Z</time>
      </trkpt>
      <trkpt lat="47.20928" lon="-0.05024">
        <ele>91</ele>
        <time>2011-02-20T08:51:07Z</time>
      </trkpt>
      <trkpt lat="47.20927" lon="-0.05031">
        <ele>91</ele>
        <time>2011-02-20T08:51:11Z</time>
      </trkpt>
      <trkpt lat="47.20926" lon="-0.05038">
        <ele>91</ele>
        <time>2011-02-20T08:51:15Z</time>
      </trkpt>
      <trkpt lat="47.20926" lon="-0.05045">
        <ele>91</ele>
        <time>2011-02-20T08:51:19Z</time>
      </trkpt>
      <trkpt lat="47.20925" lon="-0.05051">
        <ele>91</ele>
        <time>2011-02-20T08:51:23Z</time>
      </trkpt>
      <trkpt lat="47.20924" lon="-0.05058">
        <ele>91</ele>
        <time>2011-02-20T08:51:27Z</time>
      </trkpt>
      <trkpt lat="47.20923" lon="-0.05065">
        <ele>91</ele>
        <time>2011-02-20T08:51:31Z</time>
      </trkpt>
      <trkpt lat="47.20923" lon="-0.05072">
        <ele>91</ele>
        <time>2011-02-20T08:51:35Z</time>
      </trkpt>
      <trkpt lat="47.20923" lon="-0.05079">
        <ele>91</ele>
        <time>2011-02-20T08:51:39Z</time>
      </trkpt>
      <trkpt lat="47.20923" lon="-0.05086">
        <ele>91</ele>
        <time>2011-02-20T08:51:43Z</time>
      </trkpt>
      <trkpt lat="47.20922" lon="-0.05094">
        <ele>91</ele>
        <time>2011-02-20T08:51:47Z</time>
      </trkpt>
      <trkpt lat="47.20922" lon="-0.05101">
        <ele>91</ele>
        <time>2011-02-20T08:51:51Z</time>
      </trkpt>
      <trkpt lat="47.20922" lon="-0.05109">
        <ele>91</ele>
        <time>2011-02-20T08:51:55Z</time>
      </trkpt>
      <trkpt lat="47.20922" lon="-0.05116">
        <ele>91</ele>
        <time>2011-02-20T08:51:59Z</time>
      </trkpt>
      <trkpt lat="47.20921" lon="-0.05123">
        <ele>91</ele>
        <time>2011-02-20T08:52:03Z</time>
      </trkpt>
      <trkpt lat="47.2092" lon="-0.0513">
        <ele>91</ele>
        <time>2011-02-20T08:52:07Z</time>
      </trkpt>
      <trkpt lat="47.2092" lon="-0.05138">
        <ele>91</ele>
        <time>2011-02-20T08:52:11Z</time>
      </trkpt>
      <trkpt lat="47.20919" lon="-0.05145">
        <ele>91</ele>
        <time>2011-02-20T08:52:15Z</time>
      </trkpt>
      <trkpt lat="47.20918" lon="-0.05153">
        <ele>91</ele>
        <time>2011-02-20T08:52:19Z</time>
      </trkpt>
      <trkpt lat="47.20918" lon="-0.0516">
        <ele>90</ele>
        <time>2011-02-20T08:52:23Z</time>
      </trkpt>
      <trkpt lat="47.20917" lon="-0.05167">
        <ele>90</ele>
        <time>2011-02-20T08:52:27Z</time>
      </trkpt>
      <trkpt lat="47.20917" lon="-0.05174">
        <ele>90</ele>
        <time>2011-02-20T08:52:31Z</time>
      </trkpt>
      <trkpt lat="47.20916" lon="-0.05182">
        <ele>90</ele>
        <time>2011-02-20T08:52:35Z</time>
      </trkpt>
      <trkpt lat="47.20915" lon="-0.05189">
        <ele>90</ele>
        <time>2011-02-20T08:52:39Z</time>
      </trkpt>
      <trkpt lat="47.20914" lon="-0.05196">
        <ele>90</ele>
        <time>2011-02-20T08:52:43Z</time>
      </trkpt>
      <trkpt lat="47.20913" lon="-0.05203">
        <ele>90</ele>
        <time>2011-02-20T08:52:47Z</time>
      </trkpt>
      <trkpt lat="47.20913" lon="-0.0521">
        <ele>90</ele>
        <time>2011-02-20T08:52:51Z</time>
      </trkpt>
      <trkpt lat="47.20912" lon="-0.05217">
        <ele>90</ele>
        <time>2011-02-20T08:52:55Z</time>
      </trkpt>
      <trkpt lat="47.20912" lon="-0.05225">
        <ele>90</ele>
        <time>2011-02-20T08:52:59Z</time>
      </trkpt>
      <trkpt lat="47.20912" lon="-0.05233">
        <ele>90</ele>
        <time>2011-02-20T08:53:03Z</time>
      </trkpt>
      <trkpt lat="47.20911" lon="-0.0524">
        <ele>90</ele>
        <time>2011-02-20T08:53:07Z</time>
      </trkpt>
      <trkpt lat="47.20911" lon="-0.05247">
        <ele>90</ele>
        <time>2011-02-20T08:53:11Z</time>
      </trkpt>
      <trkpt lat="47.2091" lon="-0.05255">
        <ele>90</ele>
        <time>2011-02-20T08:53:15Z</time>
      </trkpt>
      <trkpt lat="47.2091" lon="-0.05262">
        <ele>89</ele>
        <time>2011-02-20T08:53:19Z</time>
      </trkpt>
      <trkpt lat="47.20909" lon="-0.05269">
        <ele>89</ele>
        <time>2011-02-20T08:53:23Z</time>
      </trkpt>
      <trkpt lat="47.20909" lon="-0.05276">
        <ele>89</ele>
        <time>2011-02-20T08:53:27Z</time>
      </trkpt>
      <trkpt lat="47.20908" lon="-0.05283">
        <ele>89</ele>
        <time>2011-02-20T08:53:31Z</time>
      </trkpt>
      <trkpt lat="47.20905" lon="-0.05288">
        <ele>89</ele>
        <time>2011-02-20T08:53:36Z</time>
      </trkpt>
      <trkpt lat="47.209" lon="-0.05287">
        <ele>89</ele>
        <time>2011-02-20T08:53:41Z</time>
      </trkpt>
      <trkpt lat="47.20896" lon="-0.05284">
        <ele>89</ele>
        <time>2011-02-20T08:53:45Z</time>
      </trkpt>
      <trkpt lat="47.20892" lon="-0.0528">
        <ele>89</ele>
        <time>2011-02-20T08:53:49Z</time>
      </trkpt>
      <trkpt lat="47.20888" lon="-0.05276">
        <ele>89</ele>
        <time>2011-02-20T08:53:53Z</time>
      </trkpt>
      <trkpt lat="47.20884" lon="-0.05272">
        <ele>89</ele>
        <time>2011-02-20T08:53:57Z</time>
      </trkpt>
      <trkpt lat="47.20879" lon="-0.05268">
        <ele>88</ele>
        <time>2011-02-20T08:54:01Z</time>
      </trkpt>
      <trkpt lat="47.20875" lon="-0.05264">
        <ele>88</ele>
        <time>2011-02-20T08:54:05Z</time>
      </trkpt>
      <trkpt lat="47.20872" lon="-0.05259">
        <ele>88</ele>
        <time>2011-02-20T08:54:09Z</time>
      </trkpt>
      <trkpt lat="47.20868" lon="-0.05255">
        <ele>88</ele>
        <time>2011-02-20T08:54:13Z</time>
      </trkpt>
      <trkpt lat="47.20864" lon="-0.05251">
        <ele>88</ele>
        <time>2011-02-20T08:54:17Z</time>
      </trkpt>
      <trkpt lat="47.20861" lon="-0.05246">
        <ele>88</ele>
        <time>2011-02-20T08:54:21Z</time>
      </trkpt>
      <trkpt lat="47.20856" lon="-0.05242">
        <ele>88</ele>
        <time>2011-02-20T08:54:25Z</time>
      </trkpt>
      <trkpt lat="47.20852" lon="-0.05238">
        <ele>88</ele>
        <time>2011-02-20T08:54:29Z</time>
      </trkpt>
      <trkpt lat="47.20848" lon="-0.05234">
        <ele>88</ele>
        <time>2011-02-20T08:54:33Z</time>
      </trkpt>
      <trkpt lat="47.20844" lon="-0.0523">
        <ele>87</ele>
        <time>2011-02-20T08:54:37Z</time>
      </trkpt>
      <trkpt lat="47.20842" lon="-0.05225">
        <ele>87</ele>
        <time>2011-02-20T08:54:41Z</time>
      </trkpt>
      <trkpt lat="47.20838" lon="-0.05218">
        <ele>87</ele>
        <time>2011-02-20T08:54:46Z</time>
      </trkpt>
      <trkpt lat="47.20835" lon="-0.05214">
        <ele>87</ele>
        <time>2011-02-20T08:54:50Z</time>
      </trkpt>
      <trkpt lat="47.20831" lon="-0.05209">
        <ele>87</ele>
        <time>2011-02-20T08:54:54Z</time>
      </trkpt>
      <trkpt lat="47.20827" lon="-0.05204">
        <ele>87</ele>
        <time>2011-02-20T08:54:58Z</time>
      </trkpt>
      <trkpt lat="47.20823" lon="-0.052">
        <ele>87</ele>
        <time>2011-02-20T08:55:02Z</time>
      </trkpt>
      <trkpt lat="47.20819" lon="-0.05195">
        <ele>87</ele>
        <time>2011-02-20T08:55:06Z</time>
      </trkpt>
      <trkpt lat="47.20815" lon="-0.05191">
        <ele>87</ele>
        <time>2011-02-20T08:55:10Z</time>
      </trkpt>
      <trkpt lat="47.20811" lon="-0.05186">
        <ele>87</ele>
        <time>2011-02-20T08:55:14Z</time>
      </trkpt>
      <trkpt lat="47.20807" lon="-0.05182">
        <ele>87</ele>
        <time>2011-02-20T08:55:18Z</time>
      </trkpt>
      <trkpt lat="47.20804" lon="-0.05178">
        <ele>87</ele>
        <time>2011-02-20T08:55:22Z</time>
      </trkpt>
      <trkpt lat="47.208" lon="-0.05173">
        <ele>86</ele>
        <time>2011-02-20T08:55:26Z</time>
      </trkpt>
      <trkpt lat="47.20796" lon="-0.05169">
        <ele>87</ele>
        <time>2011-02-20T08:55:30Z</time>
      </trkpt>
      <trkpt lat="47.20792" lon="-0.05164">
        <ele>87</ele>
        <time>2011-02-20T08:55:34Z</time>
      </trkpt>
      <trkpt lat="47.20788" lon="-0.0516">
        <ele>86</ele>
        <time>2011-02-20T08:55:38Z</time>
      </trkpt>
      <trkpt lat="47.20783" lon="-0.05156">
        <ele>86</ele>
        <time>2011-02-20T08:55:42Z</time>
      </trkpt>
      <trkpt lat="47.20779" lon="-0.05153">
        <ele>86</ele>
        <time>2011-02-20T08:55:46Z</time>
      </trkpt>
      <trkpt lat="47.20774" lon="-0.05152">
        <ele>86</ele>
        <time>2011-02-20T08:55:50Z</time>
      </trkpt>
      <trkpt lat="47.2077" lon="-0.05151">
        <ele>86</ele>
        <time>2011-02-20T08:55:54Z</time>
      </trkpt>
      <trkpt lat="47.20765" lon="-0.05152">
        <ele>86</ele>
        <time>2011-02-20T08:55:58Z</time>
      </trkpt>
      <trkpt lat="47.20759" lon="-0.05151">
        <ele>86</ele>
        <time>2011-02-20T08:56:03Z</time>
      </trkpt>
      <trkpt lat="47.20754" lon="-0.0515">
        <ele>86</ele>
        <time>2011-02-20T08:56:08Z</time>
      </trkpt>
      <trkpt lat="47.20749" lon="-0.05148">
        <ele>86</ele>
        <time>2011-02-20T08:56:13Z</time>
      </trkpt>
      <trkpt lat="47.20744" lon="-0.05146">
        <ele>86</ele>
        <time>2011-02-20T08:56:18Z</time>
      </trkpt>
      <trkpt lat="47.20739" lon="-0.05144">
        <ele>86</ele>
        <time>2011-02-20T08:56:23Z</time>
      </trkpt>
      <trkpt lat="47.20734" lon="-0.05144">
        <ele>86</ele>
        <time>2011-02-20T08:56:34Z</time>
      </trkpt>
      <trkpt lat="47.2073" lon="-0.05146">
        <ele>86</ele>
        <time>2011-02-20T08:56:38Z</time>
      </trkpt>
      <trkpt lat="47.20725" lon="-0.05146">
        <ele>86</ele>
        <time>2011-02-20T08:56:41Z</time>
      </trkpt>
      <trkpt lat="47.20719" lon="-0.05142">
        <ele>86</ele>
        <time>2011-02-20T08:56:45Z</time>
      </trkpt>
      <trkpt lat="47.20715" lon="-0.05137">
        <ele>86</ele>
        <time>2011-02-20T08:56:49Z</time>
      </trkpt>
      <trkpt lat="47.20711" lon="-0.05132">
        <ele>86</ele>
        <time>2011-02-20T08:56:52Z</time>
      </trkpt>
      <trkpt lat="47.20708" lon="-0.05125">
        <ele>86</ele>
        <time>2011-02-20T08:56:56Z</time>
      </trkpt>
      <trkpt lat="47.20707" lon="-0.05116">
        <ele>86</ele>
        <time>2011-02-20T08:57:00Z</time>
      </trkpt>
      <trkpt lat="47.20706" lon="-0.05108">
        <ele>86</ele>
        <time>2011-02-20T08:57:04Z</time>
      </trkpt>
      <trkpt lat="47.20705" lon="-0.051">
        <ele>86</ele>
        <time>2011-02-20T08:57:08Z</time>
      </trkpt>
      <trkpt lat="47.20704" lon="-0.05092">
        <ele>86</ele>
        <time>2011-02-20T08:57:12Z</time>
      </trkpt>
      <trkpt lat="47.20704" lon="-0.05084">
        <ele>86</ele>
        <time>2011-02-20T08:57:16Z</time>
      </trkpt>
      <trkpt lat="47.20704" lon="-0.05075">
        <ele>86</ele>
        <time>2011-02-20T08:57:20Z</time>
      </trkpt>
      <trkpt lat="47.20704" lon="-0.05067">
        <ele>86</ele>
        <time>2011-02-20T08:57:24Z</time>
      </trkpt>
      <trkpt lat="47.20703" lon="-0.05059">
        <ele>86</ele>
        <time>2011-02-20T08:57:28Z</time>
      </trkpt>
      <trkpt lat="47.20703" lon="-0.05051">
        <ele>86</ele>
        <time>2011-02-20T08:57:32Z</time>
      </trkpt>
      <trkpt lat="47.20703" lon="-0.05043">
        <ele>86</ele>
        <time>2011-02-20T08:57:36Z</time>
      </trkpt>
      <trkpt lat="47.20704" lon="-0.05036">
        <ele>86</ele>
        <time>2011-02-20T08:57:40Z</time>
      </trkpt>
      <trkpt lat="47.20704" lon="-0.05029">
        <ele>86</ele>
        <time>2011-02-20T08:57:44Z</time>
      </trkpt>
      <trkpt lat="47.20703" lon="-0.05021">
        <ele>86</ele>
        <time>2011-02-20T08:57:48Z</time>
      </trkpt>
      <trkpt lat="47.20702" lon="-0.05013">
        <ele>86</ele>
        <time>2011-02-20T08:57:52Z</time>
      </trkpt>
      <trkpt lat="47.20701" lon="-0.05006">
        <ele>86</ele>
        <time>2011-02-20T08:57:55Z</time>
      </trkpt>
      <trkpt lat="47.207" lon="-0.05">
        <ele>86</ele>
        <time>2011-02-20T08:57:58Z</time>
      </trkpt>
      <trkpt lat="47.20698" lon="-0.04992">
        <ele>86</ele>
        <time>2011-02-20T08:58:02Z</time>
      </trkpt>
      <trkpt lat="47.20696" lon="-0.04984">
        <ele>86</ele>
        <time>2011-02-20T08:58:06Z</time>
      </trkpt>
      <trkpt lat="47.20694" lon="-0.04978">
        <ele>86</ele>
        <time>2011-02-20T08:58:10Z</time>
      </trkpt>
      <trkpt lat="47.20691" lon="-0.04971">
        <ele>86</ele>
        <time>2011-02-20T08:58:14Z</time>
      </trkpt>
      <trkpt lat="47.20695" lon="-0.04973">
        <ele>86</ele>
        <time>2011-02-20T08:59:24Z</time>
      </trkpt>
      <trkpt lat="47.2069" lon="-0.0497">
        <ele>86</ele>
        <time>2011-02-20T08:59:32Z</time>
      </trkpt>
      <trkpt lat="47.20686" lon="-0.04965">
        <ele>86</ele>
        <time>2011-02-20T08:59:36Z</time>
      </trkpt>
      <trkpt lat="47.20682" lon="-0.04959">
        <ele>85</ele>
        <time>2011-02-20T08:59:41Z</time>
      </trkpt>
      <trkpt lat="47.2068" lon="-0.04954">
        <ele>85</ele>
        <time>2011-02-20T08:59:45Z</time>
      </trkpt>
      <trkpt lat="47.20676" lon="-0.04949">
        <ele>85</ele>
        <time>2011-02-20T08:59:49Z</time>
      </trkpt>
      <trkpt lat="47.20673" lon="-0.04944">
        <ele>85</ele>
        <time>2011-02-20T08:59:53Z</time>
      </trkpt>
      <trkpt lat="47.20669" lon="-0.04937">
        <ele>85</ele>
        <time>2011-02-20T08:59:57Z</time>
      </trkpt>
      <trkpt lat="47.20665" lon="-0.04932">
        <ele>84</ele>
        <time>2011-02-20T09:00:01Z</time>
      </trkpt>
      <trkpt lat="47.20661" lon="-0.04926">
        <ele>84</ele>
        <time>2011-02-20T09:00:05Z</time>
      </trkpt>
      <trkpt lat="47.20658" lon="-0.0492">
        <ele>84</ele>
        <time>2011-02-20T09:00:09Z</time>
      </trkpt>
      <trkpt lat="47.20654" lon="-0.04914">
        <ele>84</ele>
        <time>2011-02-20T09:00:13Z</time>
      </trkpt>
      <trkpt lat="47.2065" lon="-0.04908">
        <ele>84</ele>
        <time>2011-02-20T09:00:17Z</time>
      </trkpt>
      <trkpt lat="47.20646" lon="-0.04901">
        <ele>84</ele>
        <time>2011-02-20T09:00:21Z</time>
      </trkpt>
      <trkpt lat="47.20642" lon="-0.04894">
        <ele>84</ele>
        <time>2011-02-20T09:00:25Z</time>
      </trkpt>
      <trkpt lat="47.20639" lon="-0.04888">
        <ele>84</ele>
        <time>2011-02-20T09:00:29Z</time>
      </trkpt>
      <trkpt lat="47.20635" lon="-0.04882">
        <ele>84</ele>
        <time>2011-02-20T09:00:33Z</time>
      </trkpt>
      <trkpt lat="47.20632" lon="-0.04877">
        <ele>84</ele>
        <time>2011-02-20T09:00:37Z</time>
      </trkpt>
      <trkpt lat="47.20628" lon="-0.04872">
        <ele>84</ele>
        <time>2011-02-20T09:00:41Z</time>
      </trkpt>
      <trkpt lat="47.20625" lon="-0.04867">
        <ele>84</ele>
        <time>2011-02-20T09:00:45Z</time>
      </trkpt>
      <trkpt lat="47.20621" lon="-0.04861">
        <ele>84</ele>
        <time>2011-02-20T09:00:49Z</time>
      </trkpt>
      <trkpt lat="47.20617" lon="-0.04856">
        <ele>84</ele>
        <time>2011-02-20T09:00:53Z</time>
      </trkpt>
      <trkpt lat="47.20613" lon="-0.0485">
        <ele>84</ele>
        <time>2011-02-20T09:00:57Z</time>
      </trkpt>
      <trkpt lat="47.2061" lon="-0.04845">
        <ele>84</ele>
        <time>2011-02-20T09:01:01Z</time>
      </trkpt>
      <trkpt lat="47.20606" lon="-0.04839">
        <ele>84</ele>
        <time>2011-02-20T09:01:05Z</time>
      </trkpt>
      <trkpt lat="47.20602" lon="-0.04833">
        <ele>84</ele>
        <time>2011-02-20T09:01:09Z</time>
      </trkpt>
      <trkpt lat="47.20598" lon="-0.04828">
        <ele>84</ele>
        <time>2011-02-20T09:01:13Z</time>
      </trkpt>
      <trkpt lat="47.20594" lon="-0.04823">
        <ele>84</ele>
        <time>2011-02-20T09:01:17Z</time>
      </trkpt>
      <trkpt lat="47.2059" lon="-0.04818">
        <ele>84</ele>
        <time>2011-02-20T09:01:21Z</time>
      </trkpt>
      <trkpt lat="47.20586" lon="-0.04812">
        <ele>84</ele>
        <time>2011-02-20T09:01:25Z</time>
      </trkpt>
      <trkpt lat="47.20582" lon="-0.04808">
        <ele>84</ele>
        <time>2011-02-20T09:01:29Z</time>
      </trkpt>
      <trkpt lat="47.20578" lon="-0.04802">
        <ele>84</ele>
        <time>2011-02-20T09:01:33Z</time>
      </trkpt>
      <trkpt lat="47.20575" lon="-0.04797">
        <ele>84</ele>
        <time>2011-02-20T09:01:37Z</time>
      </trkpt>
      <trkpt lat="47.20571" lon="-0.04791">
        <ele>84</ele>
        <time>2011-02-20T09:01:41Z</time>
      </trkpt>
      <trkpt lat="47.20568" lon="-0.04785">
        <ele>84</ele>
        <time>2011-02-20T09:01:45Z</time>
      </trkpt>
      <trkpt lat="47.20565" lon="-0.04779">
        <ele>84</ele>
        <time>2011-02-20T09:01:49Z</time>
      </trkpt>
      <trkpt lat="47.20562" lon="-0.04772">
        <ele>84</ele>
        <time>2011-02-20T09:01:53Z</time>
      </trkpt>
      <trkpt lat="47.20559" lon="-0.04766">
        <ele>84</ele>
        <time>2011-02-20T09:01:57Z</time>
      </trkpt>
      <trkpt lat="47.20557" lon="-0.0476">
        <ele>84</ele>
        <time>2011-02-20T09:02:01Z</time>
      </trkpt>
      <trkpt lat="47.20555" lon="-0.04753">
        <ele>84</ele>
        <time>2011-02-20T09:02:05Z</time>
      </trkpt>
      <trkpt lat="47.20553" lon="-0.04747">
        <ele>84</ele>
        <time>2011-02-20T09:02:09Z</time>
      </trkpt>
      <trkpt lat="47.20551" lon="-0.0474">
        <ele>84</ele>
        <time>2011-02-20T09:02:13Z</time>
      </trkpt>
      <trkpt lat="47.2055" lon="-0.04733">
        <ele>84</ele>
        <time>2011-02-20T09:02:17Z</time>
      </trkpt>
      <trkpt lat="47.20549" lon="-0.04726">
        <ele>84</ele>
        <time>2011-02-20T09:02:21Z</time>
      </trkpt>
      <trkpt lat="47.20549" lon="-0.04719">
        <ele>84</ele>
        <time>2011-02-20T09:02:25Z</time>
      </trkpt>
      <trkpt lat="47.20548" lon="-0.04712">
        <ele>85</ele>
        <time>2011-02-20T09:02:29Z</time>
      </trkpt>
      <trkpt lat="47.20547" lon="-0.04704">
        <ele>85</ele>
        <time>2011-02-20T09:02:33Z</time>
      </trkpt>
      <trkpt lat="47.20546" lon="-0.04696">
        <ele>85</ele>
        <time>2011-02-20T09:02:37Z</time>
      </trkpt>
      <trkpt lat="47.20546" lon="-0.04688">
        <ele>85</ele>
        <time>2011-02-20T09:02:41Z</time>
      </trkpt>
      <trkpt lat="47.20545" lon="-0.0468">
        <ele>85</ele>
        <time>2011-02-20T09:02:45Z</time>
      </trkpt>
      <trkpt lat="47.20545" lon="-0.04672">
        <ele>85</ele>
        <time>2011-02-20T09:02:49Z</time>
      </trkpt>
      <trkpt lat="47.20544" lon="-0.04664">
        <ele>85</ele>
        <time>2011-02-20T09:02:53Z</time>
      </trkpt>
      <trkpt lat="47.20544" lon="-0.04656">
        <ele>85</ele>
        <time>2011-02-20T09:02:57Z</time>
      </trkpt>
      <trkpt lat="47.20543" lon="-0.04649">
        <ele>85</ele>
        <time>2011-02-20T09:03:00Z</time>
      </trkpt>
      <trkpt lat="47.20543" lon="-0.04641">
        <ele>85</ele>
        <time>2011-02-20T09:03:04Z</time>
      </trkpt>
      <trkpt lat="47.20542" lon="-0.04633">
        <ele>85</ele>
        <time>2011-02-20T09:03:09Z</time>
      </trkpt>
      <trkpt lat="47.20542" lon="-0.04626">
        <ele>85</ele>
        <time>2011-02-20T09:03:13Z</time>
      </trkpt>
      <trkpt lat="47.20541" lon="-0.04619">
        <ele>86</ele>
        <time>2011-02-20T09:03:17Z</time>
      </trkpt>
      <trkpt lat="47.20541" lon="-0.04611">
        <ele>86</ele>
        <time>2011-02-20T09:03:21Z</time>
      </trkpt>
      <trkpt lat="47.20541" lon="-0.04603">
        <ele>86</ele>
        <time>2011-02-20T09:03:25Z</time>
      </trkpt>
      <trkpt lat="47.20541" lon="-0.04596">
        <ele>86</ele>
        <time>2011-02-20T09:03:29Z</time>
      </trkpt>
      <trkpt lat="47.20541" lon="-0.04588">
        <ele>86</ele>
        <time>2011-02-20T09:03:33Z</time>
      </trkpt>
      <trkpt lat="47.20541" lon="-0.0458">
        <ele>86</ele>
        <time>2011-02-20T09:03:37Z</time>
      </trkpt>
      <trkpt lat="47.20542" lon="-0.04573">
        <ele>86</ele>
        <time>2011-02-20T09:03:41Z</time>
      </trkpt>
      <trkpt lat="47.20542" lon="-0.04565">
        <ele>86</ele>
        <time>2011-02-20T09:03:45Z</time>
      </trkpt>
      <trkpt lat="47.20542" lon="-0.04558">
        <ele>86</ele>
        <time>2011-02-20T09:03:49Z</time>
      </trkpt>
      <trkpt lat="47.20543" lon="-0.0455">
        <ele>86</ele>
        <time>2011-02-20T09:03:53Z</time>
      </trkpt>
      <trkpt lat="47.20543" lon="-0.04542">
        <ele>86</ele>
        <time>2011-02-20T09:03:57Z</time>
      </trkpt>
      <trkpt lat="47.20543" lon="-0.04534">
        <ele>86</ele>
        <time>2011-02-20T09:04:01Z</time>
      </trkpt>
      <trkpt lat="47.20543" lon="-0.04526">
        <ele>86</ele>
        <time>2011-02-20T09:04:05Z</time>
      </trkpt>
      <trkpt lat="47.20544" lon="-0.04518">
        <ele>86</ele>
        <time>2011-02-20T09:04:09Z</time>
      </trkpt>
      <trkpt lat="47.20544" lon="-0.04511">
        <ele>86</ele>
        <time>2011-02-20T09:04:13Z</time>
      </trkpt>
      <trkpt lat="47.20545" lon="-0.04504">
        <ele>86</ele>
        <time>2011-02-20T09:04:17Z</time>
      </trkpt>
      <trkpt lat="47.20545" lon="-0.04496">
        <ele>86</ele>
        <time>2011-02-20T09:04:21Z</time>
      </trkpt>
      <trkpt lat="47.20545" lon="-0.04488">
        <ele>86</ele>
        <time>2011-02-20T09:04:25Z</time>
      </trkpt>
      <trkpt lat="47.20546" lon="-0.04481">
        <ele>86</ele>
        <time>2011-02-20T09:04:29Z</time>
      </trkpt>
      <trkpt lat="47.20546" lon="-0.04473">
        <ele>86</ele>
        <time>2011-02-20T09:04:33Z</time>
      </trkpt>
      <trkpt lat="47.20547" lon="-0.04466">
        <ele>86</ele>
        <time>2011-02-20T09:04:37Z</time>
      </trkpt>
      <trkpt lat="47.20547" lon="-0.04459">
        <ele>86</ele>
        <time>2011-02-20T09:04:41Z</time>
      </trkpt>
      <trkpt lat="47.20548" lon="-0.04452">
        <ele>86</ele>
        <time>2011-02-20T09:04:45Z</time>
      </trkpt>
      <trkpt lat="47.20548" lon="-0.04444">
        <ele>86</ele>
        <time>2011-02-20T09:04:49Z</time>
      </trkpt>
      <trkpt lat="47.20549" lon="-0.04437">
        <ele>86</ele>
        <time>2011-02-20T09:04:53Z</time>
      </trkpt>
      <trkpt lat="47.20549" lon="-0.04429">
        <ele>86</ele>
        <time>2011-02-20T09:04:57Z</time>
      </trkpt>
      <trkpt lat="47.2055" lon="-0.04421">
        <ele>86</ele>
        <time>2011-02-20T09:05:01Z</time>
      </trkpt>
      <trkpt lat="47.2055" lon="-0.04414">
        <ele>86</ele>
        <time>2011-02-20T09:05:05Z</time>
      </trkpt>
      <trkpt lat="47.2055" lon="-0.04407">
        <ele>86</ele>
        <time>2011-02-20T09:05:09Z</time>
      </trkpt>
      <trkpt lat="47.2055" lon="-0.044">
        <ele>86</ele>
        <time>2011-02-20T09:05:13Z</time>
      </trkpt>
      <trkpt lat="47.20551" lon="-0.04393">
        <ele>86</ele>
        <time>2011-02-20T09:05:17Z</time>
      </trkpt>
      <trkpt lat="47.20551" lon="-0.04386">
        <ele>86</ele>
        <time>2011-02-20T09:05:21Z</time>
      </trkpt>
      <trkpt lat="47.20552" lon="-0.04379">
        <ele>85</ele>
        <time>2011-02-20T09:05:25Z</time>
      </trkpt>
      <trkpt lat="47.20552" lon="-0.04372">
        <ele>85</ele>
        <time>2011-02-20T09:05:29Z</time>
      </trkpt>
      <trkpt lat="47.20553" lon="-0.04365">
        <ele>85</ele>
        <time>2011-02-20T09:05:33Z</time>
      </trkpt>
      <trkpt lat="47.20553" lon="-0.04358">
        <ele>85</ele>
        <time>2011-02-20T09:05:37Z</time>
      </trkpt>
      <trkpt lat="47.20553" lon="-0.04352">
        <ele>85</ele>
        <time>2011-02-20T09:05:41Z</time>
      </trkpt>
      <trkpt lat="47.20554" lon="-0.04345">
        <ele>85</ele>
        <time>2011-02-20T09:05:45Z</time>
      </trkpt>
      <trkpt lat="47.20554" lon="-0.04338">
        <ele>85</ele>
        <time>2011-02-20T09:05:49Z</time>
      </trkpt>
      <trkpt lat="47.20554" lon="-0.04331">
        <ele>85</ele>
        <time>2011-02-20T09:05:53Z</time>
      </trkpt>
      <trkpt lat="47.20555" lon="-0.04323">
        <ele>85</ele>
        <time>2011-02-20T09:05:57Z</time>
      </trkpt>
      <trkpt lat="47.20555" lon="-0.04316">
        <ele>85</ele>
        <time>2011-02-20T09:06:01Z</time>
      </trkpt>
      <trkpt lat="47.20555" lon="-0.04309">
        <ele>85</ele>
        <time>2011-02-20T09:06:05Z</time>
      </trkpt>
      <trkpt lat="47.20555" lon="-0.043">
        <ele>85</ele>
        <time>2011-02-20T09:06:09Z</time>
      </trkpt>
      <trkpt lat="47.20555" lon="-0.04292">
        <ele>85</ele>
        <time>2011-02-20T09:06:13Z</time>
      </trkpt>
      <trkpt lat="47.20555" lon="-0.04284">
        <ele>85</ele>
        <time>2011-02-20T09:06:17Z</time>
      </trkpt>
      <trkpt lat="47.20555" lon="-0.04275">
        <ele>85</ele>
        <time>2011-02-20T09:06:21Z</time>
      </trkpt>
      <trkpt lat="47.20555" lon="-0.04268">
        <ele>85</ele>
        <time>2011-02-20T09:06:25Z</time>
      </trkpt>
      <trkpt lat="47.20555" lon="-0.0426">
        <ele>85</ele>
        <time>2011-02-20T09:06:29Z</time>
      </trkpt>
      <trkpt lat="47.20555" lon="-0.04252">
        <ele>85</ele>
        <time>2011-02-20T09:06:33Z</time>
      </trkpt>
      <trkpt lat="47.20555" lon="-0.04243">
        <ele>85</ele>
        <time>2011-02-20T09:06:37Z</time>
      </trkpt>
      <trkpt lat="47.20555" lon="-0.04235">
        <ele>85</ele>
        <time>2011-02-20T09:06:41Z</time>
      </trkpt>
      <trkpt lat="47.20555" lon="-0.04227">
        <ele>85</ele>
        <time>2011-02-20T09:06:45Z</time>
      </trkpt>
      <trkpt lat="47.20555" lon="-0.04219">
        <ele>85</ele>
        <time>2011-02-20T09:06:49Z</time>
      </trkpt>
      <trkpt lat="47.20556" lon="-0.04211">
        <ele>85</ele>
        <time>2011-02-20T09:06:53Z</time>
      </trkpt>
      <trkpt lat="47.20556" lon="-0.04203">
        <ele>85</ele>
        <time>2011-02-20T09:06:57Z</time>
      </trkpt>
      <trkpt lat="47.20556" lon="-0.04196">
        <ele>85</ele>
        <time>2011-02-20T09:07:01Z</time>
      </trkpt>
      <trkpt lat="47.20556" lon="-0.04189">
        <ele>85</ele>
        <time>2011-02-20T09:07:05Z</time>
      </trkpt>
      <trkpt lat="47.20556" lon="-0.04182">
        <ele>85</ele>
        <time>2011-02-20T09:07:09Z</time>
      </trkpt>
      <trkpt lat="47.20556" lon="-0.04174">
        <ele>85</ele>
        <time>2011-02-20T09:07:13Z</time>
      </trkpt>
      <trkpt lat="47.20556" lon="-0.04167">
        <ele>85</ele>
        <time>2011-02-20T09:07:17Z</time>
      </trkpt>
      <trkpt lat="47.20556" lon="-0.0416">
        <ele>85</ele>
        <time>2011-02-20T09:07:21Z</time>
      </trkpt>
      <trkpt lat="47.20556" lon="-0.04152">
        <ele>85</ele>
        <time>2011-02-20T09:07:26Z</time>
      </trkpt>
      <trkpt lat="47.20557" lon="-0.04144">
        <ele>85</ele>
        <time>2011-02-20T09:07:31Z</time>
      </trkpt>
      <trkpt lat="47.20557" lon="-0.04136">
        <ele>86</ele>
        <time>2011-02-20T09:07:36Z</time>
      </trkpt>
      <trkpt lat="47.20557" lon="-0.04129">
        <ele>86</ele>
        <time>2011-02-20T09:07:40Z</time>
      </trkpt>
      <trkpt lat="47.20558" lon="-0.04122">
        <ele>86</ele>
        <time>2011-02-20T09:07:44Z</time>
      </trkpt>
      <trkpt lat="47.20558" lon="-0.04115">
        <ele>86</ele>
        <time>2011-02-20T09:07:48Z</time>
      </trkpt>
      <trkpt lat="47.20558" lon="-0.04108">
        <ele>86</ele>
        <time>2011-02-20T09:07:52Z</time>
      </trkpt>
      <trkpt lat="47.20559" lon="-0.04101">
        <ele>86</ele>
        <time>2011-02-20T09:07:56Z</time>
      </trkpt>
      <trkpt lat="47.20559" lon="-0.04093">
        <ele>86</ele>
        <time>2011-02-20T09:08:00Z</time>
      </trkpt>
      <trkpt lat="47.20559" lon="-0.04086">
        <ele>86</ele>
        <time>2011-02-20T09:08:04Z</time>
      </trkpt>
      <trkpt lat="47.20559" lon="-0.04078">
        <ele>86</ele>
        <time>2011-02-20T09:08:08Z</time>
      </trkpt>
      <trkpt lat="47.2056" lon="-0.0407">
        <ele>86</ele>
        <time>2011-02-20T09:08:12Z</time>
      </trkpt>
      <trkpt lat="47.2056" lon="-0.04063">
        <ele>86</ele>
        <time>2011-02-20T09:08:16Z</time>
      </trkpt>
      <trkpt lat="47.20561" lon="-0.04055">
        <ele>86</ele>
        <time>2011-02-20T09:08:20Z</time>
      </trkpt>
      <trkpt lat="47.20561" lon="-0.04047">
        <ele>86</ele>
        <time>2011-02-20T09:08:24Z</time>
      </trkpt>
      <trkpt lat="47.20562" lon="-0.04039">
        <ele>86</ele>
        <time>2011-02-20T09:08:28Z</time>
      </trkpt>
      <trkpt lat="47.20562" lon="-0.04032">
        <ele>86</ele>
        <time>2011-02-20T09:08:32Z</time>
      </trkpt>
      <trkpt lat="47.20563" lon="-0.04024">
        <ele>86</ele>
        <time>2011-02-20T09:08:36Z</time>
      </trkpt>
      <trkpt lat="47.20564" lon="-0.04017">
        <ele>86</ele>
        <time>2011-02-20T09:08:40Z</time>
      </trkpt>
      <trkpt lat="47.20565" lon="-0.0401">
        <ele>86</ele>
        <time>2011-02-20T09:08:44Z</time>
      </trkpt>
      <trkpt lat="47.20566" lon="-0.04002">
        <ele>86</ele>
        <time>2011-02-20T09:08:49Z</time>
      </trkpt>
      <trkpt lat="47.20566" lon="-0.03994">
        <ele>86</ele>
        <time>2011-02-20T09:08:54Z</time>
      </trkpt>
      <trkpt lat="47.20567" lon="-0.03987">
        <ele>86</ele>
        <time>2011-02-20T09:08:58Z</time>
      </trkpt>
      <trkpt lat="47.20567" lon="-0.03979">
        <ele>86</ele>
        <time>2011-02-20T09:09:02Z</time>
      </trkpt>
      <trkpt lat="47.20568" lon="-0.03972">
        <ele>86</ele>
        <time>2011-02-20T09:09:06Z</time>
      </trkpt>
      <trkpt lat="47.20569" lon="-0.03964">
        <ele>86</ele>
        <time>2011-02-20T09:09:10Z</time>
      </trkpt>
      <trkpt lat="47.20571" lon="-0.03956">
        <ele>86</ele>
        <time>2011-02-20T09:09:14Z</time>
      </trkpt>
      <trkpt lat="47.20572" lon="-0.03949">
        <ele>86</ele>
        <time>2011-02-20T09:09:18Z</time>
      </trkpt>
      <trkpt lat="47.20573" lon="-0.03942">
        <ele>86</ele>
        <time>2011-02-20T09:09:22Z</time>
      </trkpt>
      <trkpt lat="47.20574" lon="-0.03935">
        <ele>87</ele>
        <time>2011-02-20T09:09:26Z</time>
      </trkpt>
      <trkpt lat="47.20575" lon="-0.03928">
        <ele>87</ele>
        <time>2011-02-20T09:09:30Z</time>
      </trkpt>
      <trkpt lat="47.20576" lon="-0.03921">
        <ele>87</ele>
        <time>2011-02-20T09:09:34Z</time>
      </trkpt>
      <trkpt lat="47.20576" lon="-0.03914">
        <ele>87</ele>
        <time>2011-02-20T09:09:38Z</time>
      </trkpt>
      <trkpt lat="47.20576" lon="-0.03907">
        <ele>87</ele>
        <time>2011-02-20T09:09:42Z</time>
      </trkpt>
      <trkpt lat="47.20576" lon="-0.03901">
        <ele>87</ele>
        <time>2011-02-20T09:09:46Z</time>
      </trkpt>
      <trkpt lat="47.20575" lon="-0.03894">
        <ele>87</ele>
        <time>2011-02-20T09:09:51Z</time>
      </trkpt>
      <trkpt lat="47.20578" lon="-0.03888">
        <ele>86</ele>
        <time>2011-02-20T09:09:57Z</time>
      </trkpt>
      <trkpt lat="47.20582" lon="-0.03884">
        <ele>86</ele>
        <time>2011-02-20T09:10:02Z</time>
      </trkpt>
      <trkpt lat="47.20586" lon="-0.0388">
        <ele>86</ele>
        <time>2011-02-20T09:10:07Z</time>
      </trkpt>
      <trkpt lat="47.2059" lon="-0.03875">
        <ele>86</ele>
        <time>2011-02-20T09:10:12Z</time>
      </trkpt>
      <trkpt lat="47.20594" lon="-0.0387">
        <ele>86</ele>
        <time>2011-02-20T09:10:17Z</time>
      </trkpt>
      <trkpt lat="47.20598" lon="-0.03864">
        <ele>86</ele>
        <time>2011-02-20T09:10:22Z</time>
      </trkpt>
      <trkpt lat="47.20601" lon="-0.03857">
        <ele>86</ele>
        <time>2011-02-20T09:10:27Z</time>
      </trkpt>
      <trkpt lat="47.20604" lon="-0.03852">
        <ele>86</ele>
        <time>2011-02-20T09:10:31Z</time>
      </trkpt>
      <trkpt lat="47.20607" lon="-0.03846">
        <ele>86</ele>
        <time>2011-02-20T09:10:35Z</time>
      </trkpt>
      <trkpt lat="47.2061" lon="-0.03839">
        <ele>86</ele>
        <time>2011-02-20T09:10:39Z</time>
      </trkpt>
      <trkpt lat="47.20613" lon="-0.03834">
        <ele>86</ele>
        <time>2011-02-20T09:10:43Z</time>
      </trkpt>
      <trkpt lat="47.20615" lon="-0.03828">
        <ele>86</ele>
        <time>2011-02-20T09:10:47Z</time>
      </trkpt>
      <trkpt lat="47.20618" lon="-0.03822">
        <ele>86</ele>
        <time>2011-02-20T09:10:51Z</time>
      </trkpt>
      <trkpt lat="47.2062" lon="-0.03816">
        <ele>86</ele>
        <time>2011-02-20T09:10:55Z</time>
      </trkpt>
      <trkpt lat="47.20622" lon="-0.0381">
        <ele>86</ele>
        <time>2011-02-20T09:10:59Z</time>
      </trkpt>
      <trkpt lat="47.20624" lon="-0.03804">
        <ele>86</ele>
        <time>2011-02-20T09:11:03Z</time>
      </trkpt>
      <trkpt lat="47.20626" lon="-0.03797">
        <ele>86</ele>
        <time>2011-02-20T09:11:07Z</time>
      </trkpt>
      <trkpt lat="47.20625" lon="-0.0379">
        <ele>86</ele>
        <time>2011-02-20T09:11:11Z</time>
      </trkpt>
      <trkpt lat="47.20623" lon="-0.03784">
        <ele>86</ele>
        <time>2011-02-20T09:11:15Z</time>
      </trkpt>
      <trkpt lat="47.20621" lon="-0.03777">
        <ele>86</ele>
        <time>2011-02-20T09:11:19Z</time>
      </trkpt>
      <trkpt lat="47.20619" lon="-0.03771">
        <ele>86</ele>
        <time>2011-02-20T09:11:23Z</time>
      </trkpt>
      <trkpt lat="47.20617" lon="-0.03765">
        <ele>86</ele>
        <time>2011-02-20T09:11:27Z</time>
      </trkpt>
      <trkpt lat="47.20615" lon="-0.03759">
        <ele>86</ele>
        <time>2011-02-20T09:11:31Z</time>
      </trkpt>
      <trkpt lat="47.20613" lon="-0.03752">
        <ele>86</ele>
        <time>2011-02-20T09:11:35Z</time>
      </trkpt>
      <trkpt lat="47.20611" lon="-0.03746">
        <ele>86</ele>
        <time>2011-02-20T09:11:39Z</time>
      </trkpt>
      <trkpt lat="47.2061" lon="-0.03739">
        <ele>86</ele>
        <time>2011-02-20T09:11:43Z</time>
      </trkpt>
      <trkpt lat="47.20609" lon="-0.03731">
        <ele>86</ele>
        <time>2011-02-20T09:11:47Z</time>
      </trkpt>
      <trkpt lat="47.20607" lon="-0.03724">
        <ele>86</ele>
        <time>2011-02-20T09:11:51Z</time>
      </trkpt>
      <trkpt lat="47.20605" lon="-0.03717">
        <ele>86</ele>
        <time>2011-02-20T09:11:55Z</time>
      </trkpt>
      <trkpt lat="47.20604" lon="-0.0371">
        <ele>86</ele>
        <time>2011-02-20T09:11:59Z</time>
      </trkpt>
      <trkpt lat="47.20601" lon="-0.03702">
        <ele>86</ele>
        <time>2011-02-20T09:12:03Z</time>
      </trkpt>
      <trkpt lat="47.20599" lon="-0.03695">
        <ele>86</ele>
        <time>2011-02-20T09:12:07Z</time>
      </trkpt>
      <trkpt lat="47.20598" lon="-0.03688">
        <ele>86</ele>
        <time>2011-02-20T09:12:11Z</time>
      </trkpt>
      <trkpt lat="47.20596" lon="-0.0368">
        <ele>86</ele>
        <time>2011-02-20T09:12:15Z</time>
      </trkpt>
      <trkpt lat="47.20594" lon="-0.03673">
        <ele>86</ele>
        <time>2011-02-20T09:12:19Z</time>
      </trkpt>
      <trkpt lat="47.20592" lon="-0.03666">
        <ele>86</ele>
        <time>2011-02-20T09:12:23Z</time>
      </trkpt>
      <trkpt lat="47.2059" lon="-0.03659">
        <ele>86</ele>
        <time>2011-02-20T09:12:27Z</time>
      </trkpt>
      <trkpt lat="47.20588" lon="-0.03651">
        <ele>86</ele>
        <time>2011-02-20T09:12:31Z</time>
      </trkpt>
      <trkpt lat="47.20586" lon="-0.03644">
        <ele>86</ele>
        <time>2011-02-20T09:12:35Z</time>
      </trkpt>
      <trkpt lat="47.20584" lon="-0.03637">
        <ele>86</ele>
        <time>2011-02-20T09:12:39Z</time>
      </trkpt>
      <trkpt lat="47.20582" lon="-0.0363">
        <ele>87</ele>
        <time>2011-02-20T09:12:43Z</time>
      </trkpt>
      <trkpt lat="47.2058" lon="-0.03622">
        <ele>87</ele>
        <time>2011-02-20T09:12:47Z</time>
      </trkpt>
      <trkpt lat="47.20578" lon="-0.03615">
        <ele>87</ele>
        <time>2011-02-20T09:12:51Z</time>
      </trkpt>
      <trkpt lat="47.20577" lon="-0.03608">
        <ele>87</ele>
        <time>2011-02-20T09:12:55Z</time>
      </trkpt>
      <trkpt lat="47.20575" lon="-0.03601">
        <ele>87</ele>
        <time>2011-02-20T09:12:59Z</time>
      </trkpt>
      <trkpt lat="47.20573" lon="-0.03594">
        <ele>87</ele>
        <time>2011-02-20T09:13:03Z</time>
      </trkpt>
      <trkpt lat="47.20571" lon="-0.03587">
        <ele>87</ele>
        <time>2011-02-20T09:13:07Z</time>
      </trkpt>
      <trkpt lat="47.20569" lon="-0.03579">
        <ele>87</ele>
        <time>2011-02-20T09:13:11Z</time>
      </trkpt>
      <trkpt lat="47.20567" lon="-0.03572">
        <ele>87</ele>
        <time>2011-02-20T09:13:15Z</time>
      </trkpt>
      <trkpt lat="47.20565" lon="-0.03565">
        <ele>87</ele>
        <time>2011-02-20T09:13:19Z</time>
      </trkpt>
      <trkpt lat="47.20563" lon="-0.03558">
        <ele>87</ele>
        <time>2011-02-20T09:13:23Z</time>
      </trkpt>
      <trkpt lat="47.20561" lon="-0.03551">
        <ele>87</ele>
        <time>2011-02-20T09:13:27Z</time>
      </trkpt>
      <trkpt lat="47.20559" lon="-0.03543">
        <ele>87</ele>
        <time>2011-02-20T09:13:31Z</time>
      </trkpt>
      <trkpt lat="47.20557" lon="-0.03535">
        <ele>87</ele>
        <time>2011-02-20T09:13:35Z</time>
      </trkpt>
      <trkpt lat="47.20555" lon="-0.03528">
        <ele>87</ele>
        <time>2011-02-20T09:13:39Z</time>
      </trkpt>
      <trkpt lat="47.20553" lon="-0.03521">
        <ele>87</ele>
        <time>2011-02-20T09:13:43Z</time>
      </trkpt>
      <trkpt lat="47.20552" lon="-0.03513">
        <ele>87</ele>
        <time>2011-02-20T09:13:47Z</time>
      </trkpt>
      <trkpt lat="47.2055" lon="-0.03506">
        <ele>87</ele>
        <time>2011-02-20T09:13:51Z</time>
      </trkpt>
      <trkpt lat="47.20549" lon="-0.03499">
        <ele>87</ele>
        <time>2011-02-20T09:13:55Z</time>
      </trkpt>
      <trkpt lat="47.20547" lon="-0.03492">
        <ele>88</ele>
        <time>2011-02-20T09:13:59Z</time>
      </trkpt>
      <trkpt lat="47.20546" lon="-0.03484">
        <ele>88</ele>
        <time>2011-02-20T09:14:03Z</time>
      </trkpt>
      <trkpt lat="47.20544" lon="-0.03476">
        <ele>88</ele>
        <time>2011-02-20T09:14:07Z</time>
      </trkpt>
      <trkpt lat="47.20543" lon="-0.03469">
        <ele>88</ele>
        <time>2011-02-20T09:14:11Z</time>
      </trkpt>
      <trkpt lat="47.20541" lon="-0.03463">
        <ele>88</ele>
        <time>2011-02-20T09:14:15Z</time>
      </trkpt>
      <trkpt lat="47.2054" lon="-0.03456">
        <ele>88</ele>
        <time>2011-02-20T09:14:19Z</time>
      </trkpt>
      <trkpt lat="47.20539" lon="-0.03449">
        <ele>88</ele>
        <time>2011-02-20T09:14:23Z</time>
      </trkpt>
      <trkpt lat="47.20537" lon="-0.03443">
        <ele>88</ele>
        <time>2011-02-20T09:14:27Z</time>
      </trkpt>
      <trkpt lat="47.20536" lon="-0.03436">
        <ele>88</ele>
        <time>2011-02-20T09:14:31Z</time>
      </trkpt>
      <trkpt lat="47.20535" lon="-0.03428">
        <ele>88</ele>
        <time>2011-02-20T09:14:35Z</time>
      </trkpt>
      <trkpt lat="47.20533" lon="-0.03422">
        <ele>88</ele>
        <time>2011-02-20T09:14:39Z</time>
      </trkpt>
      <trkpt lat="47.20532" lon="-0.03415">
        <ele>88</ele>
        <time>2011-02-20T09:14:43Z</time>
      </trkpt>
      <trkpt lat="47.20531" lon="-0.03408">
        <ele>88</ele>
        <time>2011-02-20T09:14:47Z</time>
      </trkpt>
      <trkpt lat="47.20529" lon="-0.03402">
        <ele>88</ele>
        <time>2011-02-20T09:14:51Z</time>
      </trkpt>
      <trkpt lat="47.20528" lon="-0.03394">
        <ele>88</ele>
        <time>2011-02-20T09:14:55Z</time>
      </trkpt>
      <trkpt lat="47.20526" lon="-0.03387">
        <ele>88</ele>
        <time>2011-02-20T09:14:59Z</time>
      </trkpt>
      <trkpt lat="47.20525" lon="-0.0338">
        <ele>88</ele>
        <time>2011-02-20T09:15:03Z</time>
      </trkpt>
      <trkpt lat="47.20523" lon="-0.03373">
        <ele>88</ele>
        <time>2011-02-20T09:15:07Z</time>
      </trkpt>
      <trkpt lat="47.20522" lon="-0.03366">
        <ele>88</ele>
        <time>2011-02-20T09:15:11Z</time>
      </trkpt>
      <trkpt lat="47.2052" lon="-0.03359">
        <ele>88</ele>
        <time>2011-02-20T09:15:15Z</time>
      </trkpt>
      <trkpt lat="47.20519" lon="-0.03352">
        <ele>88</ele>
        <time>2011-02-20T09:15:19Z</time>
      </trkpt>
      <trkpt lat="47.20517" lon="-0.03345">
        <ele>88</ele>
        <time>2011-02-20T09:15:23Z</time>
      </trkpt>
      <trkpt lat="47.20516" lon="-0.03338">
        <ele>88</ele>
        <time>2011-02-20T09:15:27Z</time>
      </trkpt>
      <trkpt lat="47.20514" lon="-0.03331">
        <ele>88</ele>
        <time>2011-02-20T09:15:31Z</time>
      </trkpt>
      <trkpt lat="47.20513" lon="-0.03323">
        <ele>88</ele>
        <time>2011-02-20T09:15:35Z</time>
      </trkpt>
      <trkpt lat="47.20512" lon="-0.03316">
        <ele>88</ele>
        <time>2011-02-20T09:15:39Z</time>
      </trkpt>
      <trkpt lat="47.2051" lon="-0.03309">
        <ele>88</ele>
        <time>2011-02-20T09:15:43Z</time>
      </trkpt>
      <trkpt lat="47.20509" lon="-0.03302">
        <ele>88</ele>
        <time>2011-02-20T09:15:47Z</time>
      </trkpt>
      <trkpt lat="47.20508" lon="-0.03294">
        <ele>88</ele>
        <time>2011-02-20T09:15:51Z</time>
      </trkpt>
      <trkpt lat="47.20507" lon="-0.03287">
        <ele>89</ele>
        <time>2011-02-20T09:15:55Z</time>
      </trkpt>
      <trkpt lat="47.20505" lon="-0.03281">
        <ele>89</ele>
        <time>2011-02-20T09:15:59Z</time>
      </trkpt>
      <trkpt lat="47.20504" lon="-0.03274">
        <ele>89</ele>
        <time>2011-02-20T09:16:03Z</time>
      </trkpt>
      <trkpt lat="47.20502" lon="-0.03267">
        <ele>89</ele>
        <time>2011-02-20T09:16:07Z</time>
      </trkpt>
      <trkpt lat="47.20501" lon="-0.0326">
        <ele>89</ele>
        <time>2011-02-20T09:16:11Z</time>
      </trkpt>
      <trkpt lat="47.20499" lon="-0.03254">
        <ele>89</ele>
        <time>2011-02-20T09:16:15Z</time>
      </trkpt>
      <trkpt lat="47.20497" lon="-0.03247">
        <ele>89</ele>
        <time>2011-02-20T09:16:19Z</time>
      </trkpt>
      <trkpt lat="47.20495" lon="-0.0324">
        <ele>89</ele>
        <time>2011-02-20T09:16:23Z</time>
      </trkpt>
      <trkpt lat="47.20493" lon="-0.03234">
        <ele>89</ele>
        <time>2011-02-20T09:16:27Z</time>
      </trkpt>
      <trkpt lat="47.20491" lon="-0.03227">
        <ele>89</ele>
        <time>2011-02-20T09:16:31Z</time>
      </trkpt>
      <trkpt lat="47.20489" lon="-0.0322">
        <ele>89</ele>
        <time>2011-02-20T09:16:35Z</time>
      </trkpt>
      <trkpt lat="47.20487" lon="-0.03213">
        <ele>89</ele>
        <time>2011-02-20T09:16:39Z</time>
      </trkpt>
      <trkpt lat="47.20485" lon="-0.03207">
        <ele>89</ele>
        <time>2011-02-20T09:16:43Z</time>
      </trkpt>
      <trkpt lat="47.20483" lon="-0.03201">
        <ele>89</ele>
        <time>2011-02-20T09:16:47Z</time>
      </trkpt>
      <trkpt lat="47.20481" lon="-0.03194">
        <ele>89</ele>
        <time>2011-02-20T09:16:51Z</time>
      </trkpt>
      <trkpt lat="47.20479" lon="-0.03187">
        <ele>89</ele>
        <time>2011-02-20T09:16:55Z</time>
      </trkpt>
      <trkpt lat="47.20477" lon="-0.0318">
        <ele>89</ele>
        <time>2011-02-20T09:16:59Z</time>
      </trkpt>
      <trkpt lat="47.20474" lon="-0.03173">
        <ele>89</ele>
        <time>2011-02-20T09:17:03Z</time>
      </trkpt>
      <trkpt lat="47.20472" lon="-0.03166">
        <ele>89</ele>
        <time>2011-02-20T09:17:07Z</time>
      </trkpt>
      <trkpt lat="47.2047" lon="-0.0316">
        <ele>89</ele>
        <time>2011-02-20T09:17:11Z</time>
      </trkpt>
      <trkpt lat="47.20468" lon="-0.03153">
        <ele>89</ele>
        <time>2011-02-20T09:17:15Z</time>
      </trkpt>
      <trkpt lat="47.20466" lon="-0.03146">
        <ele>89</ele>
        <time>2011-02-20T09:17:19Z</time>
      </trkpt>
      <trkpt lat="47.20464" lon="-0.03139">
        <ele>89</ele>
        <time>2011-02-20T09:17:23Z</time>
      </trkpt>
      <trkpt lat="47.20462" lon="-0.03133">
        <ele>89</ele>
        <time>2011-02-20T09:17:27Z</time>
      </trkpt>
      <trkpt lat="47.2046" lon="-0.03126">
        <ele>89</ele>
        <time>2011-02-20T09:17:31Z</time>
      </trkpt>
      <trkpt lat="47.20458" lon="-0.0312">
        <ele>89</ele>
        <time>2011-02-20T09:17:35Z</time>
      </trkpt>
      <trkpt lat="47.20456" lon="-0.03113">
        <ele>89</ele>
        <time>2011-02-20T09:17:39Z</time>
      </trkpt>
      <trkpt lat="47.20454" lon="-0.03106">
        <ele>89</ele>
        <time>2011-02-20T09:17:43Z</time>
      </trkpt>
      <trkpt lat="47.20452" lon="-0.031">
        <ele>89</ele>
        <time>2011-02-20T09:17:47Z</time>
      </trkpt>
      <trkpt lat="47.2045" lon="-0.03093">
        <ele>89</ele>
        <time>2011-02-20T09:17:51Z</time>
      </trkpt>
      <trkpt lat="47.20448" lon="-0.03087">
        <ele>89</ele>
        <time>2011-02-20T09:17:55Z</time>
      </trkpt>
      <trkpt lat="47.20446" lon="-0.0308">
        <ele>89</ele>
        <time>2011-02-20T09:17:59Z</time>
      </trkpt>
      <trkpt lat="47.20444" lon="-0.03073">
        <ele>89</ele>
        <time>2011-02-20T09:18:04Z</time>
      </trkpt>
      <trkpt lat="47.20441" lon="-0.03065">
        <ele>89</ele>
        <time>2011-02-20T09:18:09Z</time>
      </trkpt>
      <trkpt lat="47.20439" lon="-0.03058">
        <ele>89</ele>
        <time>2011-02-20T09:18:14Z</time>
      </trkpt>
      <trkpt lat="47.20437" lon="-0.0305">
        <ele>89</ele>
        <time>2011-02-20T09:18:19Z</time>
      </trkpt>
      <trkpt lat="47.20435" lon="-0.03043">
        <ele>89</ele>
        <time>2011-02-20T09:18:24Z</time>
      </trkpt>
      <trkpt lat="47.20433" lon="-0.03036">
        <ele>89</ele>
        <time>2011-02-20T09:18:29Z</time>
      </trkpt>
      <trkpt lat="47.20431" lon="-0.03028">
        <ele>89</ele>
        <time>2011-02-20T09:18:34Z</time>
      </trkpt>
      <trkpt lat="47.20429" lon="-0.03021">
        <ele>89</ele>
        <time>2011-02-20T09:18:39Z</time>
      </trkpt>
      <trkpt lat="47.20428" lon="-0.03015">
        <ele>89</ele>
        <time>2011-02-20T09:18:43Z</time>
      </trkpt>
      <trkpt lat="47.20426" lon="-0.03007">
        <ele>89</ele>
        <time>2011-02-20T09:18:47Z</time>
      </trkpt>
      <trkpt lat="47.20424" lon="-0.03">
        <ele>89</ele>
        <time>2011-02-20T09:18:51Z</time>
      </trkpt>
      <trkpt lat="47.20422" lon="-0.02992">
        <ele>89</ele>
        <time>2011-02-20T09:18:55Z</time>
      </trkpt>
      <trkpt lat="47.2042" lon="-0.02985">
        <ele>89</ele>
        <time>2011-02-20T09:18:59Z</time>
      </trkpt>
      <trkpt lat="47.20419" lon="-0.02977">
        <ele>89</ele>
        <time>2011-02-20T09:19:03Z</time>
      </trkpt>
      <trkpt lat="47.20417" lon="-0.0297">
        <ele>89</ele>
        <time>2011-02-20T09:19:07Z</time>
      </trkpt>
      <trkpt lat="47.20416" lon="-0.02964">
        <ele>89</ele>
        <time>2011-02-20T09:19:11Z</time>
      </trkpt>
      <trkpt lat="47.20414" lon="-0.02957">
        <ele>89</ele>
        <time>2011-02-20T09:19:15Z</time>
      </trkpt>
      <trkpt lat="47.20413" lon="-0.02949">
        <ele>89</ele>
        <time>2011-02-20T09:19:19Z</time>
      </trkpt>
      <trkpt lat="47.20412" lon="-0.02942">
        <ele>89</ele>
        <time>2011-02-20T09:19:23Z</time>
      </trkpt>
      <trkpt lat="47.20411" lon="-0.02935">
        <ele>89</ele>
        <time>2011-02-20T09:19:27Z</time>
      </trkpt>
      <trkpt lat="47.20409" lon="-0.02927">
        <ele>89</ele>
        <time>2011-02-20T09:19:31Z</time>
      </trkpt>
      <trkpt lat="47.20408" lon="-0.02919">
        <ele>89</ele>
        <time>2011-02-20T09:19:35Z</time>
      </trkpt>
      <trkpt lat="47.20407" lon="-0.02912">
        <ele>89</ele>
        <time>2011-02-20T09:19:39Z</time>
      </trkpt>
      <trkpt lat="47.20406" lon="-0.02905">
        <ele>90</ele>
        <time>2011-02-20T09:19:43Z</time>
      </trkpt>
      <trkpt lat="47.20404" lon="-0.02898">
        <ele>90</ele>
        <time>2011-02-20T09:19:47Z</time>
      </trkpt>
      <trkpt lat="47.20403" lon="-0.02891">
        <ele>90</ele>
        <time>2011-02-20T09:19:51Z</time>
      </trkpt>
      <trkpt lat="47.20402" lon="-0.02885">
        <ele>90</ele>
        <time>2011-02-20T09:19:55Z</time>
      </trkpt>
      <trkpt lat="47.204" lon="-0.02878">
        <ele>90</ele>
        <time>2011-02-20T09:19:59Z</time>
      </trkpt>
      <trkpt lat="47.20399" lon="-0.02872">
        <ele>90</ele>
        <time>2011-02-20T09:20:03Z</time>
      </trkpt>
      <trkpt lat="47.20398" lon="-0.02865">
        <ele>90</ele>
        <time>2011-02-20T09:20:07Z</time>
      </trkpt>
      <trkpt lat="47.20396" lon="-0.02858">
        <ele>90</ele>
        <time>2011-02-20T09:20:11Z</time>
      </trkpt>
      <trkpt lat="47.20395" lon="-0.02851">
        <ele>90</ele>
        <time>2011-02-20T09:20:15Z</time>
      </trkpt>
      <trkpt lat="47.20394" lon="-0.02844">
        <ele>90</ele>
        <time>2011-02-20T09:20:19Z</time>
      </trkpt>
      <trkpt lat="47.20392" lon="-0.02837">
        <ele>90</ele>
        <time>2011-02-20T09:20:23Z</time>
      </trkpt>
      <trkpt lat="47.20391" lon="-0.0283">
        <ele>90</ele>
        <time>2011-02-20T09:20:27Z</time>
      </trkpt>
      <trkpt lat="47.2039" lon="-0.02823">
        <ele>90</ele>
        <time>2011-02-20T09:20:31Z</time>
      </trkpt>
      <trkpt lat="47.20389" lon="-0.02816">
        <ele>90</ele>
        <time>2011-02-20T09:20:35Z</time>
      </trkpt>
      <trkpt lat="47.20388" lon="-0.02809">
        <ele>90</ele>
        <time>2011-02-20T09:20:39Z</time>
      </trkpt>
      <trkpt lat="47.20386" lon="-0.02802">
        <ele>90</ele>
        <time>2011-02-20T09:20:43Z</time>
      </trkpt>
      <trkpt lat="47.20385" lon="-0.02796">
        <ele>90</ele>
        <time>2011-02-20T09:20:47Z</time>
      </trkpt>
      <trkpt lat="47.20384" lon="-0.02788">
        <ele>90</ele>
        <time>2011-02-20T09:20:52Z</time>
      </trkpt>
      <trkpt lat="47.20383" lon="-0.02779">
        <ele>90</ele>
        <time>2011-02-20T09:20:57Z</time>
      </trkpt>
      <trkpt lat="47.20382" lon="-0.02771">
        <ele>90</ele>
        <time>2011-02-20T09:21:02Z</time>
      </trkpt>
      <trkpt lat="47.20381" lon="-0.02765">
        <ele>90</ele>
        <time>2011-02-20T09:21:06Z</time>
      </trkpt>
      <trkpt lat="47.2038" lon="-0.02757">
        <ele>90</ele>
        <time>2011-02-20T09:21:11Z</time>
      </trkpt>
      <trkpt lat="47.20379" lon="-0.02751">
        <ele>90</ele>
        <time>2011-02-20T09:21:15Z</time>
      </trkpt>
      <trkpt lat="47.20378" lon="-0.02744">
        <ele>90</ele>
        <time>2011-02-20T09:21:19Z</time>
      </trkpt>
      <trkpt lat="47.20377" lon="-0.02737">
        <ele>90</ele>
        <time>2011-02-20T09:21:23Z</time>
      </trkpt>
      <trkpt lat="47.20377" lon="-0.0273">
        <ele>90</ele>
        <time>2011-02-20T09:21:27Z</time>
      </trkpt>
      <trkpt lat="47.20376" lon="-0.02723">
        <ele>90</ele>
        <time>2011-02-20T09:21:31Z</time>
      </trkpt>
      <trkpt lat="47.20375" lon="-0.02716">
        <ele>90</ele>
        <time>2011-02-20T09:21:35Z</time>
      </trkpt>
      <trkpt lat="47.20374" lon="-0.02709">
        <ele>90</ele>
        <time>2011-02-20T09:21:39Z</time>
      </trkpt>
      <trkpt lat="47.20373" lon="-0.02702">
        <ele>90</ele>
        <time>2011-02-20T09:21:43Z</time>
      </trkpt>
      <trkpt lat="47.20372" lon="-0.02695">
        <ele>90</ele>
        <time>2011-02-20T09:21:47Z</time>
      </trkpt>
      <trkpt lat="47.20371" lon="-0.02689">
        <ele>90</ele>
        <time>2011-02-20T09:21:51Z</time>
      </trkpt>
      <trkpt lat="47.2037" lon="-0.02681">
        <ele>90</ele>
        <time>2011-02-20T09:21:55Z</time>
      </trkpt>
      <trkpt lat="47.20369" lon="-0.02674">
        <ele>90</ele>
        <time>2011-02-20T09:21:59Z</time>
      </trkpt>
      <trkpt lat="47.20368" lon="-0.02666">
        <ele>90</ele>
        <time>2011-02-20T09:22:03Z</time>
      </trkpt>
      <trkpt lat="47.20367" lon="-0.02659">
        <ele>90</ele>
        <time>2011-02-20T09:22:07Z</time>
      </trkpt>
      <trkpt lat="47.20366" lon="-0.02652">
        <ele>90</ele>
        <time>2011-02-20T09:22:11Z</time>
      </trkpt>
      <trkpt lat="47.20365" lon="-0.02646">
        <ele>90</ele>
        <time>2011-02-20T09:22:15Z</time>
      </trkpt>
      <trkpt lat="47.20364" lon="-0.02639">
        <ele>90</ele>
        <time>2011-02-20T09:22:19Z</time>
      </trkpt>
      <trkpt lat="47.20363" lon="-0.02632">
        <ele>91</ele>
        <time>2011-02-20T09:22:23Z</time>
      </trkpt>
      <trkpt lat="47.20363" lon="-0.02624">
        <ele>91</ele>
        <time>2011-02-20T09:22:28Z</time>
      </trkpt>
      <trkpt lat="47.20365" lon="-0.02618">
        <ele>91</ele>
        <time>2011-02-20T09:22:44Z</time>
      </trkpt>
      <trkpt lat="47.20369" lon="-0.02615">
        <ele>91</ele>
        <time>2011-02-20T09:23:08Z</time>
      </trkpt>
      <trkpt lat="47.20366" lon="-0.0262">
        <ele>91</ele>
        <time>2011-02-20T09:23:48Z</time>
      </trkpt>
      <trkpt lat="47.20361" lon="-0.02623">
        <ele>91</ele>
        <time>2011-02-20T09:23:54Z</time>
      </trkpt>
      <trkpt lat="47.20357" lon="-0.02627">
        <ele>91</ele>
        <time>2011-02-20T09:24:00Z</time>
      </trkpt>
      <trkpt lat="47.20353" lon="-0.02631">
        <ele>91</ele>
        <time>2011-02-20T09:24:19Z</time>
      </trkpt>
      <trkpt lat="47.20349" lon="-0.02635">
        <ele>91</ele>
        <time>2011-02-20T09:24:27Z</time>
      </trkpt>
      <trkpt lat="47.20355" lon="-0.02637">
        <ele>91</ele>
        <time>2011-02-20T09:24:44Z</time>
      </trkpt>
      <trkpt lat="47.20359" lon="-0.02632">
        <ele>91</ele>
        <time>2011-02-20T09:24:48Z</time>
      </trkpt>
      <trkpt lat="47.20362" lon="-0.02625">
        <ele>91</ele>
        <time>2011-02-20T09:24:52Z</time>
      </trkpt>
      <trkpt lat="47.20363" lon="-0.02619">
        <ele>91</ele>
        <time>2011-02-20T09:25:12Z</time>
      </trkpt>
      <trkpt lat="47.20366" lon="-0.02614">
        <ele>92</ele>
        <time>2011-02-20T09:27:10Z</time>
      </trkpt>
      <trkpt lat="47.20366" lon="-0.02615">
        <ele>92</ele>
        <time>2011-02-20T09:27:30Z</time>
      </trkpt>
      <trkpt lat="47.20366" lon="-0.02622">
        <ele>92</ele>
        <time>2011-02-20T09:28:27Z</time>
      </trkpt>
      <trkpt lat="47.20366" lon="-0.02622">
        <ele>92</ele>
        <time>2011-02-20T09:28:28Z</time>
      </trkpt>
      <trkpt lat="47.20368" lon="-0.02616">
        <ele>92</ele>
        <time>2011-02-20T09:29:28Z</time>
      </trkpt>
      <trkpt lat="47.20374" lon="-0.02616">
        <ele>93</ele>
        <time>2011-02-20T09:29:32Z</time>
      </trkpt>
      <trkpt lat="47.20379" lon="-0.02616">
        <ele>93</ele>
        <time>2011-02-20T09:29:35Z</time>
      </trkpt>
      <trkpt lat="47.20384" lon="-0.02616">
        <ele>93</ele>
        <time>2011-02-20T09:29:38Z</time>
      </trkpt>
      <trkpt lat="47.20388" lon="-0.02617">
        <ele>93</ele>
        <time>2011-02-20T09:29:41Z</time>
      </trkpt>
      <trkpt lat="47.20394" lon="-0.02617">
        <ele>93</ele>
        <time>2011-02-20T09:29:45Z</time>
      </trkpt>
      <trkpt lat="47.20399" lon="-0.02619">
        <ele>93</ele>
        <time>2011-02-20T09:29:49Z</time>
      </trkpt>
      <trkpt lat="47.20405" lon="-0.0262">
        <ele>93</ele>
        <time>2011-02-20T09:29:53Z</time>
      </trkpt>
      <trkpt lat="47.2041" lon="-0.02621">
        <ele>93</ele>
        <time>2011-02-20T09:29:57Z</time>
      </trkpt>
      <trkpt lat="47.20415" lon="-0.02623">
        <ele>93</ele>
        <time>2011-02-20T09:30:01Z</time>
      </trkpt>
      <trkpt lat="47.20419" lon="-0.02624">
        <ele>93</ele>
        <time>2011-02-20T09:30:05Z</time>
      </trkpt>
      <trkpt lat="47.20424" lon="-0.02626">
        <ele>93</ele>
        <time>2011-02-20T09:30:09Z</time>
      </trkpt>
      <trkpt lat="47.20428" lon="-0.02627">
        <ele>93</ele>
        <time>2011-02-20T09:30:13Z</time>
      </trkpt>
      <trkpt lat="47.20433" lon="-0.02628">
        <ele>93</ele>
        <time>2011-02-20T09:30:17Z</time>
      </trkpt>
      <trkpt lat="47.20437" lon="-0.02629">
        <ele>93</ele>
        <time>2011-02-20T09:30:21Z</time>
      </trkpt>
      <trkpt lat="47.20442" lon="-0.02629">
        <ele>93</ele>
        <time>2011-02-20T09:30:25Z</time>
      </trkpt>
      <trkpt lat="47.20447" lon="-0.02629">
        <ele>93</ele>
        <time>2011-02-20T09:30:29Z</time>
      </trkpt>
      <trkpt lat="47.20452" lon="-0.02629">
        <ele>93</ele>
        <time>2011-02-20T09:30:33Z</time>
      </trkpt>
      <trkpt lat="47.20456" lon="-0.02628">
        <ele>94</ele>
        <time>2011-02-20T09:30:37Z</time>
      </trkpt>
      <trkpt lat="47.20461" lon="-0.02626">
        <ele>94</ele>
        <time>2011-02-20T09:30:41Z</time>
      </trkpt>
      <trkpt lat="47.20465" lon="-0.02625">
        <ele>94</ele>
        <time>2011-02-20T09:30:45Z</time>
      </trkpt>
      <trkpt lat="47.2047" lon="-0.02624">
        <ele>94</ele>
        <time>2011-02-20T09:30:50Z</time>
      </trkpt>
      <trkpt lat="47.20475" lon="-0.02622">
        <ele>95</ele>
        <time>2011-02-20T09:30:55Z</time>
      </trkpt>
      <trkpt lat="47.20479" lon="-0.0262">
        <ele>95</ele>
        <time>2011-02-20T09:31:00Z</time>
      </trkpt>
      <trkpt lat="47.20484" lon="-0.02616">
        <ele>95</ele>
        <time>2011-02-20T09:31:05Z</time>
      </trkpt>
      <trkpt lat="47.20488" lon="-0.02613">
        <ele>96</ele>
        <time>2011-02-20T09:31:09Z</time>
      </trkpt>
      <trkpt lat="47.20492" lon="-0.0261">
        <ele>96</ele>
        <time>2011-02-20T09:31:13Z</time>
      </trkpt>
      <trkpt lat="47.20496" lon="-0.02607">
        <ele>96</ele>
        <time>2011-02-20T09:31:17Z</time>
      </trkpt>
      <trkpt lat="47.205" lon="-0.02603">
        <ele>96</ele>
        <time>2011-02-20T09:31:21Z</time>
      </trkpt>
      <trkpt lat="47.20505" lon="-0.026">
        <ele>96</ele>
        <time>2011-02-20T09:31:25Z</time>
      </trkpt>
      <trkpt lat="47.20509" lon="-0.02597">
        <ele>96</ele>
        <time>2011-02-20T09:31:29Z</time>
      </trkpt>
      <trkpt lat="47.20513" lon="-0.02594">
        <ele>97</ele>
        <time>2011-02-20T09:31:33Z</time>
      </trkpt>
      <trkpt lat="47.20517" lon="-0.02591">
        <ele>97</ele>
        <time>2011-02-20T09:31:37Z</time>
      </trkpt>
      <trkpt lat="47.20521" lon="-0.02587">
        <ele>97</ele>
        <time>2011-02-20T09:31:41Z</time>
      </trkpt>
      <trkpt lat="47.20524" lon="-0.02582">
        <ele>97</ele>
        <time>2011-02-20T09:31:45Z</time>
      </trkpt>
      <trkpt lat="47.20528" lon="-0.02577">
        <ele>97</ele>
        <time>2011-02-20T09:31:49Z</time>
      </trkpt>
      <trkpt lat="47.20532" lon="-0.02572">
        <ele>97</ele>
        <time>2011-02-20T09:31:53Z</time>
      </trkpt>
      <trkpt lat="47.20536" lon="-0.02568">
        <ele>98</ele>
        <time>2011-02-20T09:31:57Z</time>
      </trkpt>
      <trkpt lat="47.2054" lon="-0.02564">
        <ele>98</ele>
        <time>2011-02-20T09:32:01Z</time>
      </trkpt>
      <trkpt lat="47.20544" lon="-0.02559">
        <ele>98</ele>
        <time>2011-02-20T09:32:05Z</time>
      </trkpt>
      <trkpt lat="47.20548" lon="-0.02556">
        <ele>98</ele>
        <time>2011-02-20T09:32:09Z</time>
      </trkpt>
      <trkpt lat="47.20553" lon="-0.02553">
        <ele>98</ele>
        <time>2011-02-20T09:32:14Z</time>
      </trkpt>
      <trkpt lat="47.20557" lon="-0.0255">
        <ele>98</ele>
        <time>2011-02-20T09:32:19Z</time>
      </trkpt>
      <trkpt lat="47.20562" lon="-0.02547">
        <ele>99</ele>
        <time>2011-02-20T09:32:24Z</time>
      </trkpt>
      <trkpt lat="47.20566" lon="-0.02544">
        <ele>99</ele>
        <time>2011-02-20T09:32:28Z</time>
      </trkpt>
      <trkpt lat="47.20571" lon="-0.02542">
        <ele>99</ele>
        <time>2011-02-20T09:32:32Z</time>
      </trkpt>
      <trkpt lat="47.20576" lon="-0.02541">
        <ele>99</ele>
        <time>2011-02-20T09:32:36Z</time>
      </trkpt>
      <trkpt lat="47.2058" lon="-0.02539">
        <ele>99</ele>
        <time>2011-02-20T09:32:40Z</time>
      </trkpt>
      <trkpt lat="47.20585" lon="-0.02536">
        <ele>99</ele>
        <time>2011-02-20T09:32:44Z</time>
      </trkpt>
      <trkpt lat="47.2059" lon="-0.02532">
        <ele>99</ele>
        <time>2011-02-20T09:32:48Z</time>
      </trkpt>
      <trkpt lat="47.20595" lon="-0.02529">
        <ele>100</ele>
        <time>2011-02-20T09:32:52Z</time>
      </trkpt>
      <trkpt lat="47.20599" lon="-0.02525">
        <ele>100</ele>
        <time>2011-02-20T09:32:56Z</time>
      </trkpt>
      <trkpt lat="47.20604" lon="-0.02521">
        <ele>100</ele>
        <time>2011-02-20T09:33:00Z</time>
      </trkpt>
      <trkpt lat="47.20608" lon="-0.02518">
        <ele>100</ele>
        <time>2011-02-20T09:33:04Z</time>
      </trkpt>
      <trkpt lat="47.20612" lon="-0.02515">
        <ele>100</ele>
        <time>2011-02-20T09:33:08Z</time>
      </trkpt>
      <trkpt lat="47.20617" lon="-0.02511">
        <ele>100</ele>
        <time>2011-02-20T09:33:12Z</time>
      </trkpt>
      <trkpt lat="47.20621" lon="-0.02507">
        <ele>100</ele>
        <time>2011-02-20T09:33:16Z</time>
      </trkpt>
      <trkpt lat="47.20625" lon="-0.02503">
        <ele>100</ele>
        <time>2011-02-20T09:33:20Z</time>
      </trkpt>
      <trkpt lat="47.20629" lon="-0.02499">
        <ele>100</ele>
        <time>2011-02-20T09:33:24Z</time>
      </trkpt>
      <trkpt lat="47.20633" lon="-0.02494">
        <ele>100</ele>
        <time>2011-02-20T09:33:28Z</time>
      </trkpt>
      <trkpt lat="47.20637" lon="-0.02489">
        <ele>101</ele>
        <time>2011-02-20T09:33:32Z</time>
      </trkpt>
      <trkpt lat="47.2064" lon="-0.02484">
        <ele>101</ele>
        <time>2011-02-20T09:33:36Z</time>
      </trkpt>
      <trkpt lat="47.20643" lon="-0.02478">
        <ele>101</ele>
        <time>2011-02-20T09:33:40Z</time>
      </trkpt>
      <trkpt lat="47.20646" lon="-0.02473">
        <ele>101</ele>
        <time>2011-02-20T09:33:44Z</time>
      </trkpt>
      <trkpt lat="47.2065" lon="-0.02468">
        <ele>101</ele>
        <time>2011-02-20T09:33:48Z</time>
      </trkpt>
      <trkpt lat="47.20653" lon="-0.02463">
        <ele>101</ele>
        <time>2011-02-20T09:33:52Z</time>
      </trkpt>
      <trkpt lat="47.20657" lon="-0.02459">
        <ele>101</ele>
        <time>2011-02-20T09:33:56Z</time>
      </trkpt>
      <trkpt lat="47.20661" lon="-0.02454">
        <ele>101</ele>
        <time>2011-02-20T09:34:00Z</time>
      </trkpt>
      <trkpt lat="47.20666" lon="-0.0245">
        <ele>101</ele>
        <time>2011-02-20T09:34:04Z</time>
      </trkpt>
      <trkpt lat="47.20671" lon="-0.02447">
        <ele>101</ele>
        <time>2011-02-20T09:34:08Z</time>
      </trkpt>
      <trkpt lat="47.20675" lon="-0.02444">
        <ele>101</ele>
        <time>2011-02-20T09:34:12Z</time>
      </trkpt>
      <trkpt lat="47.2068" lon="-0.02441">
        <ele>101</ele>
        <time>2011-02-20T09:34:16Z</time>
      </trkpt>
      <trkpt lat="47.20685" lon="-0.02438">
        <ele>101</ele>
        <time>2011-02-20T09:34:20Z</time>
      </trkpt>
      <trkpt lat="47.2069" lon="-0.02435">
        <ele>101</ele>
        <time>2011-02-20T09:34:24Z</time>
      </trkpt>
      <trkpt lat="47.20695" lon="-0.02433">
        <ele>101</ele>
        <time>2011-02-20T09:34:28Z</time>
      </trkpt>
      <trkpt lat="47.207" lon="-0.02432">
        <ele>101</ele>
        <time>2011-02-20T09:34:32Z</time>
      </trkpt>
      <trkpt lat="47.20705" lon="-0.02432">
        <ele>101</ele>
        <time>2011-02-20T09:34:36Z</time>
      </trkpt>
      <trkpt lat="47.2071" lon="-0.0243">
        <ele>101</ele>
        <time>2011-02-20T09:34:40Z</time>
      </trkpt>
      <trkpt lat="47.20716" lon="-0.02429">
        <ele>101</ele>
        <time>2011-02-20T09:34:44Z</time>
      </trkpt>
      <trkpt lat="47.20721" lon="-0.02427">
        <ele>101</ele>
        <time>2011-02-20T09:34:48Z</time>
      </trkpt>
      <trkpt lat="47.20726" lon="-0.02425">
        <ele>101</ele>
        <time>2011-02-20T09:34:52Z</time>
      </trkpt>
      <trkpt lat="47.20731" lon="-0.02423">
        <ele>101</ele>
        <time>2011-02-20T09:34:56Z</time>
      </trkpt>
      <trkpt lat="47.20736" lon="-0.0242">
        <ele>101</ele>
        <time>2011-02-20T09:35:00Z</time>
      </trkpt>
      <trkpt lat="47.20741" lon="-0.02417">
        <ele>101</ele>
        <time>2011-02-20T09:35:05Z</time>
      </trkpt>
      <trkpt lat="47.20746" lon="-0.02414">
        <ele>101</ele>
        <time>2011-02-20T09:35:09Z</time>
      </trkpt>
      <trkpt lat="47.20751" lon="-0.02411">
        <ele>101</ele>
        <time>2011-02-20T09:35:13Z</time>
      </trkpt>
      <trkpt lat="47.20755" lon="-0.02408">
        <ele>101</ele>
        <time>2011-02-20T09:35:17Z</time>
      </trkpt>
      <trkpt lat="47.2076" lon="-0.02405">
        <ele>101</ele>
        <time>2011-02-20T09:35:21Z</time>
      </trkpt>
      <trkpt lat="47.20764" lon="-0.02402">
        <ele>101</ele>
        <time>2011-02-20T09:35:25Z</time>
      </trkpt>
      <trkpt lat="47.20769" lon="-0.02399">
        <ele>101</ele>
        <time>2011-02-20T09:35:29Z</time>
      </trkpt>
      <trkpt lat="47.20773" lon="-0.02396">
        <ele>101</ele>
        <time>2011-02-20T09:35:33Z</time>
      </trkpt>
      <trkpt lat="47.20777" lon="-0.02393">
        <ele>101</ele>
        <time>2011-02-20T09:35:37Z</time>
      </trkpt>
      <trkpt lat="47.20782" lon="-0.0239">
        <ele>102</ele>
        <time>2011-02-20T09:35:42Z</time>
      </trkpt>
      <trkpt lat="47.20787" lon="-0.02386">
        <ele>102</ele>
        <time>2011-02-20T09:35:47Z</time>
      </trkpt>
      <trkpt lat="47.2079" lon="-0.02381">
        <ele>102</ele>
        <time>2011-02-20T09:35:56Z</time>
      </trkpt>
      <trkpt lat="47.20795" lon="-0.02377">
        <ele>102</ele>
        <time>2011-02-20T09:36:02Z</time>
      </trkpt>
      <trkpt lat="47.208" lon="-0.02374">
        <ele>102</ele>
        <time>2011-02-20T09:36:07Z</time>
      </trkpt>
      <trkpt lat="47.20804" lon="-0.02371">
        <ele>102</ele>
        <time>2011-02-20T09:36:11Z</time>
      </trkpt>
      <trkpt lat="47.20808" lon="-0.02369">
        <ele>102</ele>
        <time>2011-02-20T09:36:15Z</time>
      </trkpt>
      <trkpt lat="47.20814" lon="-0.02368">
        <ele>102</ele>
        <time>2011-02-20T09:36:19Z</time>
      </trkpt>
      <trkpt lat="47.20819" lon="-0.02367">
        <ele>102</ele>
        <time>2011-02-20T09:36:23Z</time>
      </trkpt>
      <trkpt lat="47.20825" lon="-0.02365">
        <ele>103</ele>
        <time>2011-02-20T09:36:27Z</time>
      </trkpt>
      <trkpt lat="47.20829" lon="-0.02365">
        <ele>103</ele>
        <time>2011-02-20T09:36:30Z</time>
      </trkpt>
      <trkpt lat="47.20834" lon="-0.02364">
        <ele>103</ele>
        <time>2011-02-20T09:36:33Z</time>
      </trkpt>
      <trkpt lat="47.2084" lon="-0.02363">
        <ele>103</ele>
        <time>2011-02-20T09:36:37Z</time>
      </trkpt>
      <trkpt lat="47.20845" lon="-0.02362">
        <ele>103</ele>
        <time>2011-02-20T09:36:41Z</time>
      </trkpt>
      <trkpt lat="47.20851" lon="-0.02361">
        <ele>104</ele>
        <time>2011-02-20T09:36:45Z</time>
      </trkpt>
      <trkpt lat="47.20856" lon="-0.02361">
        <ele>104</ele>
        <time>2011-02-20T09:36:49Z</time>
      </trkpt>
      <trkpt lat="47.20861" lon="-0.0236">
        <ele>104</ele>
        <time>2011-02-20T09:36:53Z</time>
      </trkpt>
      <trkpt lat="47.20866" lon="-0.02359">
        <ele>104</ele>
        <time>2011-02-20T09:36:57Z</time>
      </trkpt>
      <trkpt lat="47.20871" lon="-0.02358">
        <ele>104</ele>
        <time>2011-02-20T09:37:01Z</time>
      </trkpt>
      <trkpt lat="47.20876" lon="-0.02357">
        <ele>104</ele>
        <time>2011-02-20T09:37:05Z</time>
      </trkpt>
      <trkpt lat="47.20881" lon="-0.02356">
        <ele>104</ele>
        <time>2011-02-20T09:37:09Z</time>
      </trkpt>
      <trkpt lat="47.20886" lon="-0.02355">
        <ele>104</ele>
        <time>2011-02-20T09:37:13Z</time>
      </trkpt>
      <trkpt lat="47.20891" lon="-0.02354">
        <ele>104</ele>
        <time>2011-02-20T09:37:17Z</time>
      </trkpt>
      <trkpt lat="47.20895" lon="-0.02353">
        <ele>104</ele>
        <time>2011-02-20T09:37:21Z</time>
      </trkpt>
      <trkpt lat="47.209" lon="-0.02353">
        <ele>105</ele>
        <time>2011-02-20T09:37:25Z</time>
      </trkpt>
      <trkpt lat="47.20905" lon="-0.02352">
        <ele>105</ele>
        <time>2011-02-20T09:37:29Z</time>
      </trkpt>
      <trkpt lat="47.20909" lon="-0.02351">
        <ele>105</ele>
        <time>2011-02-20T09:37:33Z</time>
      </trkpt>
      <trkpt lat="47.20914" lon="-0.02351">
        <ele>105</ele>
        <time>2011-02-20T09:37:37Z</time>
      </trkpt>
      <trkpt lat="47.20919" lon="-0.02351">
        <ele>105</ele>
        <time>2011-02-20T09:37:42Z</time>
      </trkpt>
      <trkpt lat="47.20924" lon="-0.02352">
        <ele>105</ele>
        <time>2011-02-20T09:37:47Z</time>
      </trkpt>
      <trkpt lat="47.20929" lon="-0.02353">
        <ele>105</ele>
        <time>2011-02-20T09:37:51Z</time>
      </trkpt>
      <trkpt lat="47.20934" lon="-0.02355">
        <ele>105</ele>
        <time>2011-02-20T09:37:55Z</time>
      </trkpt>
      <trkpt lat="47.20938" lon="-0.02357">
        <ele>105</ele>
        <time>2011-02-20T09:37:59Z</time>
      </trkpt>
      <trkpt lat="47.20943" lon="-0.02359">
        <ele>105</ele>
        <time>2011-02-20T09:38:03Z</time>
      </trkpt>
      <trkpt lat="47.20948" lon="-0.02361">
        <ele>105</ele>
        <time>2011-02-20T09:38:07Z</time>
      </trkpt>
      <trkpt lat="47.20953" lon="-0.02363">
        <ele>105</ele>
        <time>2011-02-20T09:38:11Z</time>
      </trkpt>
      <trkpt lat="47.20958" lon="-0.02364">
        <ele>105</ele>
        <time>2011-02-20T09:38:16Z</time>
      </trkpt>
      <trkpt lat="47.20963" lon="-0.02367">
        <ele>105</ele>
        <time>2011-02-20T09:38:21Z</time>
      </trkpt>
      <trkpt lat="47.20967" lon="-0.0237">
        <ele>105</ele>
        <time>2011-02-20T09:38:25Z</time>
      </trkpt>
      <trkpt lat="47.20972" lon="-0.02374">
        <ele>105</ele>
        <time>2011-02-20T09:38:30Z</time>
      </trkpt>
      <trkpt lat="47.20977" lon="-0.02377">
        <ele>105</ele>
        <time>2011-02-20T09:38:35Z</time>
      </trkpt>
      <trkpt lat="47.20982" lon="-0.02379">
        <ele>105</ele>
        <time>2011-02-20T09:38:40Z</time>
      </trkpt>
      <trkpt lat="47.20986" lon="-0.02383">
        <ele>105</ele>
        <time>2011-02-20T09:38:45Z</time>
      </trkpt>
      <trkpt lat="47.20991" lon="-0.02385">
        <ele>105</ele>
        <time>2011-02-20T09:38:49Z</time>
      </trkpt>
      <trkpt lat="47.20995" lon="-0.02387">
        <ele>105</ele>
        <time>2011-02-20T09:38:53Z</time>
      </trkpt>
      <trkpt lat="47.21" lon="-0.02389">
        <ele>105</ele>
        <time>2011-02-20T09:38:57Z</time>
      </trkpt>
      <trkpt lat="47.21005" lon="-0.02391">
        <ele>105</ele>
        <time>2011-02-20T09:39:01Z</time>
      </trkpt>
      <trkpt lat="47.21009" lon="-0.02392">
        <ele>105</ele>
        <time>2011-02-20T09:39:05Z</time>
      </trkpt>
      <trkpt lat="47.21014" lon="-0.02393">
        <ele>105</ele>
        <time>2011-02-20T09:39:10Z</time>
      </trkpt>
      <trkpt lat="47.21019" lon="-0.02393">
        <ele>105</ele>
        <time>2011-02-20T09:39:15Z</time>
      </trkpt>
      <trkpt lat="47.21024" lon="-0.02392">
        <ele>105</ele>
        <time>2011-02-20T09:39:20Z</time>
      </trkpt>
      <trkpt lat="47.21029" lon="-0.02391">
        <ele>105</ele>
        <time>2011-02-20T09:39:27Z</time>
      </trkpt>
      <trkpt lat="47.21034" lon="-0.02391">
        <ele>105</ele>
        <time>2011-02-20T09:39:30Z</time>
      </trkpt>
      <trkpt lat="47.21039" lon="-0.02389">
        <ele>105</ele>
        <time>2011-02-20T09:39:33Z</time>
      </trkpt>
      <trkpt lat="47.21044" lon="-0.02388">
        <ele>105</ele>
        <time>2011-02-20T09:39:36Z</time>
      </trkpt>
      <trkpt lat="47.21048" lon="-0.02387">
        <ele>105</ele>
        <time>2011-02-20T09:39:39Z</time>
      </trkpt>
      <trkpt lat="47.21053" lon="-0.02386">
        <ele>105</ele>
        <time>2011-02-20T09:39:42Z</time>
      </trkpt>
      <trkpt lat="47.21059" lon="-0.02385">
        <ele>105</ele>
        <time>2011-02-20T09:39:46Z</time>
      </trkpt>
      <trkpt lat="47.21064" lon="-0.02384">
        <ele>105</ele>
        <time>2011-02-20T09:39:50Z</time>
      </trkpt>
      <trkpt lat="47.21069" lon="-0.02384">
        <ele>105</ele>
        <time>2011-02-20T09:39:54Z</time>
      </trkpt>
      <trkpt lat="47.21074" lon="-0.02384">
        <ele>105</ele>
        <time>2011-02-20T09:39:58Z</time>
      </trkpt>
      <trkpt lat="47.21079" lon="-0.02385">
        <ele>105</ele>
        <time>2011-02-20T09:40:02Z</time>
      </trkpt>
      <trkpt lat="47.21085" lon="-0.02386">
        <ele>105</ele>
        <time>2011-02-20T09:40:06Z</time>
      </trkpt>
      <trkpt lat="47.2109" lon="-0.02387">
        <ele>105</ele>
        <time>2011-02-20T09:40:10Z</time>
      </trkpt>
      <trkpt lat="47.21095" lon="-0.02389">
        <ele>105</ele>
        <time>2011-02-20T09:40:14Z</time>
      </trkpt>
      <trkpt lat="47.211" lon="-0.02389">
        <ele>105</ele>
        <time>2011-02-20T09:40:18Z</time>
      </trkpt>
      <trkpt lat="47.21105" lon="-0.0239">
        <ele>105</ele>
        <time>2011-02-20T09:40:22Z</time>
      </trkpt>
      <trkpt lat="47.2111" lon="-0.02389">
        <ele>105</ele>
        <time>2011-02-20T09:40:26Z</time>
      </trkpt>
      <trkpt lat="47.21115" lon="-0.02389">
        <ele>105</ele>
        <time>2011-02-20T09:40:30Z</time>
      </trkpt>
      <trkpt lat="47.21119" lon="-0.02386">
        <ele>105</ele>
        <time>2011-02-20T09:40:34Z</time>
      </trkpt>
      <trkpt lat="47.21123" lon="-0.02383">
        <ele>105</ele>
        <time>2011-02-20T09:40:38Z</time>
      </trkpt>
      <trkpt lat="47.21128" lon="-0.0238">
        <ele>105</ele>
        <time>2011-02-20T09:40:43Z</time>
      </trkpt>
      <trkpt lat="47.21133" lon="-0.02376">
        <ele>105</ele>
        <time>2011-02-20T09:40:48Z</time>
      </trkpt>
      <trkpt lat="47.21138" lon="-0.02374">
        <ele>105</ele>
        <time>2011-02-20T09:40:53Z</time>
      </trkpt>
      <trkpt lat="47.21144" lon="-0.02372">
        <ele>105</ele>
        <time>2011-02-20T09:40:58Z</time>
      </trkpt>
      <trkpt lat="47.21148" lon="-0.0237">
        <ele>105</ele>
        <time>2011-02-20T09:41:02Z</time>
      </trkpt>
      <trkpt lat="47.21153" lon="-0.02368">
        <ele>105</ele>
        <time>2011-02-20T09:41:06Z</time>
      </trkpt>
      <trkpt lat="47.21158" lon="-0.02366">
        <ele>105</ele>
        <time>2011-02-20T09:41:10Z</time>
      </trkpt>
      <trkpt lat="47.21163" lon="-0.02364">
        <ele>105</ele>
        <time>2011-02-20T09:41:14Z</time>
      </trkpt>
      <trkpt lat="47.21168" lon="-0.02362">
        <ele>105</ele>
        <time>2011-02-20T09:41:18Z</time>
      </trkpt>
      <trkpt lat="47.21172" lon="-0.0236">
        <ele>105</ele>
        <time>2011-02-20T09:41:22Z</time>
      </trkpt>
      <trkpt lat="47.21177" lon="-0.02358">
        <ele>105</ele>
        <time>2011-02-20T09:41:26Z</time>
      </trkpt>
      <trkpt lat="47.21182" lon="-0.02357">
        <ele>105</ele>
        <time>2011-02-20T09:41:30Z</time>
      </trkpt>
      <trkpt lat="47.21187" lon="-0.02355">
        <ele>105</ele>
        <time>2011-02-20T09:41:34Z</time>
      </trkpt>
      <trkpt lat="47.21192" lon="-0.02354">
        <ele>105</ele>
        <time>2011-02-20T09:41:38Z</time>
      </trkpt>
      <trkpt lat="47.21196" lon="-0.02353">
        <ele>105</ele>
        <time>2011-02-20T09:41:42Z</time>
      </trkpt>
      <trkpt lat="47.21201" lon="-0.0235">
        <ele>105</ele>
        <time>2011-02-20T09:41:47Z</time>
      </trkpt>
      <trkpt lat="47.21206" lon="-0.02348">
        <ele>106</ele>
        <time>2011-02-20T09:41:52Z</time>
      </trkpt>
      <trkpt lat="47.21211" lon="-0.02346">
        <ele>105</ele>
        <time>2011-02-20T09:41:57Z</time>
      </trkpt>
      <trkpt lat="47.21216" lon="-0.02345">
        <ele>105</ele>
        <time>2011-02-20T09:42:02Z</time>
      </trkpt>
      <trkpt lat="47.21221" lon="-0.02342">
        <ele>105</ele>
        <time>2011-02-20T09:42:07Z</time>
      </trkpt>
      <trkpt lat="47.21226" lon="-0.02341">
        <ele>105</ele>
        <time>2011-02-20T09:42:11Z</time>
      </trkpt>
      <trkpt lat="47.21231" lon="-0.0234">
        <ele>106</ele>
        <time>2011-02-20T09:42:16Z</time>
      </trkpt>
      <trkpt lat="47.21236" lon="-0.0234">
        <ele>106</ele>
        <time>2011-02-20T09:42:20Z</time>
      </trkpt>
      <trkpt lat="47.2124" lon="-0.02339">
        <ele>106</ele>
        <time>2011-02-20T09:42:24Z</time>
      </trkpt>
      <trkpt lat="47.21245" lon="-0.02338">
        <ele>106</ele>
        <time>2011-02-20T09:42:28Z</time>
      </trkpt>
      <trkpt lat="47.2125" lon="-0.02337">
        <ele>106</ele>
        <time>2011-02-20T09:42:32Z</time>
      </trkpt>
      <trkpt lat="47.21254" lon="-0.02336">
        <ele>106</ele>
        <time>2011-02-20T09:42:36Z</time>
      </trkpt>
      <trkpt lat="47.21259" lon="-0.02336">
        <ele>106</ele>
        <time>2011-02-20T09:42:40Z</time>
      </trkpt>
      <trkpt lat="47.21263" lon="-0.02335">
        <ele>106</ele>
        <time>2011-02-20T09:42:44Z</time>
      </trkpt>
      <trkpt lat="47.21269" lon="-0.02336">
        <ele>106</ele>
        <time>2011-02-20T09:42:49Z</time>
      </trkpt>
      <trkpt lat="47.21274" lon="-0.02338">
        <ele>106</ele>
        <time>2011-02-20T09:42:54Z</time>
      </trkpt>
      <trkpt lat="47.21278" lon="-0.0234">
        <ele>106</ele>
        <time>2011-02-20T09:42:59Z</time>
      </trkpt>
      <trkpt lat="47.21283" lon="-0.02341">
        <ele>106</ele>
        <time>2011-02-20T09:43:04Z</time>
      </trkpt>
      <trkpt lat="47.21287" lon="-0.02344">
        <ele>106</ele>
        <time>2011-02-20T09:43:08Z</time>
      </trkpt>
      <trkpt lat="47.21292" lon="-0.02346">
        <ele>106</ele>
        <time>2011-02-20T09:43:13Z</time>
      </trkpt>
      <trkpt lat="47.21297" lon="-0.02347">
        <ele>107</ele>
        <time>2011-02-20T09:43:17Z</time>
      </trkpt>
      <trkpt lat="47.21301" lon="-0.02347">
        <ele>107</ele>
        <time>2011-02-20T09:43:21Z</time>
      </trkpt>
      <trkpt lat="47.21306" lon="-0.02348">
        <ele>107</ele>
        <time>2011-02-20T09:43:25Z</time>
      </trkpt>
      <trkpt lat="47.2131" lon="-0.02349">
        <ele>107</ele>
        <time>2011-02-20T09:43:29Z</time>
      </trkpt>
      <trkpt lat="47.21315" lon="-0.0235">
        <ele>107</ele>
        <time>2011-02-20T09:43:33Z</time>
      </trkpt>
      <trkpt lat="47.2132" lon="-0.02351">
        <ele>107</ele>
        <time>2011-02-20T09:43:37Z</time>
      </trkpt>
      <trkpt lat="47.21325" lon="-0.02353">
        <ele>107</ele>
        <time>2011-02-20T09:43:41Z</time>
      </trkpt>
      <trkpt lat="47.21329" lon="-0.02354">
        <ele>107</ele>
        <time>2011-02-20T09:43:45Z</time>
      </trkpt>
      <trkpt lat="47.21334" lon="-0.02356">
        <ele>107</ele>
        <time>2011-02-20T09:43:50Z</time>
      </trkpt>
      <trkpt lat="47.21339" lon="-0.02359">
        <ele>107</ele>
        <time>2011-02-20T09:43:55Z</time>
      </trkpt>
      <trkpt lat="47.21343" lon="-0.0236">
        <ele>107</ele>
        <time>2011-02-20T09:44:00Z</time>
      </trkpt>
      <trkpt lat="47.21348" lon="-0.02359">
        <ele>107</ele>
        <time>2011-02-20T09:44:06Z</time>
      </trkpt>
      <trkpt lat="47.21351" lon="-0.02355">
        <ele>107</ele>
        <time>2011-02-20T09:44:12Z</time>
      </trkpt>
      <trkpt lat="47.21354" lon="-0.02349">
        <ele>107</ele>
        <time>2011-02-20T09:44:49Z</time>
      </trkpt>
      <trkpt lat="47.21359" lon="-0.02345">
        <ele>107</ele>
        <time>2011-02-20T09:44:55Z</time>
      </trkpt>
      <trkpt lat="47.21363" lon="-0.02343">
        <ele>107</ele>
        <time>2011-02-20T09:45:01Z</time>
      </trkpt>
      <trkpt lat="47.21366" lon="-0.02338">
        <ele>107</ele>
        <time>2011-02-20T09:45:07Z</time>
      </trkpt>
      <trkpt lat="47.21369" lon="-0.02332">
        <ele>106</ele>
        <time>2011-02-20T09:45:14Z</time>
      </trkpt>
      <trkpt lat="47.21372" lon="-0.02327">
        <ele>106</ele>
        <time>2011-02-20T09:45:22Z</time>
      </trkpt>
      <trkpt lat="47.21375" lon="-0.0232">
        <ele>106</ele>
        <time>2011-02-20T09:45:28Z</time>
      </trkpt>
      <trkpt lat="47.21378" lon="-0.02314">
        <ele>106</ele>
        <time>2011-02-20T09:45:34Z</time>
      </trkpt>
      <trkpt lat="47.21381" lon="-0.02309">
        <ele>106</ele>
        <time>2011-02-20T09:45:40Z</time>
      </trkpt>
      <trkpt lat="47.21386" lon="-0.02308">
        <ele>106</ele>
        <time>2011-02-20T09:45:47Z</time>
      </trkpt>
      <trkpt lat="47.21389" lon="-0.02303">
        <ele>106</ele>
        <time>2011-02-20T09:45:55Z</time>
      </trkpt>
      <trkpt lat="47.21391" lon="-0.02296">
        <ele>106</ele>
        <time>2011-02-20T09:46:01Z</time>
      </trkpt>
      <trkpt lat="47.21394" lon="-0.02291">
        <ele>106</ele>
        <time>2011-02-20T09:46:08Z</time>
      </trkpt>
      <trkpt lat="47.21394" lon="-0.02282">
        <ele>106</ele>
        <time>2011-02-20T09:46:15Z</time>
      </trkpt>
      <trkpt lat="47.21393" lon="-0.02275">
        <ele>106</ele>
        <time>2011-02-20T09:46:18Z</time>
      </trkpt>
      <trkpt lat="47.2139" lon="-0.02268">
        <ele>106</ele>
        <time>2011-02-20T09:46:23Z</time>
      </trkpt>
      <trkpt lat="47.21387" lon="-0.02263">
        <ele>106</ele>
        <time>2011-02-20T09:46:30Z</time>
      </trkpt>
      <trkpt lat="47.2139" lon="-0.02257">
        <ele>106</ele>
        <time>2011-02-20T09:46:41Z</time>
      </trkpt>
      <trkpt lat="47.21395" lon="-0.02256">
        <ele>106</ele>
        <time>2011-02-20T09:46:49Z</time>
      </trkpt>
      <trkpt lat="47.214" lon="-0.02254">
        <ele>105</ele>
        <time>2011-02-20T09:46:56Z</time>
      </trkpt>
      <trkpt lat="47.21404" lon="-0.02249">
        <ele>105</ele>
        <time>2011-02-20T09:47:03Z</time>
      </trkpt>
      <trkpt lat="47.21408" lon="-0.02245">
        <ele>105</ele>
        <time>2011-02-20T09:47:10Z</time>
      </trkpt>
      <trkpt lat="47.21411" lon="-0.02239">
        <ele>105</ele>
        <time>2011-02-20T09:47:16Z</time>
      </trkpt>
      <trkpt lat="47.21414" lon="-0.02233">
        <ele>105</ele>
        <time>2011-02-20T09:47:21Z</time>
      </trkpt>
      <trkpt lat="47.21417" lon="-0.02228">
        <ele>106</ele>
        <time>2011-02-20T09:47:27Z</time>
      </trkpt>
      <trkpt lat="47.2142" lon="-0.02221">
        <ele>106</ele>
        <time>2011-02-20T09:47:33Z</time>
      </trkpt>
      <trkpt lat="47.2142" lon="-0.02213">
        <ele>106</ele>
        <time>2011-02-20T09:47:36Z</time>
      </trkpt>
      <trkpt lat="47.21419" lon="-0.02204">
        <ele>106</ele>
        <time>2011-02-20T09:47:39Z</time>
      </trkpt>
      <trkpt lat="47.2142" lon="-0.02196">
        <ele>106</ele>
        <time>2011-02-20T09:47:43Z</time>
      </trkpt>
      <trkpt lat="47.2142" lon="-0.02188">
        <ele>106</ele>
        <time>2011-02-20T09:47:48Z</time>
      </trkpt>
      <trkpt lat="47.21421" lon="-0.0218">
        <ele>106</ele>
        <time>2011-02-20T09:47:53Z</time>
      </trkpt>
      <trkpt lat="47.21422" lon="-0.02172">
        <ele>106</ele>
        <time>2011-02-20T09:47:58Z</time>
      </trkpt>
      <trkpt lat="47.21423" lon="-0.02166">
        <ele>106</ele>
        <time>2011-02-20T09:48:03Z</time>
      </trkpt>
      <trkpt lat="47.21423" lon="-0.02158">
        <ele>106</ele>
        <time>2011-02-20T09:48:08Z</time>
      </trkpt>
      <trkpt lat="47.21423" lon="-0.02151">
        <ele>106</ele>
        <time>2011-02-20T09:48:14Z</time>
      </trkpt>
      <trkpt lat="47.21422" lon="-0.02145">
        <ele>106</ele>
        <time>2011-02-20T09:48:22Z</time>
      </trkpt>
      <trkpt lat="47.21419" lon="-0.02139">
        <ele>106</ele>
        <time>2011-02-20T09:48:30Z</time>
      </trkpt>
      <trkpt lat="47.21416" lon="-0.02134">
        <ele>107</ele>
        <time>2011-02-20T09:48:54Z</time>
      </trkpt>
      <trkpt lat="47.21417" lon="-0.02126">
        <ele>107</ele>
        <time>2011-02-20T09:48:59Z</time>
      </trkpt>
      <trkpt lat="47.21419" lon="-0.02119">
        <ele>107</ele>
        <time>2011-02-20T09:49:04Z</time>
      </trkpt>
      <trkpt lat="47.21421" lon="-0.02113">
        <ele>107</ele>
        <time>2011-02-20T09:49:09Z</time>
      </trkpt>
      <trkpt lat="47.21424" lon="-0.02107">
        <ele>108</ele>
        <time>2011-02-20T09:49:14Z</time>
      </trkpt>
      <trkpt lat="47.21427" lon="-0.02101">
        <ele>108</ele>
        <time>2011-02-20T09:49:19Z</time>
      </trkpt>
      <trkpt lat="47.21429" lon="-0.02095">
        <ele>108</ele>
        <time>2011-02-20T09:49:23Z</time>
      </trkpt>
      <trkpt lat="47.21433" lon="-0.0209">
        <ele>108</ele>
        <time>2011-02-20T09:49:27Z</time>
      </trkpt>
      <trkpt lat="47.21437" lon="-0.02085">
        <ele>108</ele>
        <time>2011-02-20T09:49:31Z</time>
      </trkpt>
      <trkpt lat="47.21442" lon="-0.02081">
        <ele>108</ele>
        <time>2011-02-20T09:49:35Z</time>
      </trkpt>
      <trkpt lat="47.21445" lon="-0.02076">
        <ele>108</ele>
        <time>2011-02-20T09:49:39Z</time>
      </trkpt>
      <trkpt lat="47.21449" lon="-0.0207">
        <ele>108</ele>
        <time>2011-02-20T09:49:43Z</time>
      </trkpt>
      <trkpt lat="47.2145" lon="-0.02064">
        <ele>108</ele>
        <time>2011-02-20T09:49:46Z</time>
      </trkpt>
      <trkpt lat="47.21452" lon="-0.02055">
        <ele>108</ele>
        <time>2011-02-20T09:49:50Z</time>
      </trkpt>
      <trkpt lat="47.21453" lon="-0.02048">
        <ele>108</ele>
        <time>2011-02-20T09:49:54Z</time>
      </trkpt>
      <trkpt lat="47.21454" lon="-0.02041">
        <ele>108</ele>
        <time>2011-02-20T09:49:57Z</time>
      </trkpt>
      <trkpt lat="47.21456" lon="-0.02033">
        <ele>108</ele>
        <time>2011-02-20T09:50:00Z</time>
      </trkpt>
      <trkpt lat="47.21457" lon="-0.02026">
        <ele>109</ele>
        <time>2011-02-20T09:50:04Z</time>
      </trkpt>
      <trkpt lat="47.21459" lon="-0.02019">
        <ele>109</ele>
        <time>2011-02-20T09:50:08Z</time>
      </trkpt>
      <trkpt lat="47.21462" lon="-0.02012">
        <ele>109</ele>
        <time>2011-02-20T09:50:13Z</time>
      </trkpt>
      <trkpt lat="47.21464" lon="-0.02005">
        <ele>109</ele>
        <time>2011-02-20T09:50:18Z</time>
      </trkpt>
      <trkpt lat="47.21467" lon="-0.01998">
        <ele>109</ele>
        <time>2011-02-20T09:50:23Z</time>
      </trkpt>
      <trkpt lat="47.21469" lon="-0.01991">
        <ele>110</ele>
        <time>2011-02-20T09:50:28Z</time>
      </trkpt>
      <trkpt lat="47.21472" lon="-0.01984">
        <ele>110</ele>
        <time>2011-02-20T09:50:33Z</time>
      </trkpt>
      <trkpt lat="47.21475" lon="-0.01979">
        <ele>110</ele>
        <time>2011-02-20T09:50:37Z</time>
      </trkpt>
      <trkpt lat="47.21478" lon="-0.01974">
        <ele>110</ele>
        <time>2011-02-20T09:50:41Z</time>
      </trkpt>
      <trkpt lat="47.21481" lon="-0.01968">
        <ele>110</ele>
        <time>2011-02-20T09:50:45Z</time>
      </trkpt>
      <trkpt lat="47.21486" lon="-0.01962">
        <ele>110</ele>
        <time>2011-02-20T09:50:49Z</time>
      </trkpt>
      <trkpt lat="47.2149" lon="-0.01957">
        <ele>110</ele>
        <time>2011-02-20T09:50:53Z</time>
      </trkpt>
      <trkpt lat="47.21493" lon="-0.01951">
        <ele>110</ele>
        <time>2011-02-20T09:50:57Z</time>
      </trkpt>
      <trkpt lat="47.21496" lon="-0.01945">
        <ele>110</ele>
        <time>2011-02-20T09:51:01Z</time>
      </trkpt>
      <trkpt lat="47.21499" lon="-0.01938">
        <ele>111</ele>
        <time>2011-02-20T09:51:05Z</time>
      </trkpt>
      <trkpt lat="47.21501" lon="-0.01931">
        <ele>111</ele>
        <time>2011-02-20T09:51:09Z</time>
      </trkpt>
      <trkpt lat="47.21503" lon="-0.01925">
        <ele>111</ele>
        <time>2011-02-20T09:51:13Z</time>
      </trkpt>
      <trkpt lat="47.21505" lon="-0.01919">
        <ele>111</ele>
        <time>2011-02-20T09:51:17Z</time>
      </trkpt>
      <trkpt lat="47.21508" lon="-0.01913">
        <ele>111</ele>
        <time>2011-02-20T09:51:21Z</time>
      </trkpt>
      <trkpt lat="47.21511" lon="-0.01907">
        <ele>111</ele>
        <time>2011-02-20T09:51:25Z</time>
      </trkpt>
      <trkpt lat="47.21513" lon="-0.01901">
        <ele>111</ele>
        <time>2011-02-20T09:51:29Z</time>
      </trkpt>
      <trkpt lat="47.21515" lon="-0.01894">
        <ele>111</ele>
        <time>2011-02-20T09:51:33Z</time>
      </trkpt>
      <trkpt lat="47.21518" lon="-0.01888">
        <ele>111</ele>
        <time>2011-02-20T09:51:37Z</time>
      </trkpt>
      <trkpt lat="47.2152" lon="-0.01882">
        <ele>112</ele>
        <time>2011-02-20T09:51:41Z</time>
      </trkpt>
      <trkpt lat="47.21522" lon="-0.01875">
        <ele>112</ele>
        <time>2011-02-20T09:51:45Z</time>
      </trkpt>
      <trkpt lat="47.21525" lon="-0.01869">
        <ele>112</ele>
        <time>2011-02-20T09:51:49Z</time>
      </trkpt>
      <trkpt lat="47.21528" lon="-0.01863">
        <ele>112</ele>
        <time>2011-02-20T09:51:53Z</time>
      </trkpt>
      <trkpt lat="47.21531" lon="-0.01856">
        <ele>112</ele>
        <time>2011-02-20T09:51:57Z</time>
      </trkpt>
      <trkpt lat="47.21534" lon="-0.0185">
        <ele>112</ele>
        <time>2011-02-20T09:52:01Z</time>
      </trkpt>
      <trkpt lat="47.21537" lon="-0.01843">
        <ele>112</ele>
        <time>2011-02-20T09:52:05Z</time>
      </trkpt>
      <trkpt lat="47.21539" lon="-0.01836">
        <ele>112</ele>
        <time>2011-02-20T09:52:09Z</time>
      </trkpt>
      <trkpt lat="47.21542" lon="-0.0183">
        <ele>112</ele>
        <time>2011-02-20T09:52:13Z</time>
      </trkpt>
      <trkpt lat="47.21544" lon="-0.01823">
        <ele>112</ele>
        <time>2011-02-20T09:52:17Z</time>
      </trkpt>
      <trkpt lat="47.21546" lon="-0.01817">
        <ele>112</ele>
        <time>2011-02-20T09:52:21Z</time>
      </trkpt>
      <trkpt lat="47.21548" lon="-0.0181">
        <ele>112</ele>
        <time>2011-02-20T09:52:25Z</time>
      </trkpt>
      <trkpt lat="47.2155" lon="-0.01803">
        <ele>112</ele>
        <time>2011-02-20T09:52:29Z</time>
      </trkpt>
      <trkpt lat="47.21553" lon="-0.01797">
        <ele>113</ele>
        <time>2011-02-20T09:52:33Z</time>
      </trkpt>
      <trkpt lat="47.21555" lon="-0.0179">
        <ele>113</ele>
        <time>2011-02-20T09:52:37Z</time>
      </trkpt>
      <trkpt lat="47.21557" lon="-0.01784">
        <ele>113</ele>
        <time>2011-02-20T09:52:41Z</time>
      </trkpt>
      <trkpt lat="47.2156" lon="-0.01778">
        <ele>113</ele>
        <time>2011-02-20T09:52:45Z</time>
      </trkpt>
      <trkpt lat="47.21562" lon="-0.01771">
        <ele>113</ele>
        <time>2011-02-20T09:52:49Z</time>
      </trkpt>
      <trkpt lat="47.21564" lon="-0.01765">
        <ele>113</ele>
        <time>2011-02-20T09:52:53Z</time>
      </trkpt>
      <trkpt lat="47.21567" lon="-0.01759">
        <ele>113</ele>
        <time>2011-02-20T09:52:57Z</time>
      </trkpt>
      <trkpt lat="47.21569" lon="-0.01753">
        <ele>113</ele>
        <time>2011-02-20T09:53:01Z</time>
      </trkpt>
      <trkpt lat="47.21572" lon="-0.01747">
        <ele>113</ele>
        <time>2011-02-20T09:53:05Z</time>
      </trkpt>
      <trkpt lat="47.21575" lon="-0.01741">
        <ele>113</ele>
        <time>2011-02-20T09:53:10Z</time>
      </trkpt>
      <trkpt lat="47.21577" lon="-0.01735">
        <ele>113</ele>
        <time>2011-02-20T09:53:14Z</time>
      </trkpt>
      <trkpt lat="47.21581" lon="-0.01728">
        <ele>113</ele>
        <time>2011-02-20T09:53:19Z</time>
      </trkpt>
      <trkpt lat="47.21583" lon="-0.01722">
        <ele>114</ele>
        <time>2011-02-20T09:53:24Z</time>
      </trkpt>
      <trkpt lat="47.21587" lon="-0.01716">
        <ele>114</ele>
        <time>2011-02-20T09:53:29Z</time>
      </trkpt>
      <trkpt lat="47.2159" lon="-0.0171">
        <ele>114</ele>
        <time>2011-02-20T09:53:33Z</time>
      </trkpt>
      <trkpt lat="47.21593" lon="-0.01704">
        <ele>114</ele>
        <time>2011-02-20T09:53:37Z</time>
      </trkpt>
      <trkpt lat="47.21597" lon="-0.01699">
        <ele>114</ele>
        <time>2011-02-20T09:53:41Z</time>
      </trkpt>
      <trkpt lat="47.21601" lon="-0.01694">
        <ele>114</ele>
        <time>2011-02-20T09:53:45Z</time>
      </trkpt>
      <trkpt lat="47.21606" lon="-0.01689">
        <ele>114</ele>
        <time>2011-02-20T09:53:49Z</time>
      </trkpt>
      <trkpt lat="47.2161" lon="-0.01684">
        <ele>115</ele>
        <time>2011-02-20T09:53:53Z</time>
      </trkpt>
      <trkpt lat="47.21614" lon="-0.01679">
        <ele>115</ele>
        <time>2011-02-20T09:53:57Z</time>
      </trkpt>
      <trkpt lat="47.21619" lon="-0.01674">
        <ele>115</ele>
        <time>2011-02-20T09:54:01Z</time>
      </trkpt>
      <trkpt lat="47.21623" lon="-0.0167">
        <ele>115</ele>
        <time>2011-02-20T09:54:05Z</time>
      </trkpt>
      <trkpt lat="47.21627" lon="-0.01666">
        <ele>115</ele>
        <time>2011-02-20T09:54:09Z</time>
      </trkpt>
      <trkpt lat="47.21632" lon="-0.01661">
        <ele>115</ele>
        <time>2011-02-20T09:54:13Z</time>
      </trkpt>
      <trkpt lat="47.21636" lon="-0.01657">
        <ele>115</ele>
        <time>2011-02-20T09:54:17Z</time>
      </trkpt>
      <trkpt lat="47.2164" lon="-0.01652">
        <ele>115</ele>
        <time>2011-02-20T09:54:21Z</time>
      </trkpt>
      <trkpt lat="47.21643" lon="-0.01648">
        <ele>115</ele>
        <time>2011-02-20T09:54:25Z</time>
      </trkpt>
      <trkpt lat="47.21648" lon="-0.01644">
        <ele>116</ele>
        <time>2011-02-20T09:54:30Z</time>
      </trkpt>
      <trkpt lat="47.21652" lon="-0.0164">
        <ele>116</ele>
        <time>2011-02-20T09:54:34Z</time>
      </trkpt>
      <trkpt lat="47.21655" lon="-0.01636">
        <ele>116</ele>
        <time>2011-02-20T09:54:38Z</time>
      </trkpt>
      <trkpt lat="47.21659" lon="-0.01631">
        <ele>116</ele>
        <time>2011-02-20T09:54:42Z</time>
      </trkpt>
      <trkpt lat="47.21662" lon="-0.01627">
        <ele>116</ele>
        <time>2011-02-20T09:54:46Z</time>
      </trkpt>
      <trkpt lat="47.21667" lon="-0.01623">
        <ele>116</ele>
        <time>2011-02-20T09:54:50Z</time>
      </trkpt>
      <trkpt lat="47.21671" lon="-0.01618">
        <ele>116</ele>
        <time>2011-02-20T09:54:54Z</time>
      </trkpt>
      <trkpt lat="47.21675" lon="-0.01614">
        <ele>116</ele>
        <time>2011-02-20T09:54:58Z</time>
      </trkpt>
      <trkpt lat="47.2168" lon="-0.0161">
        <ele>116</ele>
        <time>2011-02-20T09:55:02Z</time>
      </trkpt>
      <trkpt lat="47.21684" lon="-0.01605">
        <ele>116</ele>
        <time>2011-02-20T09:55:06Z</time>
      </trkpt>
      <trkpt lat="47.21689" lon="-0.01601">
        <ele>116</ele>
        <time>2011-02-20T09:55:10Z</time>
      </trkpt>
      <trkpt lat="47.21693" lon="-0.01597">
        <ele>116</ele>
        <time>2011-02-20T09:55:14Z</time>
      </trkpt>
      <trkpt lat="47.21697" lon="-0.01592">
        <ele>117</ele>
        <time>2011-02-20T09:55:18Z</time>
      </trkpt>
      <trkpt lat="47.217" lon="-0.01587">
        <ele>117</ele>
        <time>2011-02-20T09:55:22Z</time>
      </trkpt>
      <trkpt lat="47.21704" lon="-0.01583">
        <ele>117</ele>
        <time>2011-02-20T09:55:26Z</time>
      </trkpt>
      <trkpt lat="47.21708" lon="-0.01579">
        <ele>117</ele>
        <time>2011-02-20T09:55:30Z</time>
      </trkpt>
      <trkpt lat="47.21713" lon="-0.01574">
        <ele>117</ele>
        <time>2011-02-20T09:55:34Z</time>
      </trkpt>
      <trkpt lat="47.21717" lon="-0.0157">
        <ele>117</ele>
        <time>2011-02-20T09:55:38Z</time>
      </trkpt>
      <trkpt lat="47.21721" lon="-0.01566">
        <ele>117</ele>
        <time>2011-02-20T09:55:42Z</time>
      </trkpt>
      <trkpt lat="47.21725" lon="-0.01561">
        <ele>117</ele>
        <time>2011-02-20T09:55:46Z</time>
      </trkpt>
      <trkpt lat="47.21729" lon="-0.01557">
        <ele>117</ele>
        <time>2011-02-20T09:55:50Z</time>
      </trkpt>
      <trkpt lat="47.21733" lon="-0.01552">
        <ele>117</ele>
        <time>2011-02-20T09:55:54Z</time>
      </trkpt>
      <trkpt lat="47.21736" lon="-0.01548">
        <ele>117</ele>
        <time>2011-02-20T09:55:58Z</time>
      </trkpt>
      <trkpt lat="47.2174" lon="-0.01544">
        <ele>117</ele>
        <time>2011-02-20T09:56:02Z</time>
      </trkpt>
      <trkpt lat="47.21744" lon="-0.01538">
        <ele>117</ele>
        <time>2011-02-20T09:56:07Z</time>
      </trkpt>
      <trkpt lat="47.21748" lon="-0.01534">
        <ele>117</ele>
        <time>2011-02-20T09:56:11Z</time>
      </trkpt>
      <trkpt lat="47.21751" lon="-0.0153">
        <ele>117</ele>
        <time>2011-02-20T09:56:15Z</time>
      </trkpt>
      <trkpt lat="47.21755" lon="-0.01525">
        <ele>117</ele>
        <time>2011-02-20T09:56:19Z</time>
      </trkpt>
      <trkpt lat="47.21759" lon="-0.0152">
        <ele>118</ele>
        <time>2011-02-20T09:56:23Z</time>
      </trkpt>
      <trkpt lat="47.21762" lon="-0.01516">
        <ele>118</ele>
        <time>2011-02-20T09:56:27Z</time>
      </trkpt>
      <trkpt lat="47.21766" lon="-0.01512">
        <ele>118</ele>
        <time>2011-02-20T09:56:31Z</time>
      </trkpt>
      <trkpt lat="47.21769" lon="-0.01508">
        <ele>118</ele>
        <time>2011-02-20T09:56:35Z</time>
      </trkpt>
      <trkpt lat="47.21773" lon="-0.01503">
        <ele>118</ele>
        <time>2011-02-20T09:56:39Z</time>
      </trkpt>
      <trkpt lat="47.21777" lon="-0.01499">
        <ele>118</ele>
        <time>2011-02-20T09:56:43Z</time>
      </trkpt>
      <trkpt lat="47.21781" lon="-0.01495">
        <ele>118</ele>
        <time>2011-02-20T09:56:47Z</time>
      </trkpt>
      <trkpt lat="47.21785" lon="-0.0149">
        <ele>118</ele>
        <time>2011-02-20T09:56:51Z</time>
      </trkpt>
      <trkpt lat="47.21788" lon="-0.01486">
        <ele>118</ele>
        <time>2011-02-20T09:56:55Z</time>
      </trkpt>
      <trkpt lat="47.21792" lon="-0.01481">
        <ele>118</ele>
        <time>2011-02-20T09:56:59Z</time>
      </trkpt>
      <trkpt lat="47.21796" lon="-0.01477">
        <ele>118</ele>
        <time>2011-02-20T09:57:03Z</time>
      </trkpt>
      <trkpt lat="47.218" lon="-0.01471">
        <ele>118</ele>
        <time>2011-02-20T09:57:08Z</time>
      </trkpt>
      <trkpt lat="47.21804" lon="-0.01466">
        <ele>118</ele>
        <time>2011-02-20T09:57:13Z</time>
      </trkpt>
      <trkpt lat="47.21808" lon="-0.01461">
        <ele>118</ele>
        <time>2011-02-20T09:57:18Z</time>
      </trkpt>
      <trkpt lat="47.21812" lon="-0.01457">
        <ele>118</ele>
        <time>2011-02-20T09:57:24Z</time>
      </trkpt>
      <trkpt lat="47.21816" lon="-0.01456">
        <ele>118</ele>
        <time>2011-02-20T09:57:32Z</time>
      </trkpt>
      <trkpt lat="47.21822" lon="-0.01455">
        <ele>118</ele>
        <time>2011-02-20T09:57:37Z</time>
      </trkpt>
      <trkpt lat="47.21827" lon="-0.01456">
        <ele>117</ele>
        <time>2011-02-20T09:57:41Z</time>
      </trkpt>
      <trkpt lat="47.21831" lon="-0.01458">
        <ele>117</ele>
        <time>2011-02-20T09:57:44Z</time>
      </trkpt>
      <trkpt lat="47.21836" lon="-0.01461">
        <ele>117</ele>
        <time>2011-02-20T09:57:48Z</time>
      </trkpt>
      <trkpt lat="47.2184" lon="-0.01463">
        <ele>116</ele>
        <time>2011-02-20T09:57:53Z</time>
      </trkpt>
      <trkpt lat="47.21844" lon="-0.01465">
        <ele>116</ele>
        <time>2011-02-20T09:57:58Z</time>
      </trkpt>
      <trkpt lat="47.21849" lon="-0.01468">
        <ele>116</ele>
        <time>2011-02-20T09:58:03Z</time>
      </trkpt>
      <trkpt lat="47.21852" lon="-0.01471">
        <ele>115</ele>
        <time>2011-02-20T09:58:08Z</time>
      </trkpt>
      <trkpt lat="47.21856" lon="-0.01475">
        <ele>115</ele>
        <time>2011-02-20T09:58:13Z</time>
      </trkpt>
      <trkpt lat="47.21861" lon="-0.0148">
        <ele>115</ele>
        <time>2011-02-20T09:58:18Z</time>
      </trkpt>
      <trkpt lat="47.21865" lon="-0.01484">
        <ele>115</ele>
        <time>2011-02-20T09:58:23Z</time>
      </trkpt>
      <trkpt lat="47.2187" lon="-0.01489">
        <ele>114</ele>
        <time>2011-02-20T09:58:28Z</time>
      </trkpt>
      <trkpt lat="47.21874" lon="-0.01494">
        <ele>114</ele>
        <time>2011-02-20T09:58:33Z</time>
      </trkpt>
      <trkpt lat="47.21878" lon="-0.01498">
        <ele>114</ele>
        <time>2011-02-20T09:58:37Z</time>
      </trkpt>
      <trkpt lat="47.21882" lon="-0.01502">
        <ele>114</ele>
        <time>2011-02-20T09:58:41Z</time>
      </trkpt>
      <trkpt lat="47.21885" lon="-0.01507">
        <ele>114</ele>
        <time>2011-02-20T09:58:45Z</time>
      </trkpt>
      <trkpt lat="47.21889" lon="-0.0151">
        <ele>114</ele>
        <time>2011-02-20T09:58:49Z</time>
      </trkpt>
      <trkpt lat="47.21893" lon="-0.01513">
        <ele>114</ele>
        <time>2011-02-20T09:58:53Z</time>
      </trkpt>
      <trkpt lat="47.21897" lon="-0.01515">
        <ele>115</ele>
        <time>2011-02-20T09:58:57Z</time>
      </trkpt>
      <trkpt lat="47.21902" lon="-0.01518">
        <ele>115</ele>
        <time>2011-02-20T09:59:01Z</time>
      </trkpt>
      <trkpt lat="47.21906" lon="-0.01522">
        <ele>115</ele>
        <time>2011-02-20T09:59:05Z</time>
      </trkpt>
      <trkpt lat="47.2191" lon="-0.01525">
        <ele>115</ele>
        <time>2011-02-20T09:59:09Z</time>
      </trkpt>
      <trkpt lat="47.21914" lon="-0.01527">
        <ele>115</ele>
        <time>2011-02-20T09:59:12Z</time>
      </trkpt>
      <trkpt lat="47.2192" lon="-0.0153">
        <ele>115</ele>
        <time>2011-02-20T09:59:16Z</time>
      </trkpt>
      <trkpt lat="47.21925" lon="-0.01532">
        <ele>115</ele>
        <time>2011-02-20T09:59:20Z</time>
      </trkpt>
      <trkpt lat="47.21931" lon="-0.01533">
        <ele>115</ele>
        <time>2011-02-20T09:59:24Z</time>
      </trkpt>
      <trkpt lat="47.21936" lon="-0.01535">
        <ele>115</ele>
        <time>2011-02-20T09:59:28Z</time>
      </trkpt>
      <trkpt lat="47.21942" lon="-0.01537">
        <ele>115</ele>
        <time>2011-02-20T09:59:32Z</time>
      </trkpt>
      <trkpt lat="47.21947" lon="-0.0154">
        <ele>115</ele>
        <time>2011-02-20T09:59:36Z</time>
      </trkpt>
      <trkpt lat="47.21951" lon="-0.01543">
        <ele>115</ele>
        <time>2011-02-20T09:59:39Z</time>
      </trkpt>
      <trkpt lat="47.21955" lon="-0.01548">
        <ele>115</ele>
        <time>2011-02-20T09:59:42Z</time>
      </trkpt>
      <trkpt lat="47.2196" lon="-0.01552">
        <ele>115</ele>
        <time>2011-02-20T09:59:45Z</time>
      </trkpt>
      <trkpt lat="47.21964" lon="-0.01555">
        <ele>116</ele>
        <time>2011-02-20T09:59:48Z</time>
      </trkpt>
      <trkpt lat="47.21969" lon="-0.01556">
        <ele>116</ele>
        <time>2011-02-20T09:59:51Z</time>
      </trkpt>
      <trkpt lat="47.21973" lon="-0.01558">
        <ele>116</ele>
        <time>2011-02-20T09:59:55Z</time>
      </trkpt>
      <trkpt lat="47.21979" lon="-0.0156">
        <ele>116</ele>
        <time>2011-02-20T09:59:59Z</time>
      </trkpt>
      <trkpt lat="47.21984" lon="-0.01561">
        <ele>116</ele>
        <time>2011-02-20T10:00:03Z</time>
      </trkpt>
      <trkpt lat="47.21989" lon="-0.01563">
        <ele>116</ele>
        <time>2011-02-20T10:00:07Z</time>
      </trkpt>
      <trkpt lat="47.21993" lon="-0.01565">
        <ele>117</ele>
        <time>2011-02-20T10:00:11Z</time>
      </trkpt>
      <trkpt lat="47.21998" lon="-0.01566">
        <ele>117</ele>
        <time>2011-02-20T10:00:15Z</time>
      </trkpt>
      <trkpt lat="47.22002" lon="-0.01568">
        <ele>117</ele>
        <time>2011-02-20T10:00:19Z</time>
      </trkpt>
      <trkpt lat="47.22007" lon="-0.0157">
        <ele>117</ele>
        <time>2011-02-20T10:00:23Z</time>
      </trkpt>
      <trkpt lat="47.22012" lon="-0.01571">
        <ele>117</ele>
        <time>2011-02-20T10:00:27Z</time>
      </trkpt>
      <trkpt lat="47.22017" lon="-0.01574">
        <ele>117</ele>
        <time>2011-02-20T10:00:31Z</time>
      </trkpt>
      <trkpt lat="47.22022" lon="-0.01576">
        <ele>117</ele>
        <time>2011-02-20T10:00:35Z</time>
      </trkpt>
      <trkpt lat="47.22027" lon="-0.01578">
        <ele>118</ele>
        <time>2011-02-20T10:00:39Z</time>
      </trkpt>
      <trkpt lat="47.22032" lon="-0.0158">
        <ele>118</ele>
        <time>2011-02-20T10:00:43Z</time>
      </trkpt>
      <trkpt lat="47.22036" lon="-0.01582">
        <ele>118</ele>
        <time>2011-02-20T10:00:47Z</time>
      </trkpt>
      <trkpt lat="47.22041" lon="-0.01586">
        <ele>118</ele>
        <time>2011-02-20T10:00:51Z</time>
      </trkpt>
      <trkpt lat="47.22045" lon="-0.01589">
        <ele>118</ele>
        <time>2011-02-20T10:00:55Z</time>
      </trkpt>
      <trkpt lat="47.2205" lon="-0.01592">
        <ele>118</ele>
        <time>2011-02-20T10:01:00Z</time>
      </trkpt>
      <trkpt lat="47.22054" lon="-0.01596">
        <ele>118</ele>
        <time>2011-02-20T10:01:05Z</time>
      </trkpt>
      <trkpt lat="47.22059" lon="-0.01599">
        <ele>118</ele>
        <time>2011-02-20T10:01:09Z</time>
      </trkpt>
      <trkpt lat="47.22063" lon="-0.01602">
        <ele>118</ele>
        <time>2011-02-20T10:01:13Z</time>
      </trkpt>
      <trkpt lat="47.22067" lon="-0.01605">
        <ele>118</ele>
        <time>2011-02-20T10:01:18Z</time>
      </trkpt>
      <trkpt lat="47.22071" lon="-0.01611">
        <ele>118</ele>
        <time>2011-02-20T10:01:23Z</time>
      </trkpt>
      <trkpt lat="47.22074" lon="-0.01617">
        <ele>118</ele>
        <time>2011-02-20T10:01:28Z</time>
      </trkpt>
      <trkpt lat="47.22078" lon="-0.01622">
        <ele>118</ele>
        <time>2011-02-20T10:01:33Z</time>
      </trkpt>
      <trkpt lat="47.22082" lon="-0.01627">
        <ele>118</ele>
        <time>2011-02-20T10:01:37Z</time>
      </trkpt>
      <trkpt lat="47.22085" lon="-0.01632">
        <ele>118</ele>
        <time>2011-02-20T10:01:41Z</time>
      </trkpt>
      <trkpt lat="47.22089" lon="-0.01637">
        <ele>119</ele>
        <time>2011-02-20T10:01:45Z</time>
      </trkpt>
      <trkpt lat="47.22094" lon="-0.01642">
        <ele>119</ele>
        <time>2011-02-20T10:01:49Z</time>
      </trkpt>
      <trkpt lat="47.22098" lon="-0.01646">
        <ele>119</ele>
        <time>2011-02-20T10:01:53Z</time>
      </trkpt>
      <trkpt lat="47.22103" lon="-0.01651">
        <ele>119</ele>
        <time>2011-02-20T10:01:57Z</time>
      </trkpt>
      <trkpt lat="47.22107" lon="-0.01656">
        <ele>120</ele>
        <time>2011-02-20T10:02:01Z</time>
      </trkpt>
      <trkpt lat="47.22111" lon="-0.0166">
        <ele>120</ele>
        <time>2011-02-20T10:02:05Z</time>
      </trkpt>
      <trkpt lat="47.22115" lon="-0.01665">
        <ele>120</ele>
        <time>2011-02-20T10:02:09Z</time>
      </trkpt>
      <trkpt lat="47.22119" lon="-0.0167">
        <ele>120</ele>
        <time>2011-02-20T10:02:13Z</time>
      </trkpt>
      <trkpt lat="47.22123" lon="-0.01673">
        <ele>121</ele>
        <time>2011-02-20T10:02:17Z</time>
      </trkpt>
      <trkpt lat="47.22128" lon="-0.01676">
        <ele>121</ele>
        <time>2011-02-20T10:02:21Z</time>
      </trkpt>
      <trkpt lat="47.22134" lon="-0.01678">
        <ele>121</ele>
        <time>2011-02-20T10:02:25Z</time>
      </trkpt>
      <trkpt lat="47.22139" lon="-0.0168">
        <ele>121</ele>
        <time>2011-02-20T10:02:29Z</time>
      </trkpt>
      <trkpt lat="47.22144" lon="-0.01682">
        <ele>121</ele>
        <time>2011-02-20T10:02:33Z</time>
      </trkpt>
      <trkpt lat="47.22148" lon="-0.01684">
        <ele>122</ele>
        <time>2011-02-20T10:02:37Z</time>
      </trkpt>
      <trkpt lat="47.22153" lon="-0.01687">
        <ele>122</ele>
        <time>2011-02-20T10:02:41Z</time>
      </trkpt>
      <trkpt lat="47.22157" lon="-0.0169">
        <ele>122</ele>
        <time>2011-02-20T10:02:45Z</time>
      </trkpt>
      <trkpt lat="47.22161" lon="-0.01692">
        <ele>122</ele>
        <time>2011-02-20T10:02:49Z</time>
      </trkpt>
      <trkpt lat="47.22166" lon="-0.01694">
        <ele>122</ele>
        <time>2011-02-20T10:02:53Z</time>
      </trkpt>
      <trkpt lat="47.22171" lon="-0.01695">
        <ele>122</ele>
        <time>2011-02-20T10:02:58Z</time>
      </trkpt>
      <trkpt lat="47.22176" lon="-0.01696">
        <ele>122</ele>
        <time>2011-02-20T10:03:02Z</time>
      </trkpt>
      <trkpt lat="47.22181" lon="-0.01694">
        <ele>122</ele>
        <time>2011-02-20T10:03:12Z</time>
      </trkpt>
      <trkpt lat="47.22185" lon="-0.01696">
        <ele>122</ele>
        <time>2011-02-20T10:03:20Z</time>
      </trkpt>
      <trkpt lat="47.2219" lon="-0.01699">
        <ele>122</ele>
        <time>2011-02-20T10:03:26Z</time>
      </trkpt>
      <trkpt lat="47.22194" lon="-0.01702">
        <ele>122</ele>
        <time>2011-02-20T10:03:30Z</time>
      </trkpt>
      <trkpt lat="47.22198" lon="-0.01706">
        <ele>122</ele>
        <time>2011-02-20T10:03:34Z</time>
      </trkpt>
      <trkpt lat="47.22202" lon="-0.01711">
        <ele>122</ele>
        <time>2011-02-20T10:03:38Z</time>
      </trkpt>
      <trkpt lat="47.22205" lon="-0.01717">
        <ele>122</ele>
        <time>2011-02-20T10:03:43Z</time>
      </trkpt>
      <trkpt lat="47.22208" lon="-0.01721">
        <ele>122</ele>
        <time>2011-02-20T10:03:51Z</time>
      </trkpt>
      <trkpt lat="47.22208" lon="-0.01728">
        <ele>123</ele>
        <time>2011-02-20T10:04:06Z</time>
      </trkpt>
      <trkpt lat="47.22204" lon="-0.01734">
        <ele>123</ele>
        <time>2011-02-20T10:04:18Z</time>
      </trkpt>
      <trkpt lat="47.222" lon="-0.01739">
        <ele>123</ele>
        <time>2011-02-20T10:04:22Z</time>
      </trkpt>
      <trkpt lat="47.22196" lon="-0.01744">
        <ele>123</ele>
        <time>2011-02-20T10:04:26Z</time>
      </trkpt>
      <trkpt lat="47.22192" lon="-0.0175">
        <ele>123</ele>
        <time>2011-02-20T10:04:31Z</time>
      </trkpt>
      <trkpt lat="47.22188" lon="-0.01755">
        <ele>123</ele>
        <time>2011-02-20T10:04:35Z</time>
      </trkpt>
      <trkpt lat="47.22185" lon="-0.0176">
        <ele>123</ele>
        <time>2011-02-20T10:04:39Z</time>
      </trkpt>
      <trkpt lat="47.22181" lon="-0.01764">
        <ele>123</ele>
        <time>2011-02-20T10:04:43Z</time>
      </trkpt>
      <trkpt lat="47.22176" lon="-0.01769">
        <ele>123</ele>
        <time>2011-02-20T10:04:47Z</time>
      </trkpt>
      <trkpt lat="47.22172" lon="-0.01774">
        <ele>123</ele>
        <time>2011-02-20T10:04:51Z</time>
      </trkpt>
      <trkpt lat="47.22168" lon="-0.01779">
        <ele>123</ele>
        <time>2011-02-20T10:04:54Z</time>
      </trkpt>
      <trkpt lat="47.22164" lon="-0.01783">
        <ele>123</ele>
        <time>2011-02-20T10:04:57Z</time>
      </trkpt>
      <trkpt lat="47.2216" lon="-0.01787">
        <ele>123</ele>
        <time>2011-02-20T10:05:00Z</time>
      </trkpt>
      <trkpt lat="47.22155" lon="-0.01793">
        <ele>123</ele>
        <time>2011-02-20T10:05:04Z</time>
      </trkpt>
      <trkpt lat="47.22151" lon="-0.01799">
        <ele>123</ele>
        <time>2011-02-20T10:05:08Z</time>
      </trkpt>
      <trkpt lat="47.22147" lon="-0.01804">
        <ele>123</ele>
        <time>2011-02-20T10:05:12Z</time>
      </trkpt>
      <trkpt lat="47.22143" lon="-0.01808">
        <ele>123</ele>
        <time>2011-02-20T10:05:16Z</time>
      </trkpt>
      <trkpt lat="47.22139" lon="-0.01813">
        <ele>124</ele>
        <time>2011-02-20T10:05:20Z</time>
      </trkpt>
      <trkpt lat="47.22135" lon="-0.01818">
        <ele>124</ele>
        <time>2011-02-20T10:05:24Z</time>
      </trkpt>
      <trkpt lat="47.22132" lon="-0.01823">
        <ele>124</ele>
        <time>2011-02-20T10:05:28Z</time>
      </trkpt>
      <trkpt lat="47.22128" lon="-0.01827">
        <ele>124</ele>
        <time>2011-02-20T10:05:32Z</time>
      </trkpt>
      <trkpt lat="47.22124" lon="-0.01831">
        <ele>124</ele>
        <time>2011-02-20T10:05:36Z</time>
      </trkpt>
      <trkpt lat="47.2212" lon="-0.01836">
        <ele>124</ele>
        <time>2011-02-20T10:05:41Z</time>
      </trkpt>
      <trkpt lat="47.22118" lon="-0.01843">
        <ele>124</ele>
        <time>2011-02-20T10:05:46Z</time>
      </trkpt>
      <trkpt lat="47.22117" lon="-0.0185">
        <ele>124</ele>
        <time>2011-02-20T10:05:51Z</time>
      </trkpt>
      <trkpt lat="47.22119" lon="-0.01857">
        <ele>125</ele>
        <time>2011-02-20T10:05:58Z</time>
      </trkpt>
      <trkpt lat="47.22123" lon="-0.01861">
        <ele>125</ele>
        <time>2011-02-20T10:06:06Z</time>
      </trkpt>
      <trkpt lat="47.22127" lon="-0.01861">
        <ele>125</ele>
        <time>2011-02-20T10:07:54Z</time>
      </trkpt>
      <trkpt lat="47.22131" lon="-0.01859">
        <ele>125</ele>
        <time>2011-02-20T10:08:26Z</time>
      </trkpt>
      <trkpt lat="47.22136" lon="-0.01857">
        <ele>125</ele>
        <time>2011-02-20T10:08:41Z</time>
      </trkpt>
      <trkpt lat="47.22141" lon="-0.01856">
        <ele>125</ele>
        <time>2011-02-20T10:09:03Z</time>
      </trkpt>
      <trkpt lat="47.22147" lon="-0.01856">
        <ele>125</ele>
        <time>2011-02-20T10:09:07Z</time>
      </trkpt>
      <trkpt lat="47.22151" lon="-0.01855">
        <ele>125</ele>
        <time>2011-02-20T10:09:11Z</time>
      </trkpt>
      <trkpt lat="47.22156" lon="-0.01854">
        <ele>125</ele>
        <time>2011-02-20T10:09:15Z</time>
      </trkpt>
      <trkpt lat="47.22161" lon="-0.01853">
        <ele>125</ele>
        <time>2011-02-20T10:09:19Z</time>
      </trkpt>
      <trkpt lat="47.22165" lon="-0.01851">
        <ele>125</ele>
        <time>2011-02-20T10:09:23Z</time>
      </trkpt>
      <trkpt lat="47.2217" lon="-0.0185">
        <ele>125</ele>
        <time>2011-02-20T10:09:27Z</time>
      </trkpt>
      <trkpt lat="47.22175" lon="-0.01849">
        <ele>125</ele>
        <time>2011-02-20T10:09:31Z</time>
      </trkpt>
      <trkpt lat="47.2218" lon="-0.01847">
        <ele>125</ele>
        <time>2011-02-20T10:09:36Z</time>
      </trkpt>
      <trkpt lat="47.22185" lon="-0.01845">
        <ele>125</ele>
        <time>2011-02-20T10:09:41Z</time>
      </trkpt>
      <trkpt lat="47.2219" lon="-0.01844">
        <ele>125</ele>
        <time>2011-02-20T10:09:45Z</time>
      </trkpt>
      <trkpt lat="47.22194" lon="-0.01843">
        <ele>125</ele>
        <time>2011-02-20T10:09:49Z</time>
      </trkpt>
      <trkpt lat="47.22199" lon="-0.01842">
        <ele>125</ele>
        <time>2011-02-20T10:09:53Z</time>
      </trkpt>
      <trkpt lat="47.22203" lon="-0.01841">
        <ele>125</ele>
        <time>2011-02-20T10:09:57Z</time>
      </trkpt>
      <trkpt lat="47.22208" lon="-0.01839">
        <ele>125</ele>
        <time>2011-02-20T10:10:01Z</time>
      </trkpt>
      <trkpt lat="47.22212" lon="-0.01838">
        <ele>125</ele>
        <time>2011-02-20T10:10:05Z</time>
      </trkpt>
      <trkpt lat="47.22218" lon="-0.01837">
        <ele>125</ele>
        <time>2011-02-20T10:10:09Z</time>
      </trkpt>
      <trkpt lat="47.22222" lon="-0.01836">
        <ele>125</ele>
        <time>2011-02-20T10:10:13Z</time>
      </trkpt>
      <trkpt lat="47.22227" lon="-0.01835">
        <ele>125</ele>
        <time>2011-02-20T10:10:17Z</time>
      </trkpt>
      <trkpt lat="47.22232" lon="-0.01834">
        <ele>125</ele>
        <time>2011-02-20T10:10:22Z</time>
      </trkpt>
      <trkpt lat="47.22237" lon="-0.01832">
        <ele>125</ele>
        <time>2011-02-20T10:10:26Z</time>
      </trkpt>
      <trkpt lat="47.22241" lon="-0.01831">
        <ele>125</ele>
        <time>2011-02-20T10:10:30Z</time>
      </trkpt>
      <trkpt lat="47.22246" lon="-0.01829">
        <ele>125</ele>
        <time>2011-02-20T10:10:35Z</time>
      </trkpt>
      <trkpt lat="47.22251" lon="-0.01829">
        <ele>125</ele>
        <time>2011-02-20T10:10:39Z</time>
      </trkpt>
      <trkpt lat="47.22257" lon="-0.01829">
        <ele>125</ele>
        <time>2011-02-20T10:10:43Z</time>
      </trkpt>
      <trkpt lat="47.22262" lon="-0.01829">
        <ele>125</ele>
        <time>2011-02-20T10:10:47Z</time>
      </trkpt>
      <trkpt lat="47.22267" lon="-0.01828">
        <ele>125</ele>
        <time>2011-02-20T10:10:51Z</time>
      </trkpt>
      <trkpt lat="47.22272" lon="-0.01826">
        <ele>125</ele>
        <time>2011-02-20T10:10:55Z</time>
      </trkpt>
      <trkpt lat="47.22277" lon="-0.01824">
        <ele>125</ele>
        <time>2011-02-20T10:10:59Z</time>
      </trkpt>
      <trkpt lat="47.22282" lon="-0.01823">
        <ele>124</ele>
        <time>2011-02-20T10:11:03Z</time>
      </trkpt>
      <trkpt lat="47.22286" lon="-0.01822">
        <ele>124</ele>
        <time>2011-02-20T10:11:07Z</time>
      </trkpt>
      <trkpt lat="47.22292" lon="-0.01821">
        <ele>124</ele>
        <time>2011-02-20T10:11:12Z</time>
      </trkpt>
      <trkpt lat="47.22297" lon="-0.0182">
        <ele>124</ele>
        <time>2011-02-20T10:11:17Z</time>
      </trkpt>
      <trkpt lat="47.22302" lon="-0.01818">
        <ele>124</ele>
        <time>2011-02-20T10:11:21Z</time>
      </trkpt>
      <trkpt lat="47.22306" lon="-0.01817">
        <ele>124</ele>
        <time>2011-02-20T10:11:25Z</time>
      </trkpt>
      <trkpt lat="47.22311" lon="-0.01815">
        <ele>124</ele>
        <time>2011-02-20T10:11:29Z</time>
      </trkpt>
      <trkpt lat="47.22316" lon="-0.01814">
        <ele>124</ele>
        <time>2011-02-20T10:11:34Z</time>
      </trkpt>
      <trkpt lat="47.22321" lon="-0.01816">
        <ele>124</ele>
        <time>2011-02-20T10:11:38Z</time>
      </trkpt>
      <trkpt lat="47.22324" lon="-0.0182">
        <ele>124</ele>
        <time>2011-02-20T10:11:42Z</time>
      </trkpt>
      <trkpt lat="47.22328" lon="-0.01825">
        <ele>124</ele>
        <time>2011-02-20T10:11:46Z</time>
      </trkpt>
      <trkpt lat="47.22331" lon="-0.01829">
        <ele>125</ele>
        <time>2011-02-20T10:11:50Z</time>
      </trkpt>
      <trkpt lat="47.22335" lon="-0.01835">
        <ele>125</ele>
        <time>2011-02-20T10:11:54Z</time>
      </trkpt>
      <trkpt lat="47.22337" lon="-0.0184">
        <ele>125</ele>
        <time>2011-02-20T10:11:58Z</time>
      </trkpt>
      <trkpt lat="47.2234" lon="-0.01846">
        <ele>125</ele>
        <time>2011-02-20T10:12:02Z</time>
      </trkpt>
      <trkpt lat="47.22343" lon="-0.01851">
        <ele>125</ele>
        <time>2011-02-20T10:12:06Z</time>
      </trkpt>
      <trkpt lat="47.22346" lon="-0.01856">
        <ele>125</ele>
        <time>2011-02-20T10:12:10Z</time>
      </trkpt>
      <trkpt lat="47.2235" lon="-0.01861">
        <ele>125</ele>
        <time>2011-02-20T10:12:15Z</time>
      </trkpt>
      <trkpt lat="47.22354" lon="-0.01868">
        <ele>125</ele>
        <time>2011-02-20T10:12:20Z</time>
      </trkpt>
      <trkpt lat="47.22357" lon="-0.01874">
        <ele>125</ele>
        <time>2011-02-20T10:12:24Z</time>
      </trkpt>
      <trkpt lat="47.2236" lon="-0.0188">
        <ele>125</ele>
        <time>2011-02-20T10:12:28Z</time>
      </trkpt>
      <trkpt lat="47.22363" lon="-0.01886">
        <ele>125</ele>
        <time>2011-02-20T10:12:32Z</time>
      </trkpt>
      <trkpt lat="47.22367" lon="-0.01891">
        <ele>125</ele>
        <time>2011-02-20T10:12:36Z</time>
      </trkpt>
      <trkpt lat="47.22371" lon="-0.01896">
        <ele>125</ele>
        <time>2011-02-20T10:12:40Z</time>
      </trkpt>
      <trkpt lat="47.22375" lon="-0.01901">
        <ele>125</ele>
        <time>2011-02-20T10:12:44Z</time>
      </trkpt>
      <trkpt lat="47.22378" lon="-0.01907">
        <ele>126</ele>
        <time>2011-02-20T10:12:48Z</time>
      </trkpt>
      <trkpt lat="47.22383" lon="-0.01912">
        <ele>126</ele>
        <time>2011-02-20T10:12:52Z</time>
      </trkpt>
      <trkpt lat="47.22386" lon="-0.01917">
        <ele>126</ele>
        <time>2011-02-20T10:12:56Z</time>
      </trkpt>
      <trkpt lat="47.22389" lon="-0.01923">
        <ele>126</ele>
        <time>2011-02-20T10:13:00Z</time>
      </trkpt>
      <trkpt lat="47.22392" lon="-0.01929">
        <ele>126</ele>
        <time>2011-02-20T10:13:04Z</time>
      </trkpt>
      <trkpt lat="47.22395" lon="-0.01935">
        <ele>126</ele>
        <time>2011-02-20T10:13:08Z</time>
      </trkpt>
      <trkpt lat="47.22399" lon="-0.0194">
        <ele>126</ele>
        <time>2011-02-20T10:13:12Z</time>
      </trkpt>
      <trkpt lat="47.22402" lon="-0.01945">
        <ele>126</ele>
        <time>2011-02-20T10:13:16Z</time>
      </trkpt>
      <trkpt lat="47.22405" lon="-0.0195">
        <ele>126</ele>
        <time>2011-02-20T10:13:20Z</time>
      </trkpt>
      <trkpt lat="47.22409" lon="-0.01956">
        <ele>126</ele>
        <time>2011-02-20T10:13:24Z</time>
      </trkpt>
      <trkpt lat="47.22412" lon="-0.01961">
        <ele>126</ele>
        <time>2011-02-20T10:13:28Z</time>
      </trkpt>
      <trkpt lat="47.22415" lon="-0.01966">
        <ele>127</ele>
        <time>2011-02-20T10:13:32Z</time>
      </trkpt>
      <trkpt lat="47.22419" lon="-0.01971">
        <ele>127</ele>
        <time>2011-02-20T10:13:37Z</time>
      </trkpt>
      <trkpt lat="47.22423" lon="-0.01977">
        <ele>127</ele>
        <time>2011-02-20T10:13:42Z</time>
      </trkpt>
      <trkpt lat="47.22426" lon="-0.01982">
        <ele>127</ele>
        <time>2011-02-20T10:13:46Z</time>
      </trkpt>
      <trkpt lat="47.22429" lon="-0.01987">
        <ele>127</ele>
        <time>2011-02-20T10:13:50Z</time>
      </trkpt>
      <trkpt lat="47.22433" lon="-0.01991">
        <ele>127</ele>
        <time>2011-02-20T10:13:54Z</time>
      </trkpt>
      <trkpt lat="47.22436" lon="-0.01996">
        <ele>127</ele>
        <time>2011-02-20T10:13:58Z</time>
      </trkpt>
      <trkpt lat="47.22441" lon="-0.02">
        <ele>127</ele>
        <time>2011-02-20T10:14:03Z</time>
      </trkpt>
      <trkpt lat="47.22445" lon="-0.02005">
        <ele>127</ele>
        <time>2011-02-20T10:14:08Z</time>
      </trkpt>
      <trkpt lat="47.22449" lon="-0.02008">
        <ele>127</ele>
        <time>2011-02-20T10:14:12Z</time>
      </trkpt>
      <trkpt lat="47.22454" lon="-0.02012">
        <ele>127</ele>
        <time>2011-02-20T10:14:17Z</time>
      </trkpt>
      <trkpt lat="47.22458" lon="-0.02016">
        <ele>127</ele>
        <time>2011-02-20T10:14:21Z</time>
      </trkpt>
      <trkpt lat="47.22462" lon="-0.02019">
        <ele>127</ele>
        <time>2011-02-20T10:14:25Z</time>
      </trkpt>
      <trkpt lat="47.22466" lon="-0.02023">
        <ele>128</ele>
        <time>2011-02-20T10:14:29Z</time>
      </trkpt>
      <trkpt lat="47.22469" lon="-0.02028">
        <ele>128</ele>
        <time>2011-02-20T10:14:33Z</time>
      </trkpt>
      <trkpt lat="47.22472" lon="-0.02034">
        <ele>128</ele>
        <time>2011-02-20T10:14:37Z</time>
      </trkpt>
      <trkpt lat="47.22475" lon="-0.0204">
        <ele>128</ele>
        <time>2011-02-20T10:14:41Z</time>
      </trkpt>
      <trkpt lat="47.22478" lon="-0.02046">
        <ele>128</ele>
        <time>2011-02-20T10:14:45Z</time>
      </trkpt>
      <trkpt lat="47.22481" lon="-0.02051">
        <ele>128</ele>
        <time>2011-02-20T10:14:49Z</time>
      </trkpt>
      <trkpt lat="47.22485" lon="-0.02056">
        <ele>128</ele>
        <time>2011-02-20T10:14:54Z</time>
      </trkpt>
      <trkpt lat="47.22489" lon="-0.02061">
        <ele>128</ele>
        <time>2011-02-20T10:14:58Z</time>
      </trkpt>
      <trkpt lat="47.22492" lon="-0.02066">
        <ele>128</ele>
        <time>2011-02-20T10:15:02Z</time>
      </trkpt>
      <trkpt lat="47.22496" lon="-0.02072">
        <ele>128</ele>
        <time>2011-02-20T10:15:06Z</time>
      </trkpt>
      <trkpt lat="47.22499" lon="-0.02078">
        <ele>128</ele>
        <time>2011-02-20T10:15:10Z</time>
      </trkpt>
      <trkpt lat="47.22502" lon="-0.02083">
        <ele>128</ele>
        <time>2011-02-20T10:15:14Z</time>
      </trkpt>
      <trkpt lat="47.22505" lon="-0.02089">
        <ele>128</ele>
        <time>2011-02-20T10:15:18Z</time>
      </trkpt>
      <trkpt lat="47.22508" lon="-0.02095">
        <ele>128</ele>
        <time>2011-02-20T10:15:22Z</time>
      </trkpt>
      <trkpt lat="47.22512" lon="-0.021">
        <ele>128</ele>
        <time>2011-02-20T10:15:26Z</time>
      </trkpt>
      <trkpt lat="47.22515" lon="-0.02104">
        <ele>128</ele>
        <time>2011-02-20T10:15:30Z</time>
      </trkpt>
      <trkpt lat="47.22518" lon="-0.02109">
        <ele>129</ele>
        <time>2011-02-20T10:15:34Z</time>
      </trkpt>
      <trkpt lat="47.22522" lon="-0.02114">
        <ele>129</ele>
        <time>2011-02-20T10:15:38Z</time>
      </trkpt>
      <trkpt lat="47.22524" lon="-0.0212">
        <ele>129</ele>
        <time>2011-02-20T10:15:42Z</time>
      </trkpt>
      <trkpt lat="47.22527" lon="-0.02125">
        <ele>129</ele>
        <time>2011-02-20T10:15:46Z</time>
      </trkpt>
      <trkpt lat="47.2253" lon="-0.02131">
        <ele>129</ele>
        <time>2011-02-20T10:15:50Z</time>
      </trkpt>
      <trkpt lat="47.22532" lon="-0.02137">
        <ele>129</ele>
        <time>2011-02-20T10:15:54Z</time>
      </trkpt>
      <trkpt lat="47.22534" lon="-0.02143">
        <ele>129</ele>
        <time>2011-02-20T10:15:58Z</time>
      </trkpt>
      <trkpt lat="47.22537" lon="-0.02149">
        <ele>129</ele>
        <time>2011-02-20T10:16:02Z</time>
      </trkpt>
      <trkpt lat="47.22539" lon="-0.02155">
        <ele>129</ele>
        <time>2011-02-20T10:16:06Z</time>
      </trkpt>
      <trkpt lat="47.22542" lon="-0.02161">
        <ele>129</ele>
        <time>2011-02-20T10:16:10Z</time>
      </trkpt>
      <trkpt lat="47.22544" lon="-0.02168">
        <ele>129</ele>
        <time>2011-02-20T10:16:14Z</time>
      </trkpt>
      <trkpt lat="47.22546" lon="-0.02175">
        <ele>129</ele>
        <time>2011-02-20T10:16:18Z</time>
      </trkpt>
      <trkpt lat="47.22549" lon="-0.02181">
        <ele>129</ele>
        <time>2011-02-20T10:16:22Z</time>
      </trkpt>
      <trkpt lat="47.22552" lon="-0.02187">
        <ele>129</ele>
        <time>2011-02-20T10:16:26Z</time>
      </trkpt>
      <trkpt lat="47.22554" lon="-0.02193">
        <ele>129</ele>
        <time>2011-02-20T10:16:30Z</time>
      </trkpt>
      <trkpt lat="47.22555" lon="-0.02199">
        <ele>129</ele>
        <time>2011-02-20T10:16:34Z</time>
      </trkpt>
      <trkpt lat="47.22556" lon="-0.02207">
        <ele>129</ele>
        <time>2011-02-20T10:16:38Z</time>
      </trkpt>
      <trkpt lat="47.22557" lon="-0.02214">
        <ele>129</ele>
        <time>2011-02-20T10:16:42Z</time>
      </trkpt>
      <trkpt lat="47.22558" lon="-0.02221">
        <ele>129</ele>
        <time>2011-02-20T10:16:46Z</time>
      </trkpt>
      <trkpt lat="47.22559" lon="-0.02227">
        <ele>129</ele>
        <time>2011-02-20T10:16:50Z</time>
      </trkpt>
      <trkpt lat="47.22559" lon="-0.02235">
        <ele>129</ele>
        <time>2011-02-20T10:16:55Z</time>
      </trkpt>
      <trkpt lat="47.22561" lon="-0.02241">
        <ele>129</ele>
        <time>2011-02-20T10:17:06Z</time>
      </trkpt>
      <trkpt lat="47.22563" lon="-0.02249">
        <ele>129</ele>
        <time>2011-02-20T10:17:11Z</time>
      </trkpt>
      <trkpt lat="47.22565" lon="-0.02255">
        <ele>129</ele>
        <time>2011-02-20T10:17:17Z</time>
      </trkpt>
      <trkpt lat="47.22567" lon="-0.02261">
        <ele>129</ele>
        <time>2011-02-20T10:17:23Z</time>
      </trkpt>
      <trkpt lat="47.22568" lon="-0.02268">
        <ele>129</ele>
        <time>2011-02-20T10:17:29Z</time>
      </trkpt>
      <trkpt lat="47.2257" lon="-0.02274">
        <ele>129</ele>
        <time>2011-02-20T10:17:34Z</time>
      </trkpt>
      <trkpt lat="47.22574" lon="-0.0228">
        <ele>129</ele>
        <time>2011-02-20T10:17:38Z</time>
      </trkpt>
      <trkpt lat="47.22577" lon="-0.02285">
        <ele>129</ele>
        <time>2011-02-20T10:17:41Z</time>
      </trkpt>
      <trkpt lat="47.22581" lon="-0.02291">
        <ele>129</ele>
        <time>2011-02-20T10:17:44Z</time>
      </trkpt>
      <trkpt lat="47.22585" lon="-0.02296">
        <ele>129</ele>
        <time>2011-02-20T10:17:47Z</time>
      </trkpt>
      <trkpt lat="47.22588" lon="-0.02303">
        <ele>129</ele>
        <time>2011-02-20T10:17:50Z</time>
      </trkpt>
      <trkpt lat="47.2259" lon="-0.0231">
        <ele>129</ele>
        <time>2011-02-20T10:17:53Z</time>
      </trkpt>
      <trkpt lat="47.22593" lon="-0.02316">
        <ele>129</ele>
        <time>2011-02-20T10:17:56Z</time>
      </trkpt>
      <trkpt lat="47.22596" lon="-0.02322">
        <ele>129</ele>
        <time>2011-02-20T10:17:59Z</time>
      </trkpt>
      <trkpt lat="47.22599" lon="-0.02327">
        <ele>129</ele>
        <time>2011-02-20T10:18:02Z</time>
      </trkpt>
      <trkpt lat="47.22603" lon="-0.02333">
        <ele>129</ele>
        <time>2011-02-20T10:18:06Z</time>
      </trkpt>
      <trkpt lat="47.22607" lon="-0.02337">
        <ele>129</ele>
        <time>2011-02-20T10:18:09Z</time>
      </trkpt>
      <trkpt lat="47.22611" lon="-0.02342">
        <ele>129</ele>
        <time>2011-02-20T10:18:13Z</time>
      </trkpt>
      <trkpt lat="47.22616" lon="-0.02347">
        <ele>129</ele>
        <time>2011-02-20T10:18:17Z</time>
      </trkpt>
      <trkpt lat="47.2262" lon="-0.02351">
        <ele>129</ele>
        <time>2011-02-20T10:18:21Z</time>
      </trkpt>
      <trkpt lat="47.22624" lon="-0.02354">
        <ele>129</ele>
        <time>2011-02-20T10:18:25Z</time>
      </trkpt>
      <trkpt lat="47.22629" lon="-0.02357">
        <ele>129</ele>
        <time>2011-02-20T10:18:29Z</time>
      </trkpt>
      <trkpt lat="47.22633" lon="-0.02359">
        <ele>130</ele>
        <time>2011-02-20T10:18:33Z</time>
      </trkpt>
      <trkpt lat="47.22637" lon="-0.02363">
        <ele>130</ele>
        <time>2011-02-20T10:18:37Z</time>
      </trkpt>
      <trkpt lat="47.22641" lon="-0.02368">
        <ele>130</ele>
        <time>2011-02-20T10:18:41Z</time>
      </trkpt>
      <trkpt lat="47.22646" lon="-0.02372">
        <ele>130</ele>
        <time>2011-02-20T10:18:45Z</time>
      </trkpt>
      <trkpt lat="47.2265" lon="-0.02376">
        <ele>130</ele>
        <time>2011-02-20T10:18:49Z</time>
      </trkpt>
      <trkpt lat="47.22654" lon="-0.0238">
        <ele>130</ele>
        <time>2011-02-20T10:18:53Z</time>
      </trkpt>
      <trkpt lat="47.22658" lon="-0.02385">
        <ele>130</ele>
        <time>2011-02-20T10:18:57Z</time>
      </trkpt>
      <trkpt lat="47.22663" lon="-0.02388">
        <ele>130</ele>
        <time>2011-02-20T10:19:01Z</time>
      </trkpt>
      <trkpt lat="47.22667" lon="-0.02392">
        <ele>130</ele>
        <time>2011-02-20T10:19:05Z</time>
      </trkpt>
      <trkpt lat="47.2267" lon="-0.02398">
        <ele>130</ele>
        <time>2011-02-20T10:19:09Z</time>
      </trkpt>
      <trkpt lat="47.22674" lon="-0.02403">
        <ele>130</ele>
        <time>2011-02-20T10:19:13Z</time>
      </trkpt>
      <trkpt lat="47.22678" lon="-0.02407">
        <ele>130</ele>
        <time>2011-02-20T10:19:17Z</time>
      </trkpt>
      <trkpt lat="47.22681" lon="-0.02411">
        <ele>130</ele>
        <time>2011-02-20T10:19:21Z</time>
      </trkpt>
      <trkpt lat="47.22684" lon="-0.02416">
        <ele>130</ele>
        <time>2011-02-20T10:19:25Z</time>
      </trkpt>
      <trkpt lat="47.22688" lon="-0.0242">
        <ele>130</ele>
        <time>2011-02-20T10:19:29Z</time>
      </trkpt>
      <trkpt lat="47.22691" lon="-0.02425">
        <ele>130</ele>
        <time>2011-02-20T10:19:33Z</time>
      </trkpt>
      <trkpt lat="47.22695" lon="-0.0243">
        <ele>130</ele>
        <time>2011-02-20T10:19:38Z</time>
      </trkpt>
      <trkpt lat="47.22699" lon="-0.02435">
        <ele>130</ele>
        <time>2011-02-20T10:19:42Z</time>
      </trkpt>
      <trkpt lat="47.22702" lon="-0.0244">
        <ele>130</ele>
        <time>2011-02-20T10:19:46Z</time>
      </trkpt>
      <trkpt lat="47.22705" lon="-0.02445">
        <ele>130</ele>
        <time>2011-02-20T10:19:50Z</time>
      </trkpt>
      <trkpt lat="47.22707" lon="-0.02451">
        <ele>130</ele>
        <time>2011-02-20T10:19:54Z</time>
      </trkpt>
      <trkpt lat="47.2271" lon="-0.02457">
        <ele>130</ele>
        <time>2011-02-20T10:19:58Z</time>
      </trkpt>
      <trkpt lat="47.22713" lon="-0.02463">
        <ele>130</ele>
        <time>2011-02-20T10:20:02Z</time>
      </trkpt>
      <trkpt lat="47.22716" lon="-0.02468">
        <ele>130</ele>
        <time>2011-02-20T10:20:06Z</time>
      </trkpt>
      <trkpt lat="47.22718" lon="-0.02474">
        <ele>130</ele>
        <time>2011-02-20T10:20:10Z</time>
      </trkpt>
      <trkpt lat="47.22721" lon="-0.0248">
        <ele>130</ele>
        <time>2011-02-20T10:20:14Z</time>
      </trkpt>
      <trkpt lat="47.22723" lon="-0.02486">
        <ele>130</ele>
        <time>2011-02-20T10:20:19Z</time>
      </trkpt>
      <trkpt lat="47.22724" lon="-0.02493">
        <ele>130</ele>
        <time>2011-02-20T10:20:24Z</time>
      </trkpt>
      <trkpt lat="47.22727" lon="-0.025">
        <ele>130</ele>
        <time>2011-02-20T10:20:29Z</time>
      </trkpt>
      <trkpt lat="47.22729" lon="-0.02507">
        <ele>130</ele>
        <time>2011-02-20T10:20:34Z</time>
      </trkpt>
      <trkpt lat="47.22732" lon="-0.02513">
        <ele>130</ele>
        <time>2011-02-20T10:20:39Z</time>
      </trkpt>
      <trkpt lat="47.22736" lon="-0.02519">
        <ele>130</ele>
        <time>2011-02-20T10:20:44Z</time>
      </trkpt>
      <trkpt lat="47.22739" lon="-0.02524">
        <ele>129</ele>
        <time>2011-02-20T10:20:49Z</time>
      </trkpt>
      <trkpt lat="47.22743" lon="-0.02529">
        <ele>129</ele>
        <time>2011-02-20T10:20:54Z</time>
      </trkpt>
      <trkpt lat="47.22747" lon="-0.02533">
        <ele>129</ele>
        <time>2011-02-20T10:20:58Z</time>
      </trkpt>
      <trkpt lat="47.22751" lon="-0.02539">
        <ele>129</ele>
        <time>2011-02-20T10:21:02Z</time>
      </trkpt>
      <trkpt lat="47.22754" lon="-0.02544">
        <ele>129</ele>
        <time>2011-02-20T10:21:06Z</time>
      </trkpt>
      <trkpt lat="47.22758" lon="-0.02549">
        <ele>129</ele>
        <time>2011-02-20T10:21:10Z</time>
      </trkpt>
      <trkpt lat="47.22762" lon="-0.02554">
        <ele>129</ele>
        <time>2011-02-20T10:21:14Z</time>
      </trkpt>
      <trkpt lat="47.22766" lon="-0.02558">
        <ele>129</ele>
        <time>2011-02-20T10:21:18Z</time>
      </trkpt>
      <trkpt lat="47.2277" lon="-0.02563">
        <ele>129</ele>
        <time>2011-02-20T10:21:23Z</time>
      </trkpt>
      <trkpt lat="47.22774" lon="-0.02566">
        <ele>129</ele>
        <time>2011-02-20T10:21:27Z</time>
      </trkpt>
      <trkpt lat="47.22778" lon="-0.0257">
        <ele>129</ele>
        <time>2011-02-20T10:21:31Z</time>
      </trkpt>
      <trkpt lat="47.22781" lon="-0.02575">
        <ele>129</ele>
        <time>2011-02-20T10:21:35Z</time>
      </trkpt>
      <trkpt lat="47.22784" lon="-0.02581">
        <ele>129</ele>
        <time>2011-02-20T10:21:39Z</time>
      </trkpt>
      <trkpt lat="47.22788" lon="-0.02588">
        <ele>129</ele>
        <time>2011-02-20T10:21:43Z</time>
      </trkpt>
      <trkpt lat="47.22791" lon="-0.02594">
        <ele>129</ele>
        <time>2011-02-20T10:21:47Z</time>
      </trkpt>
      <trkpt lat="47.22794" lon="-0.02601">
        <ele>129</ele>
        <time>2011-02-20T10:21:51Z</time>
      </trkpt>
      <trkpt lat="47.22797" lon="-0.02606">
        <ele>129</ele>
        <time>2011-02-20T10:21:55Z</time>
      </trkpt>
      <trkpt lat="47.228" lon="-0.02611">
        <ele>129</ele>
        <time>2011-02-20T10:21:59Z</time>
      </trkpt>
      <trkpt lat="47.22803" lon="-0.02617">
        <ele>129</ele>
        <time>2011-02-20T10:22:03Z</time>
      </trkpt>
      <trkpt lat="47.22806" lon="-0.02623">
        <ele>129</ele>
        <time>2011-02-20T10:22:07Z</time>
      </trkpt>
      <trkpt lat="47.22808" lon="-0.02629">
        <ele>129</ele>
        <time>2011-02-20T10:22:11Z</time>
      </trkpt>
      <trkpt lat="47.22811" lon="-0.02636">
        <ele>129</ele>
        <time>2011-02-20T10:22:15Z</time>
      </trkpt>
      <trkpt lat="47.22813" lon="-0.02642">
        <ele>129</ele>
        <time>2011-02-20T10:22:19Z</time>
      </trkpt>
      <trkpt lat="47.22815" lon="-0.02649">
        <ele>129</ele>
        <time>2011-02-20T10:22:23Z</time>
      </trkpt>
      <trkpt lat="47.22818" lon="-0.02655">
        <ele>129</ele>
        <time>2011-02-20T10:22:27Z</time>
      </trkpt>
      <trkpt lat="47.22821" lon="-0.02661">
        <ele>129</ele>
        <time>2011-02-20T10:22:31Z</time>
      </trkpt>
      <trkpt lat="47.22824" lon="-0.02666">
        <ele>129</ele>
        <time>2011-02-20T10:22:35Z</time>
      </trkpt>
      <trkpt lat="47.22827" lon="-0.02671">
        <ele>129</ele>
        <time>2011-02-20T10:22:39Z</time>
      </trkpt>
      <trkpt lat="47.2283" lon="-0.02677">
        <ele>129</ele>
        <time>2011-02-20T10:22:43Z</time>
      </trkpt>
      <trkpt lat="47.22833" lon="-0.02683">
        <ele>129</ele>
        <time>2011-02-20T10:22:47Z</time>
      </trkpt>
      <trkpt lat="47.22836" lon="-0.02688">
        <ele>129</ele>
        <time>2011-02-20T10:22:51Z</time>
      </trkpt>
      <trkpt lat="47.22838" lon="-0.02694">
        <ele>129</ele>
        <time>2011-02-20T10:22:55Z</time>
      </trkpt>
      <trkpt lat="47.2284" lon="-0.027">
        <ele>129</ele>
        <time>2011-02-20T10:22:59Z</time>
      </trkpt>
      <trkpt lat="47.22842" lon="-0.02707">
        <ele>129</ele>
        <time>2011-02-20T10:23:03Z</time>
      </trkpt>
      <trkpt lat="47.22844" lon="-0.02713">
        <ele>129</ele>
        <time>2011-02-20T10:23:07Z</time>
      </trkpt>
      <trkpt lat="47.22846" lon="-0.0272">
        <ele>129</ele>
        <time>2011-02-20T10:23:11Z</time>
      </trkpt>
      <trkpt lat="47.22849" lon="-0.02727">
        <ele>129</ele>
        <time>2011-02-20T10:23:15Z</time>
      </trkpt>
      <trkpt lat="47.22852" lon="-0.02734">
        <ele>129</ele>
        <time>2011-02-20T10:23:19Z</time>
      </trkpt>
      <trkpt lat="47.22855" lon="-0.02741">
        <ele>129</ele>
        <time>2011-02-20T10:23:23Z</time>
      </trkpt>
      <trkpt lat="47.22857" lon="-0.02747">
        <ele>129</ele>
        <time>2011-02-20T10:23:27Z</time>
      </trkpt>
      <trkpt lat="47.2286" lon="-0.02753">
        <ele>129</ele>
        <time>2011-02-20T10:23:32Z</time>
      </trkpt>
      <trkpt lat="47.22863" lon="-0.02759">
        <ele>129</ele>
        <time>2011-02-20T10:23:37Z</time>
      </trkpt>
      <trkpt lat="47.22866" lon="-0.02765">
        <ele>129</ele>
        <time>2011-02-20T10:23:42Z</time>
      </trkpt>
      <trkpt lat="47.22868" lon="-0.02773">
        <ele>129</ele>
        <time>2011-02-20T10:23:47Z</time>
      </trkpt>
      <trkpt lat="47.22869" lon="-0.0278">
        <ele>129</ele>
        <time>2011-02-20T10:23:53Z</time>
      </trkpt>
      <trkpt lat="47.22866" lon="-0.02786">
        <ele>129</ele>
        <time>2011-02-20T10:24:03Z</time>
      </trkpt>
      <trkpt lat="47.22862" lon="-0.02789">
        <ele>129</ele>
        <time>2011-02-20T10:24:08Z</time>
      </trkpt>
      <trkpt lat="47.22858" lon="-0.02793">
        <ele>129</ele>
        <time>2011-02-20T10:24:12Z</time>
      </trkpt>
      <trkpt lat="47.22853" lon="-0.02796">
        <ele>129</ele>
        <time>2011-02-20T10:24:16Z</time>
      </trkpt>
      <trkpt lat="47.22847" lon="-0.02798">
        <ele>128</ele>
        <time>2011-02-20T10:24:20Z</time>
      </trkpt>
      <trkpt lat="47.22842" lon="-0.028">
        <ele>128</ele>
        <time>2011-02-20T10:24:24Z</time>
      </trkpt>
      <trkpt lat="47.22837" lon="-0.02802">
        <ele>128</ele>
        <time>2011-02-20T10:24:28Z</time>
      </trkpt>
      <trkpt lat="47.22831" lon="-0.02802">
        <ele>128</ele>
        <time>2011-02-20T10:24:31Z</time>
      </trkpt>
      <trkpt lat="47.22826" lon="-0.02799">
        <ele>128</ele>
        <time>2011-02-20T10:24:35Z</time>
      </trkpt>
      <trkpt lat="47.22822" lon="-0.02797">
        <ele>128</ele>
        <time>2011-02-20T10:24:38Z</time>
      </trkpt>
      <trkpt lat="47.22817" lon="-0.02795">
        <ele>128</ele>
        <time>2011-02-20T10:24:41Z</time>
      </trkpt>
      <trkpt lat="47.22813" lon="-0.02795">
        <ele>128</ele>
        <time>2011-02-20T10:24:44Z</time>
      </trkpt>
      <trkpt lat="47.22807" lon="-0.02795">
        <ele>128</ele>
        <time>2011-02-20T10:24:48Z</time>
      </trkpt>
      <trkpt lat="47.22801" lon="-0.02796">
        <ele>128</ele>
        <time>2011-02-20T10:24:52Z</time>
      </trkpt>
      <trkpt lat="47.22796" lon="-0.02796">
        <ele>127</ele>
        <time>2011-02-20T10:24:56Z</time>
      </trkpt>
      <trkpt lat="47.22791" lon="-0.02796">
        <ele>127</ele>
        <time>2011-02-20T10:25:00Z</time>
      </trkpt>
      <trkpt lat="47.22786" lon="-0.02797">
        <ele>127</ele>
        <time>2011-02-20T10:25:04Z</time>
      </trkpt>
      <trkpt lat="47.2278" lon="-0.02798">
        <ele>127</ele>
        <time>2011-02-20T10:25:08Z</time>
      </trkpt>
      <trkpt lat="47.22774" lon="-0.02798">
        <ele>127</ele>
        <time>2011-02-20T10:25:12Z</time>
      </trkpt>
      <trkpt lat="47.22769" lon="-0.02796">
        <ele>127</ele>
        <time>2011-02-20T10:25:16Z</time>
      </trkpt>
      <trkpt lat="47.22764" lon="-0.02793">
        <ele>127</ele>
        <time>2011-02-20T10:25:20Z</time>
      </trkpt>
      <trkpt lat="47.22759" lon="-0.02793">
        <ele>127</ele>
        <time>2011-02-20T10:25:24Z</time>
      </trkpt>
      <trkpt lat="47.22754" lon="-0.02794">
        <ele>127</ele>
        <time>2011-02-20T10:25:28Z</time>
      </trkpt>
      <trkpt lat="47.22749" lon="-0.02795">
        <ele>127</ele>
        <time>2011-02-20T10:25:32Z</time>
      </trkpt>
      <trkpt lat="47.22743" lon="-0.02795">
        <ele>127</ele>
        <time>2011-02-20T10:25:36Z</time>
      </trkpt>
      <trkpt lat="47.22738" lon="-0.02794">
        <ele>127</ele>
        <time>2011-02-20T10:25:40Z</time>
      </trkpt>
      <trkpt lat="47.22733" lon="-0.02793">
        <ele>127</ele>
        <time>2011-02-20T10:25:44Z</time>
      </trkpt>
      <trkpt lat="47.22727" lon="-0.02793">
        <ele>128</ele>
        <time>2011-02-20T10:25:48Z</time>
      </trkpt>
      <trkpt lat="47.22723" lon="-0.02792">
        <ele>128</ele>
        <time>2011-02-20T10:25:52Z</time>
      </trkpt>
      <trkpt lat="47.22718" lon="-0.02791">
        <ele>128</ele>
        <time>2011-02-20T10:25:56Z</time>
      </trkpt>
      <trkpt lat="47.22713" lon="-0.02791">
        <ele>128</ele>
        <time>2011-02-20T10:26:00Z</time>
      </trkpt>
      <trkpt lat="47.22709" lon="-0.02792">
        <ele>128</ele>
        <time>2011-02-20T10:26:04Z</time>
      </trkpt>
      <trkpt lat="47.22704" lon="-0.02794">
        <ele>128</ele>
        <time>2011-02-20T10:26:08Z</time>
      </trkpt>
      <trkpt lat="47.227" lon="-0.02795">
        <ele>128</ele>
        <time>2011-02-20T10:26:12Z</time>
      </trkpt>
      <trkpt lat="47.22695" lon="-0.02796">
        <ele>128</ele>
        <time>2011-02-20T10:26:16Z</time>
      </trkpt>
      <trkpt lat="47.2269" lon="-0.02799">
        <ele>128</ele>
        <time>2011-02-20T10:26:21Z</time>
      </trkpt>
      <trkpt lat="47.22685" lon="-0.02802">
        <ele>128</ele>
        <time>2011-02-20T10:26:26Z</time>
      </trkpt>
      <trkpt lat="47.2268" lon="-0.02805">
        <ele>128</ele>
        <time>2011-02-20T10:26:31Z</time>
      </trkpt>
      <trkpt lat="47.22676" lon="-0.02809">
        <ele>128</ele>
        <time>2011-02-20T10:26:36Z</time>
      </trkpt>
      <trkpt lat="47.22674" lon="-0.02815">
        <ele>128</ele>
        <time>2011-02-20T10:26:40Z</time>
      </trkpt>
      <trkpt lat="47.22673" lon="-0.02823">
        <ele>128</ele>
        <time>2011-02-20T10:26:45Z</time>
      </trkpt>
      <trkpt lat="47.22672" lon="-0.0283">
        <ele>128</ele>
        <time>2011-02-20T10:26:50Z</time>
      </trkpt>
      <trkpt lat="47.22671" lon="-0.02838">
        <ele>128</ele>
        <time>2011-02-20T10:26:55Z</time>
      </trkpt>
      <trkpt lat="47.2267" lon="-0.02845">
        <ele>128</ele>
        <time>2011-02-20T10:26:59Z</time>
      </trkpt>
      <trkpt lat="47.22668" lon="-0.02852">
        <ele>129</ele>
        <time>2011-02-20T10:27:03Z</time>
      </trkpt>
      <trkpt lat="47.22666" lon="-0.02859">
        <ele>129</ele>
        <time>2011-02-20T10:27:07Z</time>
      </trkpt>
      <trkpt lat="47.22665" lon="-0.02866">
        <ele>129</ele>
        <time>2011-02-20T10:27:11Z</time>
      </trkpt>
      <trkpt lat="47.22664" lon="-0.02874">
        <ele>129</ele>
        <time>2011-02-20T10:27:15Z</time>
      </trkpt>
      <trkpt lat="47.22662" lon="-0.02881">
        <ele>129</ele>
        <time>2011-02-20T10:27:19Z</time>
      </trkpt>
      <trkpt lat="47.2266" lon="-0.02888">
        <ele>129</ele>
        <time>2011-02-20T10:27:23Z</time>
      </trkpt>
      <trkpt lat="47.22659" lon="-0.02894">
        <ele>129</ele>
        <time>2011-02-20T10:27:27Z</time>
      </trkpt>
      <trkpt lat="47.22657" lon="-0.02901">
        <ele>129</ele>
        <time>2011-02-20T10:27:31Z</time>
      </trkpt>
      <trkpt lat="47.22656" lon="-0.02908">
        <ele>129</ele>
        <time>2011-02-20T10:27:35Z</time>
      </trkpt>
      <trkpt lat="47.22655" lon="-0.02915">
        <ele>129</ele>
        <time>2011-02-20T10:27:39Z</time>
      </trkpt>
      <trkpt lat="47.22654" lon="-0.02922">
        <ele>129</ele>
        <time>2011-02-20T10:27:43Z</time>
      </trkpt>
      <trkpt lat="47.22653" lon="-0.02929">
        <ele>129</ele>
        <time>2011-02-20T10:27:47Z</time>
      </trkpt>
      <trkpt lat="47.22652" lon="-0.02937">
        <ele>129</ele>
        <time>2011-02-20T10:27:54Z</time>
      </trkpt>
      <trkpt lat="47.22652" lon="-0.02945">
        <ele>129</ele>
        <time>2011-02-20T10:27:59Z</time>
      </trkpt>
      <trkpt lat="47.2265" lon="-0.02952">
        <ele>129</ele>
        <time>2011-02-20T10:28:03Z</time>
      </trkpt>
      <trkpt lat="47.22648" lon="-0.02959">
        <ele>130</ele>
        <time>2011-02-20T10:28:07Z</time>
      </trkpt>
      <trkpt lat="47.22646" lon="-0.02966">
        <ele>130</ele>
        <time>2011-02-20T10:28:11Z</time>
      </trkpt>
      <trkpt lat="47.22645" lon="-0.02973">
        <ele>129</ele>
        <time>2011-02-20T10:28:15Z</time>
      </trkpt>
      <trkpt lat="47.22644" lon="-0.02981">
        <ele>129</ele>
        <time>2011-02-20T10:28:19Z</time>
      </trkpt>
      <trkpt lat="47.22643" lon="-0.02988">
        <ele>129</ele>
        <time>2011-02-20T10:28:23Z</time>
      </trkpt>
      <trkpt lat="47.22643" lon="-0.02994">
        <ele>129</ele>
        <time>2011-02-20T10:28:27Z</time>
      </trkpt>
      <trkpt lat="47.22643" lon="-0.03002">
        <ele>129</ele>
        <time>2011-02-20T10:28:32Z</time>
      </trkpt>
      <trkpt lat="47.22643" lon="-0.03009">
        <ele>129</ele>
        <time>2011-02-20T10:28:36Z</time>
      </trkpt>
      <trkpt lat="47.22644" lon="-0.03016">
        <ele>129</ele>
        <time>2011-02-20T10:28:40Z</time>
      </trkpt>
      <trkpt lat="47.22644" lon="-0.03023">
        <ele>129</ele>
        <time>2011-02-20T10:28:44Z</time>
      </trkpt>
      <trkpt lat="47.22645" lon="-0.0303">
        <ele>129</ele>
        <time>2011-02-20T10:28:48Z</time>
      </trkpt>
      <trkpt lat="47.22645" lon="-0.03037">
        <ele>129</ele>
        <time>2011-02-20T10:28:52Z</time>
      </trkpt>
      <trkpt lat="47.22645" lon="-0.03044">
        <ele>130</ele>
        <time>2011-02-20T10:28:56Z</time>
      </trkpt>
      <trkpt lat="47.22645" lon="-0.03051">
        <ele>130</ele>
        <time>2011-02-20T10:29:00Z</time>
      </trkpt>
      <trkpt lat="47.22645" lon="-0.03058">
        <ele>130</ele>
        <time>2011-02-20T10:29:04Z</time>
      </trkpt>
      <trkpt lat="47.22645" lon="-0.03065">
        <ele>130</ele>
        <time>2011-02-20T10:29:08Z</time>
      </trkpt>
      <trkpt lat="47.22646" lon="-0.03073">
        <ele>130</ele>
        <time>2011-02-20T10:29:12Z</time>
      </trkpt>
      <trkpt lat="47.22646" lon="-0.0308">
        <ele>130</ele>
        <time>2011-02-20T10:29:16Z</time>
      </trkpt>
      <trkpt lat="47.22646" lon="-0.03087">
        <ele>130</ele>
        <time>2011-02-20T10:29:20Z</time>
      </trkpt>
      <trkpt lat="47.22644" lon="-0.03094">
        <ele>130</ele>
        <time>2011-02-20T10:29:24Z</time>
      </trkpt>
      <trkpt lat="47.22642" lon="-0.03101">
        <ele>130</ele>
        <time>2011-02-20T10:29:28Z</time>
      </trkpt>
      <trkpt lat="47.2264" lon="-0.03107">
        <ele>130</ele>
        <time>2011-02-20T10:29:32Z</time>
      </trkpt>
      <trkpt lat="47.22635" lon="-0.03112">
        <ele>130</ele>
        <time>2011-02-20T10:29:37Z</time>
      </trkpt>
      <trkpt lat="47.2263" lon="-0.03114">
        <ele>130</ele>
        <time>2011-02-20T10:29:42Z</time>
      </trkpt>
      <trkpt lat="47.22625" lon="-0.03114">
        <ele>130</ele>
        <time>2011-02-20T10:29:54Z</time>
      </trkpt>
      <trkpt lat="47.2262" lon="-0.03115">
        <ele>130</ele>
        <time>2011-02-20T10:29:59Z</time>
      </trkpt>
      <trkpt lat="47.22615" lon="-0.03117">
        <ele>130</ele>
        <time>2011-02-20T10:30:04Z</time>
      </trkpt>
      <trkpt lat="47.2261" lon="-0.0312">
        <ele>130</ele>
        <time>2011-02-20T10:30:09Z</time>
      </trkpt>
      <trkpt lat="47.22605" lon="-0.03122">
        <ele>129</ele>
        <time>2011-02-20T10:30:14Z</time>
      </trkpt>
      <trkpt lat="47.22601" lon="-0.03125">
        <ele>129</ele>
        <time>2011-02-20T10:30:19Z</time>
      </trkpt>
      <trkpt lat="47.22597" lon="-0.0313">
        <ele>129</ele>
        <time>2011-02-20T10:30:24Z</time>
      </trkpt>
      <trkpt lat="47.22593" lon="-0.03136">
        <ele>129</ele>
        <time>2011-02-20T10:30:29Z</time>
      </trkpt>
      <trkpt lat="47.2259" lon="-0.03142">
        <ele>129</ele>
        <time>2011-02-20T10:30:35Z</time>
      </trkpt>
      <trkpt lat="47.22591" lon="-0.03148">
        <ele>129</ele>
        <time>2011-02-20T10:31:12Z</time>
      </trkpt>
      <trkpt lat="47.22589" lon="-0.03154">
        <ele>130</ele>
        <time>2011-02-20T10:31:55Z</time>
      </trkpt>
      <trkpt lat="47.22587" lon="-0.03161">
        <ele>129</ele>
        <time>2011-02-20T10:32:00Z</time>
      </trkpt>
      <trkpt lat="47.22586" lon="-0.03168">
        <ele>129</ele>
        <time>2011-02-20T10:32:05Z</time>
      </trkpt>
      <trkpt lat="47.22584" lon="-0.03175">
        <ele>129</ele>
        <time>2011-02-20T10:32:09Z</time>
      </trkpt>
      <trkpt lat="47.22582" lon="-0.03181">
        <ele>128</ele>
        <time>2011-02-20T10:32:13Z</time>
      </trkpt>
      <trkpt lat="47.22581" lon="-0.03188">
        <ele>128</ele>
        <time>2011-02-20T10:32:17Z</time>
      </trkpt>
      <trkpt lat="47.22579" lon="-0.03195">
        <ele>128</ele>
        <time>2011-02-20T10:32:21Z</time>
      </trkpt>
      <trkpt lat="47.22577" lon="-0.03202">
        <ele>128</ele>
        <time>2011-02-20T10:32:25Z</time>
      </trkpt>
      <trkpt lat="47.22575" lon="-0.03208">
        <ele>128</ele>
        <time>2011-02-20T10:32:29Z</time>
      </trkpt>
      <trkpt lat="47.22574" lon="-0.03215">
        <ele>128</ele>
        <time>2011-02-20T10:32:33Z</time>
      </trkpt>
      <trkpt lat="47.22572" lon="-0.03222">
        <ele>127</ele>
        <time>2011-02-20T10:32:37Z</time>
      </trkpt>
      <trkpt lat="47.22571" lon="-0.03229">
        <ele>127</ele>
        <time>2011-02-20T10:32:41Z</time>
      </trkpt>
      <trkpt lat="47.22569" lon="-0.03235">
        <ele>127</ele>
        <time>2011-02-20T10:32:45Z</time>
      </trkpt>
      <trkpt lat="47.22568" lon="-0.03242">
        <ele>127</ele>
        <time>2011-02-20T10:32:49Z</time>
      </trkpt>
      <trkpt lat="47.22566" lon="-0.03249">
        <ele>127</ele>
        <time>2011-02-20T10:32:53Z</time>
      </trkpt>
      <trkpt lat="47.22564" lon="-0.03256">
        <ele>127</ele>
        <time>2011-02-20T10:32:57Z</time>
      </trkpt>
      <trkpt lat="47.22562" lon="-0.03262">
        <ele>127</ele>
        <time>2011-02-20T10:33:01Z</time>
      </trkpt>
      <trkpt lat="47.2256" lon="-0.03269">
        <ele>127</ele>
        <time>2011-02-20T10:33:05Z</time>
      </trkpt>
      <trkpt lat="47.22558" lon="-0.03275">
        <ele>126</ele>
        <time>2011-02-20T10:33:09Z</time>
      </trkpt>
      <trkpt lat="47.22556" lon="-0.03282">
        <ele>126</ele>
        <time>2011-02-20T10:33:13Z</time>
      </trkpt>
      <trkpt lat="47.22553" lon="-0.03288">
        <ele>126</ele>
        <time>2011-02-20T10:33:17Z</time>
      </trkpt>
      <trkpt lat="47.2255" lon="-0.03295">
        <ele>126</ele>
        <time>2011-02-20T10:33:21Z</time>
      </trkpt>
      <trkpt lat="47.22548" lon="-0.03301">
        <ele>126</ele>
        <time>2011-02-20T10:33:25Z</time>
      </trkpt>
      <trkpt lat="47.22545" lon="-0.03306">
        <ele>126</ele>
        <time>2011-02-20T10:33:29Z</time>
      </trkpt>
      <trkpt lat="47.2254" lon="-0.03311">
        <ele>125</ele>
        <time>2011-02-20T10:33:33Z</time>
      </trkpt>
      <trkpt lat="47.22536" lon="-0.03316">
        <ele>125</ele>
        <time>2011-02-20T10:33:37Z</time>
      </trkpt>
      <trkpt lat="47.22532" lon="-0.0332">
        <ele>125</ele>
        <time>2011-02-20T10:33:41Z</time>
      </trkpt>
      <trkpt lat="47.22528" lon="-0.03324">
        <ele>125</ele>
        <time>2011-02-20T10:33:45Z</time>
      </trkpt>
      <trkpt lat="47.22523" lon="-0.03328">
        <ele>125</ele>
        <time>2011-02-20T10:33:49Z</time>
      </trkpt>
      <trkpt lat="47.22518" lon="-0.03331">
        <ele>125</ele>
        <time>2011-02-20T10:33:53Z</time>
      </trkpt>
      <trkpt lat="47.22514" lon="-0.03335">
        <ele>125</ele>
        <time>2011-02-20T10:33:57Z</time>
      </trkpt>
      <trkpt lat="47.22509" lon="-0.03338">
        <ele>125</ele>
        <time>2011-02-20T10:34:01Z</time>
      </trkpt>
      <trkpt lat="47.22505" lon="-0.03341">
        <ele>125</ele>
        <time>2011-02-20T10:34:05Z</time>
      </trkpt>
      <trkpt lat="47.225" lon="-0.03344">
        <ele>125</ele>
        <time>2011-02-20T10:34:09Z</time>
      </trkpt>
      <trkpt lat="47.22496" lon="-0.03347">
        <ele>125</ele>
        <time>2011-02-20T10:34:13Z</time>
      </trkpt>
      <trkpt lat="47.22492" lon="-0.03351">
        <ele>124</ele>
        <time>2011-02-20T10:34:17Z</time>
      </trkpt>
      <trkpt lat="47.22489" lon="-0.03357">
        <ele>124</ele>
        <time>2011-02-20T10:34:21Z</time>
      </trkpt>
      <trkpt lat="47.22486" lon="-0.03363">
        <ele>124</ele>
        <time>2011-02-20T10:34:25Z</time>
      </trkpt>
      <trkpt lat="47.22484" lon="-0.0337">
        <ele>124</ele>
        <time>2011-02-20T10:34:30Z</time>
      </trkpt>
      <trkpt lat="47.22482" lon="-0.03376">
        <ele>124</ele>
        <time>2011-02-20T10:34:38Z</time>
      </trkpt>
      <trkpt lat="47.2248" lon="-0.03382">
        <ele>124</ele>
        <time>2011-02-20T10:34:43Z</time>
      </trkpt>
      <trkpt lat="47.22478" lon="-0.03388">
        <ele>124</ele>
        <time>2011-02-20T10:34:48Z</time>
      </trkpt>
      <trkpt lat="47.22475" lon="-0.03395">
        <ele>124</ele>
        <time>2011-02-20T10:34:52Z</time>
      </trkpt>
      <trkpt lat="47.22473" lon="-0.03401">
        <ele>124</ele>
        <time>2011-02-20T10:34:56Z</time>
      </trkpt>
      <trkpt lat="47.2247" lon="-0.03407">
        <ele>124</ele>
        <time>2011-02-20T10:34:59Z</time>
      </trkpt>
      <trkpt lat="47.22468" lon="-0.03414">
        <ele>124</ele>
        <time>2011-02-20T10:35:05Z</time>
      </trkpt>
      <trkpt lat="47.22465" lon="-0.0342">
        <ele>124</ele>
        <time>2011-02-20T10:35:10Z</time>
      </trkpt>
      <trkpt lat="47.22461" lon="-0.03427">
        <ele>124</ele>
        <time>2011-02-20T10:35:14Z</time>
      </trkpt>
      <trkpt lat="47.22458" lon="-0.03432">
        <ele>123</ele>
        <time>2011-02-20T10:35:17Z</time>
      </trkpt>
      <trkpt lat="47.22454" lon="-0.03436">
        <ele>123</ele>
        <time>2011-02-20T10:35:20Z</time>
      </trkpt>
      <trkpt lat="47.22451" lon="-0.03441">
        <ele>123</ele>
        <time>2011-02-20T10:35:23Z</time>
      </trkpt>
      <trkpt lat="47.22447" lon="-0.03446">
        <ele>123</ele>
        <time>2011-02-20T10:35:26Z</time>
      </trkpt>
      <trkpt lat="47.22443" lon="-0.0345">
        <ele>123</ele>
        <time>2011-02-20T10:35:29Z</time>
      </trkpt>
      <trkpt lat="47.22439" lon="-0.03455">
        <ele>123</ele>
        <time>2011-02-20T10:35:32Z</time>
      </trkpt>
      <trkpt lat="47.22436" lon="-0.0346">
        <ele>123</ele>
        <time>2011-02-20T10:35:35Z</time>
      </trkpt>
      <trkpt lat="47.22433" lon="-0.03465">
        <ele>123</ele>
        <time>2011-02-20T10:35:38Z</time>
      </trkpt>
      <trkpt lat="47.22429" lon="-0.03472">
        <ele>123</ele>
        <time>2011-02-20T10:35:42Z</time>
      </trkpt>
      <trkpt lat="47.22425" lon="-0.03478">
        <ele>123</ele>
        <time>2011-02-20T10:35:46Z</time>
      </trkpt>
      <trkpt lat="47.22421" lon="-0.03485">
        <ele>123</ele>
        <time>2011-02-20T10:35:50Z</time>
      </trkpt>
      <trkpt lat="47.22418" lon="-0.03491">
        <ele>123</ele>
        <time>2011-02-20T10:35:54Z</time>
      </trkpt>
      <trkpt lat="47.22415" lon="-0.03497">
        <ele>123</ele>
        <time>2011-02-20T10:35:58Z</time>
      </trkpt>
      <trkpt lat="47.22412" lon="-0.03503">
        <ele>123</ele>
        <time>2011-02-20T10:36:02Z</time>
      </trkpt>
      <trkpt lat="47.22408" lon="-0.03509">
        <ele>123</ele>
        <time>2011-02-20T10:36:06Z</time>
      </trkpt>
      <trkpt lat="47.22404" lon="-0.03514">
        <ele>123</ele>
        <time>2011-02-20T10:36:10Z</time>
      </trkpt>
      <trkpt lat="47.22399" lon="-0.03519">
        <ele>122</ele>
        <time>2011-02-20T10:36:14Z</time>
      </trkpt>
      <trkpt lat="47.22394" lon="-0.03524">
        <ele>122</ele>
        <time>2011-02-20T10:36:18Z</time>
      </trkpt>
      <trkpt lat="47.2239" lon="-0.03529">
        <ele>122</ele>
        <time>2011-02-20T10:36:22Z</time>
      </trkpt>
      <trkpt lat="47.22385" lon="-0.03533">
        <ele>122</ele>
        <time>2011-02-20T10:36:26Z</time>
      </trkpt>
      <trkpt lat="47.22381" lon="-0.03537">
        <ele>122</ele>
        <time>2011-02-20T10:36:30Z</time>
      </trkpt>
      <trkpt lat="47.22376" lon="-0.03541">
        <ele>122</ele>
        <time>2011-02-20T10:36:34Z</time>
      </trkpt>
      <trkpt lat="47.22372" lon="-0.03545">
        <ele>122</ele>
        <time>2011-02-20T10:36:38Z</time>
      </trkpt>
      <trkpt lat="47.22369" lon="-0.0355">
        <ele>122</ele>
        <time>2011-02-20T10:36:42Z</time>
      </trkpt>
      <trkpt lat="47.22366" lon="-0.03555">
        <ele>122</ele>
        <time>2011-02-20T10:36:46Z</time>
      </trkpt>
      <trkpt lat="47.22363" lon="-0.03561">
        <ele>122</ele>
        <time>2011-02-20T10:36:50Z</time>
      </trkpt>
      <trkpt lat="47.22359" lon="-0.03567">
        <ele>122</ele>
        <time>2011-02-20T10:36:54Z</time>
      </trkpt>
      <trkpt lat="47.22356" lon="-0.03573">
        <ele>122</ele>
        <time>2011-02-20T10:36:58Z</time>
      </trkpt>
      <trkpt lat="47.22354" lon="-0.03579">
        <ele>121</ele>
        <time>2011-02-20T10:37:02Z</time>
      </trkpt>
      <trkpt lat="47.22351" lon="-0.03585">
        <ele>121</ele>
        <time>2011-02-20T10:37:06Z</time>
      </trkpt>
      <trkpt lat="47.22348" lon="-0.03591">
        <ele>121</ele>
        <time>2011-02-20T10:37:10Z</time>
      </trkpt>
      <trkpt lat="47.22345" lon="-0.03597">
        <ele>121</ele>
        <time>2011-02-20T10:37:14Z</time>
      </trkpt>
      <trkpt lat="47.22342" lon="-0.03603">
        <ele>121</ele>
        <time>2011-02-20T10:37:18Z</time>
      </trkpt>
      <trkpt lat="47.22339" lon="-0.03608">
        <ele>121</ele>
        <time>2011-02-20T10:37:22Z</time>
      </trkpt>
      <trkpt lat="47.22336" lon="-0.03613">
        <ele>121</ele>
        <time>2011-02-20T10:37:26Z</time>
      </trkpt>
      <trkpt lat="47.22333" lon="-0.03619">
        <ele>121</ele>
        <time>2011-02-20T10:37:30Z</time>
      </trkpt>
      <trkpt lat="47.2233" lon="-0.03625">
        <ele>121</ele>
        <time>2011-02-20T10:37:34Z</time>
      </trkpt>
      <trkpt lat="47.22328" lon="-0.03632">
        <ele>121</ele>
        <time>2011-02-20T10:37:38Z</time>
      </trkpt>
      <trkpt lat="47.22326" lon="-0.03639">
        <ele>121</ele>
        <time>2011-02-20T10:37:42Z</time>
      </trkpt>
      <trkpt lat="47.22325" lon="-0.03646">
        <ele>120</ele>
        <time>2011-02-20T10:37:46Z</time>
      </trkpt>
      <trkpt lat="47.22323" lon="-0.03653">
        <ele>120</ele>
        <time>2011-02-20T10:37:50Z</time>
      </trkpt>
      <trkpt lat="47.22322" lon="-0.03661">
        <ele>120</ele>
        <time>2011-02-20T10:37:54Z</time>
      </trkpt>
      <trkpt lat="47.2232" lon="-0.03668">
        <ele>120</ele>
        <time>2011-02-20T10:37:58Z</time>
      </trkpt>
      <trkpt lat="47.22319" lon="-0.03677">
        <ele>120</ele>
        <time>2011-02-20T10:38:02Z</time>
      </trkpt>
      <trkpt lat="47.22318" lon="-0.03683">
        <ele>120</ele>
        <time>2011-02-20T10:38:05Z</time>
      </trkpt>
      <trkpt lat="47.22318" lon="-0.0369">
        <ele>120</ele>
        <time>2011-02-20T10:38:08Z</time>
      </trkpt>
      <trkpt lat="47.22317" lon="-0.03696">
        <ele>120</ele>
        <time>2011-02-20T10:38:11Z</time>
      </trkpt>
      <trkpt lat="47.22317" lon="-0.03703">
        <ele>120</ele>
        <time>2011-02-20T10:38:14Z</time>
      </trkpt>
      <trkpt lat="47.22316" lon="-0.03711">
        <ele>120</ele>
        <time>2011-02-20T10:38:18Z</time>
      </trkpt>
      <trkpt lat="47.22315" lon="-0.03719">
        <ele>120</ele>
        <time>2011-02-20T10:38:22Z</time>
      </trkpt>
      <trkpt lat="47.22314" lon="-0.03727">
        <ele>120</ele>
        <time>2011-02-20T10:38:26Z</time>
      </trkpt>
      <trkpt lat="47.22313" lon="-0.03734">
        <ele>119</ele>
        <time>2011-02-20T10:38:30Z</time>
      </trkpt>
      <trkpt lat="47.22313" lon="-0.03741">
        <ele>119</ele>
        <time>2011-02-20T10:38:34Z</time>
      </trkpt>
      <trkpt lat="47.22313" lon="-0.03748">
        <ele>119</ele>
        <time>2011-02-20T10:38:38Z</time>
      </trkpt>
      <trkpt lat="47.22314" lon="-0.03755">
        <ele>119</ele>
        <time>2011-02-20T10:38:42Z</time>
      </trkpt>
      <trkpt lat="47.22314" lon="-0.03763">
        <ele>119</ele>
        <time>2011-02-20T10:38:46Z</time>
      </trkpt>
      <trkpt lat="47.22314" lon="-0.0377">
        <ele>119</ele>
        <time>2011-02-20T10:38:50Z</time>
      </trkpt>
      <trkpt lat="47.22314" lon="-0.03777">
        <ele>119</ele>
        <time>2011-02-20T10:38:54Z</time>
      </trkpt>
      <trkpt lat="47.22314" lon="-0.03784">
        <ele>119</ele>
        <time>2011-02-20T10:38:58Z</time>
      </trkpt>
      <trkpt lat="47.22314" lon="-0.03792">
        <ele>118</ele>
        <time>2011-02-20T10:39:02Z</time>
      </trkpt>
      <trkpt lat="47.22314" lon="-0.03799">
        <ele>118</ele>
        <time>2011-02-20T10:39:06Z</time>
      </trkpt>
      <trkpt lat="47.22315" lon="-0.03806">
        <ele>118</ele>
        <time>2011-02-20T10:39:10Z</time>
      </trkpt>
      <trkpt lat="47.22316" lon="-0.03814">
        <ele>118</ele>
        <time>2011-02-20T10:39:14Z</time>
      </trkpt>
      <trkpt lat="47.22317" lon="-0.03821">
        <ele>118</ele>
        <time>2011-02-20T10:39:18Z</time>
      </trkpt>
      <trkpt lat="47.22319" lon="-0.03828">
        <ele>118</ele>
        <time>2011-02-20T10:39:22Z</time>
      </trkpt>
      <trkpt lat="47.2232" lon="-0.03835">
        <ele>118</ele>
        <time>2011-02-20T10:39:26Z</time>
      </trkpt>
      <trkpt lat="47.2232" lon="-0.03842">
        <ele>118</ele>
        <time>2011-02-20T10:39:30Z</time>
      </trkpt>
      <trkpt lat="47.22323" lon="-0.03848">
        <ele>118</ele>
        <time>2011-02-20T10:39:34Z</time>
      </trkpt>
      <trkpt lat="47.22324" lon="-0.03854">
        <ele>118</ele>
        <time>2011-02-20T10:39:38Z</time>
      </trkpt>
      <trkpt lat="47.22326" lon="-0.0386">
        <ele>118</ele>
        <time>2011-02-20T10:39:42Z</time>
      </trkpt>
      <trkpt lat="47.22327" lon="-0.03868">
        <ele>118</ele>
        <time>2011-02-20T10:39:47Z</time>
      </trkpt>
      <trkpt lat="47.22327" lon="-0.03875">
        <ele>118</ele>
        <time>2011-02-20T10:39:51Z</time>
      </trkpt>
      <trkpt lat="47.22328" lon="-0.03882">
        <ele>118</ele>
        <time>2011-02-20T10:39:56Z</time>
      </trkpt>
      <trkpt lat="47.22329" lon="-0.0389">
        <ele>117</ele>
        <time>2011-02-20T10:40:01Z</time>
      </trkpt>
      <trkpt lat="47.22331" lon="-0.03896">
        <ele>117</ele>
        <time>2011-02-20T10:40:06Z</time>
      </trkpt>
      <trkpt lat="47.22332" lon="-0.03903">
        <ele>117</ele>
        <time>2011-02-20T10:40:10Z</time>
      </trkpt>
      <trkpt lat="47.22334" lon="-0.03909">
        <ele>117</ele>
        <time>2011-02-20T10:40:13Z</time>
      </trkpt>
      <trkpt lat="47.22336" lon="-0.03916">
        <ele>117</ele>
        <time>2011-02-20T10:40:16Z</time>
      </trkpt>
      <trkpt lat="47.22337" lon="-0.03922">
        <ele>117</ele>
        <time>2011-02-20T10:40:19Z</time>
      </trkpt>
      <trkpt lat="47.22338" lon="-0.03929">
        <ele>117</ele>
        <time>2011-02-20T10:40:22Z</time>
      </trkpt>
      <trkpt lat="47.22338" lon="-0.03936">
        <ele>117</ele>
        <time>2011-02-20T10:40:25Z</time>
      </trkpt>
      <trkpt lat="47.22338" lon="-0.03944">
        <ele>117</ele>
        <time>2011-02-20T10:40:29Z</time>
      </trkpt>
      <trkpt lat="47.22338" lon="-0.03952">
        <ele>117</ele>
        <time>2011-02-20T10:40:33Z</time>
      </trkpt>
      <trkpt lat="47.22339" lon="-0.03959">
        <ele>117</ele>
        <time>2011-02-20T10:40:38Z</time>
      </trkpt>
      <trkpt lat="47.2234" lon="-0.03967">
        <ele>117</ele>
        <time>2011-02-20T10:40:43Z</time>
      </trkpt>
      <trkpt lat="47.22341" lon="-0.03974">
        <ele>117</ele>
        <time>2011-02-20T10:40:47Z</time>
      </trkpt>
      <trkpt lat="47.22342" lon="-0.0398">
        <ele>117</ele>
        <time>2011-02-20T10:40:51Z</time>
      </trkpt>
      <trkpt lat="47.22343" lon="-0.03987">
        <ele>117</ele>
        <time>2011-02-20T10:40:55Z</time>
      </trkpt>
      <trkpt lat="47.22344" lon="-0.03993">
        <ele>117</ele>
        <time>2011-02-20T10:40:59Z</time>
      </trkpt>
      <trkpt lat="47.22346" lon="-0.04">
        <ele>117</ele>
        <time>2011-02-20T10:41:03Z</time>
      </trkpt>
      <trkpt lat="47.22347" lon="-0.04006">
        <ele>116</ele>
        <time>2011-02-20T10:41:07Z</time>
      </trkpt>
      <trkpt lat="47.22348" lon="-0.04013">
        <ele>116</ele>
        <time>2011-02-20T10:41:11Z</time>
      </trkpt>
      <trkpt lat="47.22349" lon="-0.0402">
        <ele>116</ele>
        <time>2011-02-20T10:41:15Z</time>
      </trkpt>
      <trkpt lat="47.2235" lon="-0.04027">
        <ele>116</ele>
        <time>2011-02-20T10:41:19Z</time>
      </trkpt>
      <trkpt lat="47.22352" lon="-0.04035">
        <ele>116</ele>
        <time>2011-02-20T10:41:23Z</time>
      </trkpt>
      <trkpt lat="47.22355" lon="-0.0404">
        <ele>116</ele>
        <time>2011-02-20T10:41:26Z</time>
      </trkpt>
      <trkpt lat="47.22358" lon="-0.04046">
        <ele>116</ele>
        <time>2011-02-20T10:41:29Z</time>
      </trkpt>
      <trkpt lat="47.22363" lon="-0.04051">
        <ele>116</ele>
        <time>2011-02-20T10:41:32Z</time>
      </trkpt>
      <trkpt lat="47.22367" lon="-0.04057">
        <ele>116</ele>
        <time>2011-02-20T10:41:36Z</time>
      </trkpt>
      <trkpt lat="47.2237" lon="-0.04062">
        <ele>115</ele>
        <time>2011-02-20T10:41:40Z</time>
      </trkpt>
      <trkpt lat="47.22374" lon="-0.04066">
        <ele>115</ele>
        <time>2011-02-20T10:41:43Z</time>
      </trkpt>
      <trkpt lat="47.22379" lon="-0.04071">
        <ele>115</ele>
        <time>2011-02-20T10:41:47Z</time>
      </trkpt>
      <trkpt lat="47.22383" lon="-0.04073">
        <ele>115</ele>
        <time>2011-02-20T10:41:51Z</time>
      </trkpt>
      <trkpt lat="47.22388" lon="-0.04075">
        <ele>115</ele>
        <time>2011-02-20T10:41:55Z</time>
      </trkpt>
      <trkpt lat="47.22393" lon="-0.04077">
        <ele>114</ele>
        <time>2011-02-20T10:42:00Z</time>
      </trkpt>
      <trkpt lat="47.22398" lon="-0.04076">
        <ele>114</ele>
        <time>2011-02-20T10:42:05Z</time>
      </trkpt>
      <trkpt lat="47.22403" lon="-0.04076">
        <ele>114</ele>
        <time>2011-02-20T10:42:10Z</time>
      </trkpt>
      <trkpt lat="47.22408" lon="-0.04076">
        <ele>114</ele>
        <time>2011-02-20T10:42:14Z</time>
      </trkpt>
      <trkpt lat="47.22414" lon="-0.04076">
        <ele>114</ele>
        <time>2011-02-20T10:42:18Z</time>
      </trkpt>
      <trkpt lat="47.22418" lon="-0.04076">
        <ele>114</ele>
        <time>2011-02-20T10:42:21Z</time>
      </trkpt>
      <trkpt lat="47.22423" lon="-0.04076">
        <ele>114</ele>
        <time>2011-02-20T10:42:26Z</time>
      </trkpt>
      <trkpt lat="47.22428" lon="-0.04076">
        <ele>113</ele>
        <time>2011-02-20T10:42:32Z</time>
      </trkpt>
      <trkpt lat="47.22433" lon="-0.04078">
        <ele>113</ele>
        <time>2011-02-20T10:42:39Z</time>
      </trkpt>
      <trkpt lat="47.22437" lon="-0.04081">
        <ele>113</ele>
        <time>2011-02-20T10:42:43Z</time>
      </trkpt>
      <trkpt lat="47.22442" lon="-0.04086">
        <ele>113</ele>
        <time>2011-02-20T10:42:47Z</time>
      </trkpt>
      <trkpt lat="47.22445" lon="-0.04092">
        <ele>113</ele>
        <time>2011-02-20T10:42:51Z</time>
      </trkpt>
      <trkpt lat="47.22446" lon="-0.04098">
        <ele>113</ele>
        <time>2011-02-20T10:42:56Z</time>
      </trkpt>
      <trkpt lat="47.22446" lon="-0.04106">
        <ele>113</ele>
        <time>2011-02-20T10:43:01Z</time>
      </trkpt>
      <trkpt lat="47.22444" lon="-0.04113">
        <ele>113</ele>
        <time>2011-02-20T10:43:05Z</time>
      </trkpt>
      <trkpt lat="47.22442" lon="-0.0412">
        <ele>113</ele>
        <time>2011-02-20T10:43:09Z</time>
      </trkpt>
      <trkpt lat="47.22439" lon="-0.04128">
        <ele>113</ele>
        <time>2011-02-20T10:43:13Z</time>
      </trkpt>
      <trkpt lat="47.22438" lon="-0.04135">
        <ele>113</ele>
        <time>2011-02-20T10:43:17Z</time>
      </trkpt>
      <trkpt lat="47.22438" lon="-0.04142">
        <ele>113</ele>
        <time>2011-02-20T10:43:24Z</time>
      </trkpt>
      <trkpt lat="47.22438" lon="-0.0415">
        <ele>113</ele>
        <time>2011-02-20T10:43:29Z</time>
      </trkpt>
      <trkpt lat="47.22438" lon="-0.04157">
        <ele>113</ele>
        <time>2011-02-20T10:43:33Z</time>
      </trkpt>
      <trkpt lat="47.22438" lon="-0.04164">
        <ele>113</ele>
        <time>2011-02-20T10:43:37Z</time>
      </trkpt>
      <trkpt lat="47.22438" lon="-0.04172">
        <ele>113</ele>
        <time>2011-02-20T10:43:41Z</time>
      </trkpt>
      <trkpt lat="47.22439" lon="-0.04179">
        <ele>113</ele>
        <time>2011-02-20T10:43:44Z</time>
      </trkpt>
      <trkpt lat="47.2244" lon="-0.04187">
        <ele>113</ele>
        <time>2011-02-20T10:43:48Z</time>
      </trkpt>
      <trkpt lat="47.2244" lon="-0.04196">
        <ele>112</ele>
        <time>2011-02-20T10:43:52Z</time>
      </trkpt>
      <trkpt lat="47.22441" lon="-0.04204">
        <ele>112</ele>
        <time>2011-02-20T10:43:56Z</time>
      </trkpt>
      <trkpt lat="47.22443" lon="-0.04212">
        <ele>112</ele>
        <time>2011-02-20T10:44:00Z</time>
      </trkpt>
      <trkpt lat="47.22444" lon="-0.04219">
        <ele>112</ele>
        <time>2011-02-20T10:44:04Z</time>
      </trkpt>
      <trkpt lat="47.22446" lon="-0.04227">
        <ele>112</ele>
        <time>2011-02-20T10:44:08Z</time>
      </trkpt>
      <trkpt lat="47.22448" lon="-0.04234">
        <ele>112</ele>
        <time>2011-02-20T10:44:12Z</time>
      </trkpt>
      <trkpt lat="47.2245" lon="-0.04241">
        <ele>111</ele>
        <time>2011-02-20T10:44:16Z</time>
      </trkpt>
      <trkpt lat="47.22451" lon="-0.04248">
        <ele>111</ele>
        <time>2011-02-20T10:44:20Z</time>
      </trkpt>
      <trkpt lat="47.22454" lon="-0.04255">
        <ele>111</ele>
        <time>2011-02-20T10:44:24Z</time>
      </trkpt>
      <trkpt lat="47.22456" lon="-0.04262">
        <ele>111</ele>
        <time>2011-02-20T10:44:28Z</time>
      </trkpt>
      <trkpt lat="47.22458" lon="-0.04269">
        <ele>111</ele>
        <time>2011-02-20T10:44:32Z</time>
      </trkpt>
      <trkpt lat="47.22459" lon="-0.04276">
        <ele>111</ele>
        <time>2011-02-20T10:44:36Z</time>
      </trkpt>
      <trkpt lat="47.22461" lon="-0.04283">
        <ele>111</ele>
        <time>2011-02-20T10:44:40Z</time>
      </trkpt>
      <trkpt lat="47.22462" lon="-0.0429">
        <ele>111</ele>
        <time>2011-02-20T10:44:44Z</time>
      </trkpt>
      <trkpt lat="47.22463" lon="-0.04297">
        <ele>110</ele>
        <time>2011-02-20T10:44:48Z</time>
      </trkpt>
      <trkpt lat="47.22464" lon="-0.04304">
        <ele>110</ele>
        <time>2011-02-20T10:44:53Z</time>
      </trkpt>
      <trkpt lat="47.22465" lon="-0.04311">
        <ele>110</ele>
        <time>2011-02-20T10:44:58Z</time>
      </trkpt>
      <trkpt lat="47.22467" lon="-0.04319">
        <ele>110</ele>
        <time>2011-02-20T10:45:03Z</time>
      </trkpt>
      <trkpt lat="47.22467" lon="-0.04325">
        <ele>110</ele>
        <time>2011-02-20T10:45:07Z</time>
      </trkpt>
      <trkpt lat="47.22468" lon="-0.04333">
        <ele>109</ele>
        <time>2011-02-20T10:45:12Z</time>
      </trkpt>
      <trkpt lat="47.22468" lon="-0.0434">
        <ele>109</ele>
        <time>2011-02-20T10:45:16Z</time>
      </trkpt>
      <trkpt lat="47.22468" lon="-0.04347">
        <ele>109</ele>
        <time>2011-02-20T10:45:20Z</time>
      </trkpt>
      <trkpt lat="47.22469" lon="-0.04354">
        <ele>109</ele>
        <time>2011-02-20T10:45:24Z</time>
      </trkpt>
      <trkpt lat="47.22469" lon="-0.0436">
        <ele>109</ele>
        <time>2011-02-20T10:45:28Z</time>
      </trkpt>
      <trkpt lat="47.2247" lon="-0.04367">
        <ele>109</ele>
        <time>2011-02-20T10:45:32Z</time>
      </trkpt>
      <trkpt lat="47.22471" lon="-0.04374">
        <ele>108</ele>
        <time>2011-02-20T10:45:36Z</time>
      </trkpt>
      <trkpt lat="47.22472" lon="-0.04382">
        <ele>108</ele>
        <time>2011-02-20T10:45:40Z</time>
      </trkpt>
      <trkpt lat="47.22472" lon="-0.04389">
        <ele>108</ele>
        <time>2011-02-20T10:45:44Z</time>
      </trkpt>
      <trkpt lat="47.22473" lon="-0.04397">
        <ele>108</ele>
        <time>2011-02-20T10:45:48Z</time>
      </trkpt>
      <trkpt lat="47.22474" lon="-0.04404">
        <ele>108</ele>
        <time>2011-02-20T10:45:52Z</time>
      </trkpt>
      <trkpt lat="47.22475" lon="-0.04411">
        <ele>108</ele>
        <time>2011-02-20T10:45:56Z</time>
      </trkpt>
      <trkpt lat="47.22475" lon="-0.04418">
        <ele>108</ele>
        <time>2011-02-20T10:46:00Z</time>
      </trkpt>
      <trkpt lat="47.22475" lon="-0.04426">
        <ele>107</ele>
        <time>2011-02-20T10:46:04Z</time>
      </trkpt>
      <trkpt lat="47.22474" lon="-0.04433">
        <ele>107</ele>
        <time>2011-02-20T10:46:08Z</time>
      </trkpt>
      <trkpt lat="47.22474" lon="-0.04441">
        <ele>107</ele>
        <time>2011-02-20T10:46:12Z</time>
      </trkpt>
      <trkpt lat="47.22473" lon="-0.04448">
        <ele>107</ele>
        <time>2011-02-20T10:46:16Z</time>
      </trkpt>
      <trkpt lat="47.22472" lon="-0.04456">
        <ele>107</ele>
        <time>2011-02-20T10:46:20Z</time>
      </trkpt>
      <trkpt lat="47.22471" lon="-0.04463">
        <ele>107</ele>
        <time>2011-02-20T10:46:24Z</time>
      </trkpt>
      <trkpt lat="47.22469" lon="-0.0447">
        <ele>107</ele>
        <time>2011-02-20T10:46:28Z</time>
      </trkpt>
      <trkpt lat="47.22468" lon="-0.04478">
        <ele>106</ele>
        <time>2011-02-20T10:46:32Z</time>
      </trkpt>
      <trkpt lat="47.22467" lon="-0.04485">
        <ele>106</ele>
        <time>2011-02-20T10:46:36Z</time>
      </trkpt>
      <trkpt lat="47.22465" lon="-0.04491">
        <ele>106</ele>
        <time>2011-02-20T10:46:40Z</time>
      </trkpt>
      <trkpt lat="47.22464" lon="-0.04498">
        <ele>106</ele>
        <time>2011-02-20T10:46:44Z</time>
      </trkpt>
      <trkpt lat="47.22462" lon="-0.04504">
        <ele>106</ele>
        <time>2011-02-20T10:46:48Z</time>
      </trkpt>
      <trkpt lat="47.22459" lon="-0.04509">
        <ele>106</ele>
        <time>2011-02-20T10:46:52Z</time>
      </trkpt>
      <trkpt lat="47.22456" lon="-0.04515">
        <ele>106</ele>
        <time>2011-02-20T10:46:56Z</time>
      </trkpt>
      <trkpt lat="47.22452" lon="-0.0452">
        <ele>106</ele>
        <time>2011-02-20T10:47:00Z</time>
      </trkpt>
      <trkpt lat="47.22448" lon="-0.04525">
        <ele>106</ele>
        <time>2011-02-20T10:47:04Z</time>
      </trkpt>
      <trkpt lat="47.22444" lon="-0.04529">
        <ele>106</ele>
        <time>2011-02-20T10:47:08Z</time>
      </trkpt>
      <trkpt lat="47.2244" lon="-0.04533">
        <ele>105</ele>
        <time>2011-02-20T10:47:12Z</time>
      </trkpt>
      <trkpt lat="47.22436" lon="-0.0453">
        <ele>105</ele>
        <time>2011-02-20T10:47:22Z</time>
      </trkpt>
      <trkpt lat="47.22431" lon="-0.04533">
        <ele>105</ele>
        <time>2011-02-20T10:47:32Z</time>
      </trkpt>
      <trkpt lat="47.22427" lon="-0.04535">
        <ele>105</ele>
        <time>2011-02-20T10:47:36Z</time>
      </trkpt>
      <trkpt lat="47.22422" lon="-0.04539">
        <ele>105</ele>
        <time>2011-02-20T10:47:41Z</time>
      </trkpt>
      <trkpt lat="47.22417" lon="-0.04543">
        <ele>105</ele>
        <time>2011-02-20T10:47:46Z</time>
      </trkpt>
      <trkpt lat="47.22413" lon="-0.04547">
        <ele>105</ele>
        <time>2011-02-20T10:47:50Z</time>
      </trkpt>
      <trkpt lat="47.22409" lon="-0.04549">
        <ele>105</ele>
        <time>2011-02-20T10:47:54Z</time>
      </trkpt>
      <trkpt lat="47.22404" lon="-0.04553">
        <ele>105</ele>
        <time>2011-02-20T10:47:59Z</time>
      </trkpt>
      <trkpt lat="47.22399" lon="-0.04556">
        <ele>105</ele>
        <time>2011-02-20T10:48:04Z</time>
      </trkpt>
      <trkpt lat="47.22395" lon="-0.04559">
        <ele>105</ele>
        <time>2011-02-20T10:48:08Z</time>
      </trkpt>
      <trkpt lat="47.22391" lon="-0.04562">
        <ele>105</ele>
        <time>2011-02-20T10:48:12Z</time>
      </trkpt>
      <trkpt lat="47.22389" lon="-0.04569">
        <ele>105</ele>
        <time>2011-02-20T10:48:16Z</time>
      </trkpt>
      <trkpt lat="47.22388" lon="-0.04577">
        <ele>104</ele>
        <time>2011-02-20T10:48:21Z</time>
      </trkpt>
      <trkpt lat="47.22388" lon="-0.04584">
        <ele>104</ele>
        <time>2011-02-20T10:48:26Z</time>
      </trkpt>
      <trkpt lat="47.22389" lon="-0.04592">
        <ele>104</ele>
        <time>2011-02-20T10:48:31Z</time>
      </trkpt>
      <trkpt lat="47.22391" lon="-0.04599">
        <ele>104</ele>
        <time>2011-02-20T10:48:35Z</time>
      </trkpt>
      <trkpt lat="47.22392" lon="-0.04606">
        <ele>104</ele>
        <time>2011-02-20T10:48:39Z</time>
      </trkpt>
      <trkpt lat="47.22393" lon="-0.04612">
        <ele>104</ele>
        <time>2011-02-20T10:48:43Z</time>
      </trkpt>
      <trkpt lat="47.22394" lon="-0.04619">
        <ele>104</ele>
        <time>2011-02-20T10:48:47Z</time>
      </trkpt>
      <trkpt lat="47.22395" lon="-0.04626">
        <ele>104</ele>
        <time>2011-02-20T10:48:51Z</time>
      </trkpt>
      <trkpt lat="47.22396" lon="-0.04633">
        <ele>104</ele>
        <time>2011-02-20T10:48:55Z</time>
      </trkpt>
      <trkpt lat="47.22396" lon="-0.0464">
        <ele>104</ele>
        <time>2011-02-20T10:48:59Z</time>
      </trkpt>
      <trkpt lat="47.22397" lon="-0.04647">
        <ele>103</ele>
        <time>2011-02-20T10:49:03Z</time>
      </trkpt>
      <trkpt lat="47.22399" lon="-0.04654">
        <ele>103</ele>
        <time>2011-02-20T10:49:07Z</time>
      </trkpt>
      <trkpt lat="47.224" lon="-0.04662">
        <ele>103</ele>
        <time>2011-02-20T10:49:11Z</time>
      </trkpt>
      <trkpt lat="47.22401" lon="-0.04669">
        <ele>103</ele>
        <time>2011-02-20T10:49:15Z</time>
      </trkpt>
      <trkpt lat="47.22402" lon="-0.04677">
        <ele>103</ele>
        <time>2011-02-20T10:49:19Z</time>
      </trkpt>
      <trkpt lat="47.22402" lon="-0.04684">
        <ele>103</ele>
        <time>2011-02-20T10:49:23Z</time>
      </trkpt>
      <trkpt lat="47.22403" lon="-0.04691">
        <ele>103</ele>
        <time>2011-02-20T10:49:27Z</time>
      </trkpt>
      <trkpt lat="47.22404" lon="-0.04699">
        <ele>103</ele>
        <time>2011-02-20T10:49:31Z</time>
      </trkpt>
      <trkpt lat="47.22405" lon="-0.04706">
        <ele>103</ele>
        <time>2011-02-20T10:49:35Z</time>
      </trkpt>
      <trkpt lat="47.22406" lon="-0.04713">
        <ele>103</ele>
        <time>2011-02-20T10:49:39Z</time>
      </trkpt>
      <trkpt lat="47.22407" lon="-0.0472">
        <ele>103</ele>
        <time>2011-02-20T10:49:43Z</time>
      </trkpt>
      <trkpt lat="47.22407" lon="-0.04727">
        <ele>103</ele>
        <time>2011-02-20T10:49:47Z</time>
      </trkpt>
      <trkpt lat="47.22408" lon="-0.04734">
        <ele>103</ele>
        <time>2011-02-20T10:49:51Z</time>
      </trkpt>
      <trkpt lat="47.22408" lon="-0.04742">
        <ele>103</ele>
        <time>2011-02-20T10:49:55Z</time>
      </trkpt>
      <trkpt lat="47.22409" lon="-0.04749">
        <ele>103</ele>
        <time>2011-02-20T10:49:59Z</time>
      </trkpt>
      <trkpt lat="47.2241" lon="-0.04756">
        <ele>103</ele>
        <time>2011-02-20T10:50:03Z</time>
      </trkpt>
      <trkpt lat="47.22411" lon="-0.04763">
        <ele>103</ele>
        <time>2011-02-20T10:50:07Z</time>
      </trkpt>
      <trkpt lat="47.22411" lon="-0.04771">
        <ele>103</ele>
        <time>2011-02-20T10:50:11Z</time>
      </trkpt>
      <trkpt lat="47.22412" lon="-0.04778">
        <ele>103</ele>
        <time>2011-02-20T10:50:15Z</time>
      </trkpt>
      <trkpt lat="47.22413" lon="-0.04786">
        <ele>103</ele>
        <time>2011-02-20T10:50:19Z</time>
      </trkpt>
      <trkpt lat="47.22414" lon="-0.04793">
        <ele>103</ele>
        <time>2011-02-20T10:50:23Z</time>
      </trkpt>
      <trkpt lat="47.22416" lon="-0.048">
        <ele>103</ele>
        <time>2011-02-20T10:50:27Z</time>
      </trkpt>
      <trkpt lat="47.22418" lon="-0.04807">
        <ele>103</ele>
        <time>2011-02-20T10:50:31Z</time>
      </trkpt>
      <trkpt lat="47.22419" lon="-0.04814">
        <ele>103</ele>
        <time>2011-02-20T10:50:35Z</time>
      </trkpt>
      <trkpt lat="47.2242" lon="-0.04821">
        <ele>102</ele>
        <time>2011-02-20T10:50:39Z</time>
      </trkpt>
      <trkpt lat="47.22421" lon="-0.04827">
        <ele>102</ele>
        <time>2011-02-20T10:50:43Z</time>
      </trkpt>
      <trkpt lat="47.2242" lon="-0.04835">
        <ele>102</ele>
        <time>2011-02-20T10:50:48Z</time>
      </trkpt>
      <trkpt lat="47.22419" lon="-0.04843">
        <ele>102</ele>
        <time>2011-02-20T10:50:53Z</time>
      </trkpt>
      <trkpt lat="47.22416" lon="-0.0485">
        <ele>102</ele>
        <time>2011-02-20T10:50:57Z</time>
      </trkpt>
      <trkpt lat="47.22414" lon="-0.04856">
        <ele>102</ele>
        <time>2011-02-20T10:51:01Z</time>
      </trkpt>
      <trkpt lat="47.22412" lon="-0.04863">
        <ele>102</ele>
        <time>2011-02-20T10:51:05Z</time>
      </trkpt>
      <trkpt lat="47.22409" lon="-0.0487">
        <ele>102</ele>
        <time>2011-02-20T10:51:09Z</time>
      </trkpt>
      <trkpt lat="47.22407" lon="-0.04877">
        <ele>102</ele>
        <time>2011-02-20T10:51:13Z</time>
      </trkpt>
      <trkpt lat="47.22404" lon="-0.04884">
        <ele>102</ele>
        <time>2011-02-20T10:51:17Z</time>
      </trkpt>
      <trkpt lat="47.224" lon="-0.0489">
        <ele>102</ele>
        <time>2011-02-20T10:51:21Z</time>
      </trkpt>
      <trkpt lat="47.22397" lon="-0.04896">
        <ele>102</ele>
        <time>2011-02-20T10:51:25Z</time>
      </trkpt>
      <trkpt lat="47.22394" lon="-0.04902">
        <ele>102</ele>
        <time>2011-02-20T10:51:29Z</time>
      </trkpt>
      <trkpt lat="47.2239" lon="-0.04908">
        <ele>102</ele>
        <time>2011-02-20T10:51:33Z</time>
      </trkpt>
      <trkpt lat="47.22387" lon="-0.04914">
        <ele>102</ele>
        <time>2011-02-20T10:51:37Z</time>
      </trkpt>
      <trkpt lat="47.22383" lon="-0.04919">
        <ele>102</ele>
        <time>2011-02-20T10:51:41Z</time>
      </trkpt>
      <trkpt lat="47.2238" lon="-0.04924">
        <ele>101</ele>
        <time>2011-02-20T10:51:45Z</time>
      </trkpt>
      <trkpt lat="47.22377" lon="-0.0493">
        <ele>101</ele>
        <time>2011-02-20T10:51:49Z</time>
      </trkpt>
      <trkpt lat="47.22374" lon="-0.04936">
        <ele>101</ele>
        <time>2011-02-20T10:51:53Z</time>
      </trkpt>
      <trkpt lat="47.22371" lon="-0.04942">
        <ele>101</ele>
        <time>2011-02-20T10:51:57Z</time>
      </trkpt>
      <trkpt lat="47.22368" lon="-0.04949">
        <ele>101</ele>
        <time>2011-02-20T10:52:02Z</time>
      </trkpt>
      <trkpt lat="47.22367" lon="-0.04956">
        <ele>101</ele>
        <time>2011-02-20T10:52:06Z</time>
      </trkpt>
      <trkpt lat="47.22367" lon="-0.04963">
        <ele>101</ele>
        <time>2011-02-20T10:52:10Z</time>
      </trkpt>
      <trkpt lat="47.22368" lon="-0.04971">
        <ele>101</ele>
        <time>2011-02-20T10:52:14Z</time>
      </trkpt>
      <trkpt lat="47.22368" lon="-0.0498">
        <ele>101</ele>
        <time>2011-02-20T10:52:18Z</time>
      </trkpt>
      <trkpt lat="47.22368" lon="-0.04988">
        <ele>101</ele>
        <time>2011-02-20T10:52:22Z</time>
      </trkpt>
      <trkpt lat="47.22368" lon="-0.04995">
        <ele>101</ele>
        <time>2011-02-20T10:52:26Z</time>
      </trkpt>
      <trkpt lat="47.22368" lon="-0.05002">
        <ele>101</ele>
        <time>2011-02-20T10:52:30Z</time>
      </trkpt>
      <trkpt lat="47.22369" lon="-0.05009">
        <ele>101</ele>
        <time>2011-02-20T10:52:34Z</time>
      </trkpt>
      <trkpt lat="47.22368" lon="-0.05017">
        <ele>101</ele>
        <time>2011-02-20T10:52:39Z</time>
      </trkpt>
      <trkpt lat="47.22366" lon="-0.05024">
        <ele>101</ele>
        <time>2011-02-20T10:52:48Z</time>
      </trkpt>
      <trkpt lat="47.22363" lon="-0.0503">
        <ele>100</ele>
        <time>2011-02-20T10:52:52Z</time>
      </trkpt>
      <trkpt lat="47.22359" lon="-0.05035">
        <ele>100</ele>
        <time>2011-02-20T10:52:56Z</time>
      </trkpt>
      <trkpt lat="47.22354" lon="-0.05039">
        <ele>100</ele>
        <time>2011-02-20T10:53:00Z</time>
      </trkpt>
      <trkpt lat="47.22349" lon="-0.05043">
        <ele>100</ele>
        <time>2011-02-20T10:53:04Z</time>
      </trkpt>
      <trkpt lat="47.22344" lon="-0.05046">
        <ele>100</ele>
        <time>2011-02-20T10:53:08Z</time>
      </trkpt>
      <trkpt lat="47.2234" lon="-0.0505">
        <ele>99</ele>
        <time>2011-02-20T10:53:12Z</time>
      </trkpt>
      <trkpt lat="47.22335" lon="-0.05053">
        <ele>99</ele>
        <time>2011-02-20T10:53:16Z</time>
      </trkpt>
      <trkpt lat="47.22331" lon="-0.05054">
        <ele>99</ele>
        <time>2011-02-20T10:53:20Z</time>
      </trkpt>
      <trkpt lat="47.22326" lon="-0.05056">
        <ele>99</ele>
        <time>2011-02-20T10:53:24Z</time>
      </trkpt>
      <trkpt lat="47.22321" lon="-0.05057">
        <ele>99</ele>
        <time>2011-02-20T10:53:28Z</time>
      </trkpt>
      <trkpt lat="47.22316" lon="-0.05058">
        <ele>98</ele>
        <time>2011-02-20T10:53:32Z</time>
      </trkpt>
      <trkpt lat="47.22312" lon="-0.0506">
        <ele>98</ele>
        <time>2011-02-20T10:53:36Z</time>
      </trkpt>
      <trkpt lat="47.22307" lon="-0.05063">
        <ele>98</ele>
        <time>2011-02-20T10:53:40Z</time>
      </trkpt>
      <trkpt lat="47.22303" lon="-0.05066">
        <ele>98</ele>
        <time>2011-02-20T10:53:44Z</time>
      </trkpt>
      <trkpt lat="47.22299" lon="-0.05069">
        <ele>98</ele>
        <time>2011-02-20T10:53:48Z</time>
      </trkpt>
      <trkpt lat="47.22294" lon="-0.05071">
        <ele>98</ele>
        <time>2011-02-20T10:53:52Z</time>
      </trkpt>
      <trkpt lat="47.22289" lon="-0.05073">
        <ele>98</ele>
        <time>2011-02-20T10:53:56Z</time>
      </trkpt>
      <trkpt lat="47.22285" lon="-0.05075">
        <ele>98</ele>
        <time>2011-02-20T10:54:00Z</time>
      </trkpt>
      <trkpt lat="47.2228" lon="-0.05077">
        <ele>97</ele>
        <time>2011-02-20T10:54:04Z</time>
      </trkpt>
      <trkpt lat="47.22276" lon="-0.05081">
        <ele>97</ele>
        <time>2011-02-20T10:54:08Z</time>
      </trkpt>
      <trkpt lat="47.22272" lon="-0.05085">
        <ele>97</ele>
        <time>2011-02-20T10:54:12Z</time>
      </trkpt>
      <trkpt lat="47.22268" lon="-0.05088">
        <ele>97</ele>
        <time>2011-02-20T10:54:16Z</time>
      </trkpt>
      <trkpt lat="47.22263" lon="-0.05091">
        <ele>97</ele>
        <time>2011-02-20T10:54:21Z</time>
      </trkpt>
      <trkpt lat="47.22259" lon="-0.05095">
        <ele>97</ele>
        <time>2011-02-20T10:54:25Z</time>
      </trkpt>
      <trkpt lat="47.22254" lon="-0.05098">
        <ele>97</ele>
        <time>2011-02-20T10:54:29Z</time>
      </trkpt>
      <trkpt lat="47.2225" lon="-0.05101">
        <ele>97</ele>
        <time>2011-02-20T10:54:33Z</time>
      </trkpt>
      <trkpt lat="47.22245" lon="-0.05104">
        <ele>97</ele>
        <time>2011-02-20T10:54:37Z</time>
      </trkpt>
      <trkpt lat="47.22241" lon="-0.05108">
        <ele>96</ele>
        <time>2011-02-20T10:54:41Z</time>
      </trkpt>
      <trkpt lat="47.22236" lon="-0.05111">
        <ele>96</ele>
        <time>2011-02-20T10:54:45Z</time>
      </trkpt>
      <trkpt lat="47.22232" lon="-0.05114">
        <ele>96</ele>
        <time>2011-02-20T10:54:49Z</time>
      </trkpt>
      <trkpt lat="47.22228" lon="-0.05117">
        <ele>96</ele>
        <time>2011-02-20T10:54:53Z</time>
      </trkpt>
      <trkpt lat="47.22224" lon="-0.05121">
        <ele>96</ele>
        <time>2011-02-20T10:54:57Z</time>
      </trkpt>
      <trkpt lat="47.22219" lon="-0.05124">
        <ele>96</ele>
        <time>2011-02-20T10:55:01Z</time>
      </trkpt>
      <trkpt lat="47.22215" lon="-0.05127">
        <ele>96</ele>
        <time>2011-02-20T10:55:05Z</time>
      </trkpt>
      <trkpt lat="47.2221" lon="-0.05129">
        <ele>96</ele>
        <time>2011-02-20T10:55:09Z</time>
      </trkpt>
      <trkpt lat="47.22206" lon="-0.05132">
        <ele>96</ele>
        <time>2011-02-20T10:55:13Z</time>
      </trkpt>
      <trkpt lat="47.22201" lon="-0.05135">
        <ele>95</ele>
        <time>2011-02-20T10:55:17Z</time>
      </trkpt>
      <trkpt lat="47.22197" lon="-0.05138">
        <ele>95</ele>
        <time>2011-02-20T10:55:21Z</time>
      </trkpt>
      <trkpt lat="47.22193" lon="-0.0514">
        <ele>95</ele>
        <time>2011-02-20T10:55:25Z</time>
      </trkpt>
      <trkpt lat="47.22188" lon="-0.05144">
        <ele>95</ele>
        <time>2011-02-20T10:55:29Z</time>
      </trkpt>
      <trkpt lat="47.22184" lon="-0.05147">
        <ele>95</ele>
        <time>2011-02-20T10:55:33Z</time>
      </trkpt>
      <trkpt lat="47.22179" lon="-0.0515">
        <ele>95</ele>
        <time>2011-02-20T10:55:37Z</time>
      </trkpt>
      <trkpt lat="47.22175" lon="-0.05154">
        <ele>95</ele>
        <time>2011-02-20T10:55:41Z</time>
      </trkpt>
      <trkpt lat="47.22171" lon="-0.05158">
        <ele>95</ele>
        <time>2011-02-20T10:55:45Z</time>
      </trkpt>
      <trkpt lat="47.22167" lon="-0.05161">
        <ele>95</ele>
        <time>2011-02-20T10:55:49Z</time>
      </trkpt>
      <trkpt lat="47.22164" lon="-0.05165">
        <ele>95</ele>
        <time>2011-02-20T10:55:53Z</time>
      </trkpt>
      <trkpt lat="47.2216" lon="-0.05169">
        <ele>95</ele>
        <time>2011-02-20T10:55:57Z</time>
      </trkpt>
    </trkseg>
  </trk>
</gpx>